[[[{"header":{"parameterUnit":"kt","parameterCategory":2,"dx":1,"dy":1,"la1":29.587661999999998,"la2":31.0,"lo1":-88.76705300000003,"lo2":-86.6583820000003,"nx":115,"ny":88,"refTime":"2022-10-12T06:00:00:Z","depth":0,"parameterNumber":1,"parameterNumberName":"U-component_of_WINDS"},"data":[-7.6564,-7.6494,-7.4754,-7.4739,-7.5272,-7.2542,-7.2812,-7.5415,-7.4259,-7.5222,-7.7614,-7.8089,-7.7711,-7.6594,-7.6564,-7.6186,-7.5133,-7.4817,-7.4287,-7.4073,-7.4479,-7.4282,-7.4457,-7.5128,-7.3202,-7.2333,-7.1789,-7.0957,-6.9941,-7.0681,-7.0681,-6.8602,-6.9491,-6.8737,-6.714,-6.7072,-6.7208,-6.7379,-6.7599,-6.8111,-6.8339,-6.7876,-6.7379,-6.7657,-6.8242,-6.851,-6.8876,-6.9649,-7.0032,-7.0154,-6.9941,-7.0277,-7.0497,-7.079,-7.079,-7.079,-7.079,-7.0643,-7.0185,-7.0137,-6.9673,-6.9722,-6.9478,-6.9258,-6.9136,-6.9234,-6.8013,-6.672,-6.6525,-6.6208,-6.6256,-6.6793,-6.6853,-6.5728,-6.4044,-6.1085,-5.8855,-5.7979,-5.8619,-5.8981,-5.7607,-5.4664,-5.1892,-5.0547,-5.0547,-5.1278,-5.2357,-5.1204,-5.0114,-5.002,-4.9963,-4.9944,-4.9944,-4.9925,-4.9925,-4.9925,-4.9925,-4.9925,-4.9925,-4.9925,-4.9925,-4.9925,-4.9925,-4.9925,-4.9925,-4.9925,-4.9925,-4.9925,-4.9925,-4.9925,-4.9925,-4.9925,-4.9925,-4.9925,-4.9925,-7.6564,-7.6564,-7.6254,-7.5415,-7.3927,-7.321,-7.3533,-7.3927,-7.368,-7.4853,-7.6843,-7.6984,-7.6809,-7.6594,-7.6564,-7.6395,-7.6113,-7.5629,-7.5871,-7.5942,-7.5913,-7.57,-7.57,-7.5942,-7.5529,-7.4754,-7.368,-7.2338,-7.1153,-7.0862,-7.033,-6.8199,-6.7361,-6.6861,-6.5636,-6.55,-6.611,-6.6281,-6.6671,-6.7355,-6.7135,-6.6671,-6.6744,-6.7111,-6.7535,-6.7608,-6.7696,-6.7867,-6.7891,-6.8062,-6.8306,-6.9038,-6.9746,-7.0594,-7.0643,-7.0619,-7.057,-6.9844,-6.9502,-6.9282,-6.8819,-6.8355,-6.7965,-6.7647,-6.7306,-6.6696,-6.5585,-6.4876,-6.4876,-6.4779,-6.4803,-6.4974,-6.4974,-6.4346,-6.2435,-6.0209,-5.8869,-5.767,-6.0315,-6.3246,-6.0652,-5.7429,-5.4664,-5.1985,-5.1819,-5.2357,-5.2171,-5.0923,-5.0133,-5.002,-5.0378,-5.0661,-5.1539,-5.0923,-4.9925,-4.9925,-4.9925,-4.9925,-4.9925,-4.9925,-4.9925,-4.9925,-4.9925,-4.9925,-4.9925,-4.9925,-4.9925,-4.9925,-4.9925,-4.9925,-4.9925,-4.9925,-4.9925,-4.9925,-4.9925,-7.6564,-7.6564,-7.6564,-7.6013,-7.5315,-7.5243,-7.5243,-7.5243,-7.5243,-7.58,-7.6564,-7.6564,-7.6564,-7.6564,-7.6564,-7.6494,-7.6494,-7.6564,-7.6564,-7.6564,-7.6395,-7.6564,-7.6564,-7.6424,-7.6564,-7.6494,-7.5415,-7.4783,-7.4045,-7.2812,-7.1001,-6.9386,-6.7752,-6.6589,-6.4761,-6.4695,-6.5012,-6.5061,-6.5378,-6.5598,-6.5524,-6.5305,-6.5427,-6.5744,-6.6183,-6.6598,-6.6744,-6.7233,-6.733,-6.7389,-6.7428,-6.8306,-6.8697,-6.9917,-7.0594,-7.0423,-6.96,-6.8697,-6.8291,-6.8096,-6.7949,-6.7779,-6.7462,-6.6867,-6.6427,-6.5598,-6.4461,-6.4388,-6.4388,-6.4388,-6.4388,-6.4388,-6.4388,-6.4388,-6.2861,-6.1855,-6.106,-6.0283,-6.1987,-6.4304,-6.297,-5.9913,-5.7607,-5.5027,-5.5027,-5.557,-5.3445,-5.2377,-5.0755,-4.9925,-5.0923,-5.1912,-5.3975,-5.4046,-5.1372,-5.0284,-5.0114,-4.9925,-4.9925,-4.9925,-4.9925,-4.9925,-4.9925,-4.9925,-4.9925,-4.9925,-4.9925,-4.9925,-4.9925,-4.9925,-4.9925,-4.9925,-4.9925,-4.9925,-4.9925,-7.6564,-7.6564,-7.6564,-7.6564,-7.6564,-7.6564,-7.6564,-7.6564,-7.6564,-7.6564,-7.6564,-7.6564,-7.6564,-7.6564,-7.6564,-7.6564,-7.6564,-7.6564,-7.6564,-7.6564,-7.6564,-7.6564,-7.6564,-7.6564,-7.6564,-7.6564,-7.6564,-7.6254,-7.57,-7.4682,-7.3136,-7.1104,-6.9255,-6.7461,-6.5557,-6.4412,-6.4534,-6.4583,-6.5124,-6.5599,-6.4873,-6.451,-6.4388,-6.4621,-6.489,-6.5451,-6.5695,-6.6232,-6.65,-6.6867,-6.694,-6.694,-6.678,-6.8794,-6.9812,-6.9739,-6.8453,-6.7696,-6.7281,-6.7086,-6.6818,-6.6744,-6.6452,-6.611,-6.5622,-6.4792,-6.4329,-6.4388,-6.4388,-6.4388,-6.4388,-6.4388,-6.4388,-6.4388,-6.4112,-6.4112,-6.4029,-6.3945,-6.3945,-6.4388,-6.4388,-6.2607,-6.0456,-5.9302,-5.9127,-5.7718,-5.5681,-5.3975,-5.2522,-5.243,-5.3883,-5.4411,-5.6469,-5.575,-5.245,-5.0829,-5.019,-4.9925,-4.9925,-4.9925,-4.9925,-4.9925,-4.9925,-4.9925,-4.9925,-4.9925,-4.9925,-4.9925,-4.9925,-4.9925,-4.9925,-4.9925,-4.9925,-4.9925,-4.9925,-7.6564,-7.6564,-7.6564,-7.6564,-7.6564,-7.6564,-7.6564,-7.6564,-7.6564,-7.6564,-7.6564,-7.6564,-7.6564,-7.6564,-7.6564,-7.6564,-7.6564,-7.6564,-7.6564,-7.6564,-7.6564,-7.6564,-7.6564,-7.6564,-7.6564,-7.6564,-7.6564,-7.6564,-7.6494,-7.5629,-7.4292,-7.321,-7.0952,-6.902,-6.7194,-6.5974,-6.5532,-6.5728,-6.6381,-6.6381,-6.5227,-6.4555,-6.4388,-6.4412,-6.451,-6.4608,-6.4608,-6.4524,-6.4548,-6.4939,-6.5231,-6.5475,-6.572,-6.6647,-6.7452,-6.7403,-6.7281,-6.6647,-6.6208,-6.6037,-6.5573,-6.5109,-6.4573,-6.4743,-6.4974,-6.451,-6.4412,-6.4388,-6.4388,-6.4388,-6.4388,-6.4388,-6.4388,-6.4388,-6.4388,-6.4388,-6.4388,-6.4388,-6.4388,-6.4388,-6.4388,-6.4112,-6.1878,-5.8689,-5.8072,-5.9367,-5.8204,-5.6716,-5.5999,-5.6448,-5.6895,-5.6895,-5.7784,-5.7429,-5.3975,-5.1111,-5.0378,-4.9925,-4.9925,-4.9925,-4.9925,-4.9925,-4.9925,-4.9925,-4.9925,-4.9925,-4.9925,-4.9925,-4.9925,-4.9925,-4.9925,-4.9925,-4.9925,-4.9925,-4.9925,-7.6564,-7.6564,-7.6564,-7.6564,-7.6564,-7.6564,-7.6564,-7.6564,-7.6564,-7.6564,-7.6564,-7.6564,-7.6564,-7.6564,-7.6564,-7.6564,-7.6564,-7.6564,-7.6564,-7.6564,-7.6564,-7.6564,-7.6564,-7.6564,-7.6564,-7.6564,-7.6564,-7.6564,-7.6154,-7.5558,-7.4711,-7.3386,-7.1408,-7.0082,-6.9306,-6.8496,-6.7942,-6.8259,-6.8338,-6.7834,-6.7084,-6.6325,-6.531,-6.4697,-6.4388,-6.4437,-6.4437,-6.4461,-6.4461,-6.4559,-6.4548,-6.467,-6.4792,-6.4963,-6.5573,-6.572,-6.5744,-6.5451,-6.5207,-6.5036,-6.4743,-6.4451,-6.4461,-6.4388,-6.4388,-6.4388,-6.4388,-6.4388,-6.4388,-6.4388,-6.4388,-6.4388,-6.4388,-6.4388,-6.4388,-6.4388,-6.4388,-6.4388,-6.4388,-6.4388,-6.4388,-6.4388,-6.2607,-5.9215,-5.7784,-5.9455,-5.9629,-5.8468,-5.8491,-5.939,-5.9826,-5.9477,-5.9564,-5.9215,-5.4957,-5.1559,-5.0661,-4.9925,-4.9925,-4.9925,-4.9925,-4.9925,-4.9925,-4.9925,-4.9925,-4.9925,-4.9925,-4.9925,-4.9925,-4.9925,-4.9925,-4.9925,-4.9925,-4.9925,-4.9925,-7.6564,-7.6564,-7.6564,-7.6564,-7.6564,-7.6564,-7.6564,-7.6564,-7.6564,-7.6564,-7.6564,-7.6564,-7.6564,-7.6564,-7.6564,-7.6564,-7.6564,-7.6564,-7.6564,-7.6564,-7.6564,-7.6564,-7.6564,-7.6564,-7.6564,-7.6564,-7.6564,-7.6564,-7.6225,-7.5458,-7.461,-7.4,-7.2589,-7.171,-7.1532,-7.1833,-7.1559,-7.1408,-7.1104,-7.0031,-6.8811,-6.7541,-6.6625,-6.545,-6.4921,-6.4388,-6.4388,-6.4388,-6.4388,-6.4388,-6.4412,-6.4412,-6.4388,-6.4388,-6.4388,-6.4388,-6.4388,-6.4388,-6.4388,-6.4412,-6.4412,-6.4412,-6.4388,-6.4388,-6.4388,-6.4388,-6.4388,-6.4388,-6.4388,-6.4388,-6.4388,-6.4388,-6.4388,-6.4388,-6.4388,-6.4388,-6.4388,-6.4388,-6.4388,-6.4388,-6.4388,-6.4304,-6.4029,-6.1083,-5.9913,-6.0606,-6.0778,-6.026,-6.0433,-6.2134,-6.2668,-6.2049,-6.1793,-6.0888,-5.6984,-5.2005,-5.0923,-4.9925,-4.9925,-4.9925,-4.9925,-4.9925,-4.9925,-4.9925,-4.9925,-4.9925,-4.9925,-4.9925,-4.9925,-4.9925,-4.9925,-4.9925,-4.9925,-4.9925,-4.9925,-7.6564,-7.6564,-7.6564,-7.6564,-7.6564,-7.6564,-7.6564,-7.6564,-7.6564,-7.6564,-7.6564,-7.6564,-7.6564,-7.6564,-7.6564,-7.6564,-7.6564,-7.6564,-7.6564,-7.6564,-7.6564,-7.6564,-7.6564,-7.6564,-7.6564,-7.6564,-7.6564,-7.6564,-7.6564,-7.5942,-7.6013,-7.57,-7.4219,-7.3578,-7.3899,-7.4364,-7.4509,-7.368,-7.3284,-7.2188,-7.057,-6.8916,-6.7994,-6.66,-6.5589,-6.4921,-6.4388,-6.4388,-6.4388,-6.4388,-6.4388,-6.4388,-6.4388,-6.4388,-6.4388,-6.4388,-6.4388,-6.4388,-6.4388,-6.4388,-6.4388,-6.4388,-6.4388,-6.4388,-6.4388,-6.4388,-6.4388,-6.4388,-6.4388,-6.4388,-6.4388,-6.4388,-6.4388,-6.4388,-6.4388,-6.4388,-6.4388,-6.4388,-6.4388,-6.4388,-6.4388,-6.4304,-6.4112,-6.4112,-6.2607,-6.2946,-6.2583,-6.2134,-6.2413,-6.4196,-6.3921,-6.3476,-6.2946,-6.2219,-5.838,-5.3149,-5.1259,-4.9925,-4.9925,-4.9925,-4.9925,-4.9925,-4.9925,-4.9925,-4.9925,-4.9925,-4.9925,-4.9925,-4.9925,-4.9925,-4.9925,-4.9925,-4.9925,-4.9925,-4.9925,-7.6564,-7.6564,-7.6564,-7.6564,-7.6564,-7.6564,-7.6564,-7.6564,-7.6564,-7.6564,-7.6564,-7.6564,-7.6564,-7.6564,-7.6564,-7.6564,-7.6564,-7.6564,-7.6564,-7.6564,-7.6564,-7.6564,-7.6564,-7.6564,-7.6564,-7.6564,-7.6564,-7.6564,-7.6564,-7.6564,-7.6564,-7.6424,-7.5871,-7.5386,-7.5558,-7.5871,-7.6084,-7.57,-7.5099,-7.4292,-7.2589,-7.1207,-6.993,-6.794,-6.6544,-6.5589,-6.4697,-6.4388,-6.4388,-6.4388,-6.4388,-6.4388,-6.4388,-6.4388,-6.4388,-6.4388,-6.4388,-6.4388,-6.4388,-6.4388,-6.4388,-6.4388,-6.4388,-6.4388,-6.4388,-6.4388,-6.4388,-6.4388,-6.4388,-6.4388,-6.4388,-6.4388,-6.4388,-6.4388,-6.4388,-6.4388,-6.4388,-6.4388,-6.4388,-6.4388,-6.4388,-6.4388,-6.4304,-6.4388,-6.4388,-6.4388,-6.4388,-6.422,-6.4112,-6.4304,-6.4196,-6.3921,-6.356,-6.1403,-5.7851,-5.3404,-5.1185,-5.0095,-4.9925,-4.9925,-4.9925,-4.9925,-4.9925,-4.9925,-4.9925,-4.9925,-4.9925,-4.9925,-4.9925,-4.9925,-4.9925,-4.9925,-4.9925,-4.9925,-4.9925,-7.6564,-7.6564,-7.6564,-7.6564,-7.6564,-7.6564,-7.6564,-7.6564,-7.6564,-7.6564,-7.6564,-7.6564,-7.6564,-7.6564,-7.6564,-7.6564,-7.6564,-7.6564,-7.6564,-7.6564,-7.6564,-7.6564,-7.6564,-7.6564,-7.6564,-7.6564,-7.6564,-7.6564,-7.6564,-7.6564,-7.6564,-7.6564,-7.6395,-7.6564,-7.6564,-7.6564,-7.6564,-7.6564,-7.6395,-7.5629,-7.3634,-7.244,-7.0646,-6.7515,-6.6544,-6.5532,-6.4447,-6.4388,-6.4388,-6.4388,-6.4388,-6.4388,-6.4388,-6.4388,-6.4388,-6.4388,-6.4388,-6.4388,-6.4388,-6.4388,-6.4388,-6.4388,-6.4388,-6.4388,-6.4388,-6.4388,-6.4388,-6.4388,-6.4388,-6.4388,-6.4388,-6.4388,-6.4388,-6.4388,-6.4388,-6.4388,-6.4388,-6.4388,-6.4388,-6.4388,-6.4388,-6.4388,-6.4388,-6.4388,-6.4388,-6.4388,-6.4388,-6.4388,-6.4196,-6.4196,-6.3392,-6.3368,-6.2049,-5.989,-5.723,-5.2964,-5.0284,-4.9925,-4.9925,-4.9925,-4.9925,-4.9925,-4.9925,-4.9925,-4.9925,-4.9925,-4.9925,-4.9925,-4.9925,-4.9925,-4.9925,-4.9925,-4.9925,-4.9925,-4.9925,-7.6564,-7.6564,-7.6564,-7.6564,-7.6564,-7.6564,-7.6564,-7.6564,-7.6564,-7.6564,-7.6564,-7.6564,-7.6564,-7.6564,-7.6564,-7.6564,-7.6564,-7.6564,-7.6564,-7.6564,-7.6564,-7.6564,-7.6564,-7.6564,-7.6564,-7.6564,-7.6564,-7.6564,-7.6564,-7.6564,-7.6564,-7.6564,-7.6564,-7.6564,-7.6564,-7.6564,-7.6564,-7.6564,-7.6564,-7.5558,-7.3899,-7.2188,-7.0416,-6.8047,-6.6463,-6.531,-6.453,-6.4388,-6.4388,-6.4388,-6.4388,-6.4388,-6.4388,-6.4388,-6.4388,-6.4388,-6.4388,-6.4388,-6.4388,-6.4388,-6.4388,-6.4388,-6.4388,-6.4388,-6.4388,-6.4388,-6.4388,-6.4388,-6.4388,-6.4388,-6.4388,-6.4388,-6.4388,-6.4388,-6.4388,-6.4388,-6.4388,-6.4388,-6.4388,-6.4388,-6.4388,-6.4388,-6.4388,-6.4388,-6.4388,-6.4388,-6.4388,-6.4196,-6.4029,-6.3284,-6.1684,-6.0778,-5.8666,-5.6337,-5.368,-5.0923,-5.002,-4.9925,-4.9925,-4.9925,-4.9925,-4.9925,-4.9925,-4.9925,-4.9925,-4.9925,-4.9925,-4.9925,-4.9925,-4.9925,-4.9925,-4.9925,-4.9925,-4.9925,-4.9925,-7.6564,-7.6564,-7.6564,-7.6564,-7.6564,-7.6564,-7.6564,-7.6564,-7.6564,-7.6564,-7.6564,-7.6564,-7.6564,-7.6564,-7.6564,-7.6564,-7.6564,-7.6564,-7.6564,-7.6564,-7.6564,-7.6564,-7.6564,-7.6564,-7.6564,-7.6564,-7.6564,-7.6564,-7.6564,-7.6564,-7.6564,-7.6564,-7.6564,-7.6564,-7.6564,-7.6564,-7.6564,-7.6564,-7.6564,-7.6084,-7.5458,-7.3505,-7.1435,-6.9228,-6.7355,-6.5917,-6.4672,-6.4388,-6.4388,-6.4388,-6.4388,-6.4388,-6.4388,-6.4388,-6.4388,-6.4388,-6.4388,-6.4388,-6.4388,-6.4388,-6.4388,-6.4388,-6.4388,-6.4388,-6.4388,-6.4388,-6.4388,-6.4388,-6.4388,-6.4388,-6.4388,-6.4388,-6.4388,-6.4388,-6.4388,-6.4388,-6.4388,-6.4388,-6.4388,-6.4388,-6.4388,-6.4388,-6.4388,-6.4388,-6.4388,-6.4388,-6.4388,-6.4304,-6.3837,-6.2583,-6.0865,-5.882,-5.6605,-5.3496,-5.0378,-5.0114,-4.9925,-4.9925,-4.9925,-4.9925,-4.9925,-4.9925,-4.9925,-4.9925,-4.9925,-4.9925,-4.9925,-4.9925,-4.9925,-4.9925,-4.9925,-4.9925,-4.9925,-4.9925,-4.9925,-7.6564,-7.6564,-7.6564,-7.6564,-7.6564,-7.6564,-7.6564,-7.6564,-7.6564,-7.6564,-7.6564,-7.6564,-7.6564,-7.6564,-7.6564,-7.6564,-7.6564,-7.6564,-7.6564,-7.6564,-7.6564,-7.6564,-7.6564,-7.6564,-7.6564,-7.6564,-7.6564,-7.6564,-7.6564,-7.6564,-7.6564,-7.6564,-7.6564,-7.6564,-7.6564,-7.6564,-7.6564,-7.6564,-7.6564,-7.6013,-7.5558,-7.3927,-7.2113,-6.9618,-6.7755,-6.6437,-6.4755,-6.4471,-6.4388,-6.4388,-6.4388,-6.4388,-6.4388,-6.4388,-6.4388,-6.4388,-6.4388,-6.4388,-6.4388,-6.4388,-6.4388,-6.4388,-6.4388,-6.4388,-6.4388,-6.4388,-6.4388,-6.4388,-6.4388,-6.4388,-6.4388,-6.4388,-6.4388,-6.4388,-6.4388,-6.4388,-6.4388,-6.4388,-6.4388,-6.4388,-6.4388,-6.4388,-6.4388,-6.4388,-6.4388,-6.4388,-6.4388,-6.422,-6.3476,-6.2498,-6.0865,-5.8972,-5.7141,-5.4299,-5.3588,-5.1799,-4.9925,-4.9925,-4.9925,-4.9925,-4.9925,-4.9925,-4.9925,-4.9925,-4.9925,-4.9925,-4.9925,-4.9925,-4.9925,-4.9925,-4.9925,-4.9925,-4.9925,-4.9925,-4.9925,-7.6564,-7.6564,-7.6564,-7.6564,-7.6564,-7.6564,-7.6564,-7.6564,-7.6564,-7.6564,-7.6564,-7.6564,-7.6564,-7.6564,-7.6564,-7.6564,-7.6564,-7.6564,-7.6564,-7.6564,-7.6564,-7.6564,-7.6564,-7.6564,-7.6564,-7.6564,-7.6564,-7.6564,-7.6564,-7.6564,-7.6564,-7.6564,-7.6564,-7.6564,-7.6564,-7.6564,-7.6564,-7.6564,-7.6564,-7.57,-7.4711,-7.3459,-7.1991,-6.9073,-6.7834,-6.6681,-6.4755,-6.4838,-6.4863,-6.4388,-6.4388,-6.4388,-6.4388,-6.4388,-6.4388,-6.4388,-6.4388,-6.4388,-6.4388,-6.4388,-6.4388,-6.4388,-6.4388,-6.4388,-6.4388,-6.4388,-6.4388,-6.4388,-6.4388,-6.4388,-6.4388,-6.4388,-6.4388,-6.4388,-6.4388,-6.4388,-6.4388,-6.4388,-6.4388,-6.4388,-6.4388,-6.4388,-6.4388,-6.4388,-6.4388,-6.4388,-6.4388,-6.4388,-6.3585,-6.2389,-6.0865,-5.9257,-5.7496,-5.734,-5.6806,-5.3954,-5.0904,-4.9925,-4.9925,-4.9925,-4.9925,-4.9925,-4.9925,-4.9925,-4.9925,-4.9925,-4.9925,-4.9925,-4.9925,-4.9925,-4.9925,-4.9925,-4.9925,-4.9925,-4.9925,-7.6564,-7.6564,-7.6564,-7.6564,-7.6564,-7.6564,-7.6564,-7.6564,-7.6564,-7.6564,-7.6564,-7.6564,-7.6564,-7.6564,-7.6564,-7.6564,-7.6564,-7.6564,-7.6564,-7.6564,-7.6564,-7.6564,-7.6564,-7.6564,-7.6564,-7.6564,-7.6564,-7.6564,-7.6564,-7.6564,-7.6564,-7.6564,-7.6564,-7.6564,-7.6564,-7.6564,-7.6564,-7.6564,-7.6564,-7.6254,-7.5486,-7.432,-7.2942,-7.1689,-7.0443,-6.8733,-6.7084,-6.6544,-6.5532,-6.478,-6.4388,-6.4388,-6.4388,-6.4388,-6.4388,-6.4388,-6.4388,-6.4388,-6.4388,-6.4388,-6.4388,-6.4388,-6.4388,-6.4388,-6.4388,-6.4388,-6.4388,-6.4388,-6.4388,-6.4388,-6.4388,-6.4388,-6.4388,-6.4388,-6.4388,-6.4388,-6.4388,-6.4388,-6.4388,-6.4388,-6.4388,-6.4388,-6.4388,-6.4388,-6.4388,-6.4388,-6.4388,-6.4388,-6.3392,-6.2219,-6.0692,-5.9105,-5.893,-6.0629,-5.7961,-5.3954,-5.1539,-4.9925,-4.9925,-4.9925,-4.9925,-4.9925,-4.9925,-4.9925,-4.9925,-4.9925,-4.9925,-4.9925,-4.9925,-4.9925,-4.9925,-4.9925,-4.9925,-4.9925,-4.9925,-7.6564,-7.6564,-7.6564,-7.6564,-7.6564,-7.6564,-7.6564,-7.6564,-7.6564,-7.6564,-7.6564,-7.6564,-7.6564,-7.6564,-7.6564,-7.6564,-7.6564,-7.6564,-7.6564,-7.6564,-7.6564,-7.6564,-7.6564,-7.6564,-7.6564,-7.6564,-7.6564,-7.6564,-7.6564,-7.6564,-7.6564,-7.6564,-7.6564,-7.6564,-7.6564,-7.6564,-7.6564,-7.6564,-7.6564,-7.6564,-7.6084,-7.461,-7.2988,-7.2038,-7.0925,-6.8706,-6.6978,-6.6681,-6.6381,-6.478,-6.4388,-6.4388,-6.4388,-6.4388,-6.4388,-6.4388,-6.4388,-6.4388,-6.4388,-6.4388,-6.4388,-6.4388,-6.4388,-6.4388,-6.4388,-6.4388,-6.4388,-6.4388,-6.4388,-6.4388,-6.4388,-6.4388,-6.4388,-6.4388,-6.4388,-6.4388,-6.4388,-6.4388,-6.4388,-6.4388,-6.4388,-6.4388,-6.4388,-6.4388,-6.4388,-6.4388,-6.4388,-6.4388,-6.3585,-6.2668,-6.1341,-5.9739,-6.1427,-6.2946,-5.8491,-5.3771,-5.1278,-4.9925,-4.9925,-4.9925,-4.9925,-4.9925,-4.9925,-4.9925,-4.9925,-4.9925,-4.9925,-4.9925,-4.9925,-4.9925,-4.9925,-4.9925,-4.9925,-4.9925,-4.9925,-7.6564,-7.6564,-7.6564,-7.6564,-7.6564,-7.6564,-7.6564,-7.6564,-7.6564,-7.6564,-7.6564,-7.6564,-7.6564,-7.6564,-7.6564,-7.6564,-7.6564,-7.6564,-7.6564,-7.6564,-7.6564,-7.6564,-7.6564,-7.6564,-7.6564,-7.6564,-7.6564,-7.6564,-7.6564,-7.6564,-7.6564,-7.6564,-7.6564,-7.6564,-7.6564,-7.6564,-7.6564,-7.6564,-7.6564,-7.6564,-7.6324,-7.4899,-7.3035,-7.1635,-7.0696,-6.9255,-6.63,-6.6625,-6.6381,-6.4697,-6.4388,-6.4388,-6.4388,-6.4388,-6.4388,-6.4388,-6.4388,-6.4388,-6.4388,-6.4388,-6.4388,-6.4388,-6.4388,-6.4388,-6.4388,-6.4388,-6.4388,-6.4388,-6.4388,-6.4388,-6.4388,-6.4388,-6.4388,-6.4388,-6.4388,-6.4388,-6.4388,-6.4388,-6.4388,-6.4388,-6.4388,-6.4388,-6.4388,-6.4388,-6.4388,-6.4388,-6.4388,-6.4388,-6.4112,-6.3945,-6.2946,-6.2498,-6.3669,-6.2692,-5.904,-5.3954,-5.1352,-5.002,-4.9925,-4.9925,-4.9925,-4.9925,-4.9925,-4.9925,-4.9925,-4.9925,-4.9925,-4.9925,-4.9925,-4.9925,-4.9925,-4.9925,-4.9925,-4.9925,-4.9925,-7.6564,-7.6564,-7.6564,-7.6564,-7.6564,-7.6564,-7.6564,-7.6564,-7.6564,-7.6564,-7.6564,-7.6564,-7.6564,-7.6564,-7.6564,-7.6564,-7.6564,-7.6564,-7.6564,-7.6564,-7.6564,-7.6564,-7.6564,-7.6564,-7.6564,-7.6564,-7.6564,-7.6564,-7.6564,-7.6564,-7.6564,-7.6564,-7.6564,-7.6564,-7.6564,-7.6564,-7.6564,-7.6564,-7.6564,-7.6564,-7.6535,-7.6055,-7.4971,-7.3062,-7.2812,-7.075,-6.7084,-6.722,-6.6325,-6.5004,-6.4388,-6.4388,-6.4388,-6.4388,-6.4388,-6.4388,-6.4388,-6.4388,-6.4388,-6.4388,-6.4388,-6.4388,-6.4388,-6.4388,-6.4388,-6.4388,-6.4388,-6.4388,-6.4388,-6.4388,-6.4388,-6.4388,-6.4388,-6.4388,-6.4388,-6.4388,-6.4388,-6.4388,-6.4388,-6.407,-6.4388,-6.4388,-6.4388,-6.4388,-6.4388,-6.4388,-6.4388,-6.4388,-6.4388,-6.4388,-6.4388,-6.4388,-6.3945,-6.2607,-5.805,-5.2522,-5.2522,-5.0829,-4.9925,-4.9925,-4.9925,-4.9925,-4.9925,-4.9925,-4.9925,-4.9925,-4.9925,-4.9925,-4.9925,-4.9925,-4.9925,-4.9925,-4.9925,-4.9925,-4.9925,-7.6564,-7.6564,-7.6564,-7.6564,-7.6564,-7.6564,-7.6564,-7.6564,-7.6564,-7.6564,-7.6564,-7.6564,-7.6564,-7.6564,-7.6564,-7.6564,-7.6564,-7.6564,-7.6564,-7.6564,-7.6564,-7.6564,-7.6564,-7.6564,-7.6564,-7.6535,-7.6535,-7.6564,-7.6564,-7.6506,-7.6564,-7.6535,-7.6564,-7.6564,-7.6564,-7.6448,-7.6564,-7.6564,-7.6564,-7.6564,-7.6564,-7.6564,-7.5386,-7.368,-7.2338,-7.0493,-6.7994,-6.7486,-6.6463,-6.4838,-6.4388,-6.4388,-6.4388,-6.4388,-6.4388,-6.4388,-6.4388,-6.4388,-6.4388,-6.4388,-6.4388,-6.4388,-6.4388,-6.4388,-6.4388,-6.4363,-6.4388,-6.4388,-6.4388,-6.4388,-6.4388,-6.4388,-6.4388,-6.4388,-6.4388,-6.4388,-6.4388,-6.4388,-6.3548,-6.2669,-6.3426,-6.4094,-6.4217,-6.4388,-6.4388,-6.4388,-6.4388,-6.4388,-6.4388,-6.4388,-6.4388,-6.4388,-6.422,-6.0825,-5.439,-5.3425,-5.439,-5.1539,-4.9925,-4.9925,-4.9925,-4.9925,-4.9925,-4.9925,-4.9925,-4.9925,-4.9925,-4.9925,-4.9925,-4.9925,-4.9925,-4.9925,-4.9925,-4.9925,-4.9925,-7.6564,-7.6564,-7.6564,-7.6564,-7.6564,-7.6564,-7.6564,-7.6564,-7.6564,-7.6564,-7.6564,-7.6564,-7.6564,-7.6564,-7.6564,-7.6564,-7.6564,-7.6564,-7.6564,-7.6564,-7.6564,-7.6564,-7.6564,-7.6535,-7.6158,-7.607,-7.5762,-7.5646,-7.5733,-7.5995,-7.546,-7.5751,-7.5693,-7.5664,-7.5606,-7.5937,-7.5547,-7.5373,-7.5878,-7.6082,-7.6198,-7.6233,-7.5629,-7.3606,-7.2263,-7.0108,-6.8153,-6.7326,-6.6463,-6.4613,-6.4388,-6.4388,-6.4388,-6.4388,-6.4388,-6.4388,-6.4388,-6.4388,-6.4388,-6.4388,-6.4388,-6.4388,-6.4388,-6.4388,-6.4143,-6.4109,-6.3997,-6.3997,-6.3899,-6.4388,-6.428,-6.367,-6.3826,-6.367,-6.3523,-6.3523,-6.3548,-6.3459,-6.2897,-6.1815,-6.2718,-6.3621,-6.4119,-6.4388,-6.4388,-6.4388,-6.3938,-6.3645,-6.4143,-6.4388,-6.4314,-6.429,-6.4172,-5.8226,-5.2707,-5.5027,-5.4482,-5.1091,-4.9925,-4.9925,-4.9925,-4.9925,-4.9925,-4.9925,-4.9925,-4.9925,-4.9925,-4.9925,-4.9925,-4.9925,-4.9925,-4.9925,-4.9925,-4.9925,-4.9925,-7.6564,-7.6564,-7.6564,-7.6564,-7.6564,-7.6564,-7.6564,-7.6564,-7.6564,-7.6564,-7.6564,-7.6564,-7.6564,-7.6564,-7.6564,-7.6564,-7.6564,-7.6564,-7.639,-7.6303,-7.6216,-7.61,-7.6158,-7.5954,-7.5315,-7.3435,-7.3581,-7.3581,-7.3581,-7.3348,-7.3814,-7.3465,-7.3406,-7.3755,-7.3426,-7.3348,-7.3639,-7.3843,-7.4512,-7.4919,-7.5006,-7.578,-7.5255,-7.3663,-7.2553,-7.0806,-6.8549,-6.7332,-6.6519,-6.453,-6.4388,-6.4388,-6.4388,-6.4388,-6.4388,-6.4388,-6.4168,-6.4046,-6.3972,-6.4143,-6.4168,-6.4388,-6.4314,-6.3816,-6.3255,-6.3279,-6.2864,-6.2596,-6.2718,-6.3826,-6.4217,-6.2995,-6.1864,-6.1668,-6.1595,-6.1498,-6.1522,-6.1498,-6.1473,-6.0912,-6.1229,-6.2083,-6.297,-6.3728,-6.4119,-6.4265,-6.3377,-6.306,-6.3865,-6.4339,-6.4119,-6.4046,-6.3019,-5.8468,-5.6358,-5.734,-5.3149,-5.0547,-4.9925,-4.9925,-4.9925,-4.9925,-4.9925,-4.9925,-4.9925,-4.9925,-4.9925,-4.9925,-4.9925,-4.9925,-4.9925,-4.9925,-4.9925,-4.9925,-4.9925,-7.5559,-7.5617,-7.6315,-7.6564,-7.6564,-7.6564,-7.6564,-7.6564,-7.6564,-7.6564,-7.6564,-7.6564,-7.6564,-7.6564,-7.6564,-7.6535,-7.6564,-7.6564,-7.6257,-7.5529,-7.4831,-7.4599,-7.4541,-7.4337,-7.4075,-7.3028,-7.265,-7.2708,-7.2708,-7.2767,-7.2563,-7.2708,-7.2767,-7.2534,-7.2708,-7.2767,-7.2621,-7.2796,-7.3319,-7.361,-7.3639,-7.425,-7.3796,-7.3212,-7.1958,-7.1214,-6.9271,-6.7687,-6.6338,-6.5547,-6.3868,-6.2523,-6.2645,-6.3703,-6.4314,-6.4119,-6.3377,-6.2571,-6.2571,-6.2547,-6.2596,-6.2579,-6.2547,-6.223,-6.2035,-6.1058,-6.0399,-5.9911,-6.0351,-6.1498,-6.2408,-6.1351,-6.1156,-6.101,-6.1034,-6.101,-6.0936,-6.0522,-6.0058,-5.9497,-5.9497,-6.018,-6.0912,-6.1668,-6.2262,-6.2718,-6.201,-6.1913,-6.2767,-6.2824,-6.284,-6.3071,-6.1962,-6.099,-5.9496,-5.6901,-5.3079,-5.1721,-5.0771,-4.9925,-5.0284,-5.019,-5.002,-4.9925,-4.9925,-4.9925,-4.9925,-4.9925,-4.9925,-4.9925,-4.9925,-4.9925,-4.9925,-4.9925,-4.9925,-7.453,-7.4279,-7.5355,-7.5791,-7.5722,-7.5722,-7.5664,-7.5635,-7.5664,-7.5489,-7.5733,-7.5664,-7.5606,-7.5675,-7.5489,-7.5762,-7.5559,-7.55,-7.5268,-7.4133,-7.3086,-7.2592,-7.1923,-7.1923,-7.1865,-7.1778,-7.1865,-7.1865,-7.1807,-7.1632,-7.1894,-7.1778,-7.1545,-7.1865,-7.1749,-7.1574,-7.1923,-7.1981,-7.2185,-7.233,-7.2388,-7.2679,-7.2874,-7.2673,-7.1406,-7.0735,-6.9967,-6.712,-6.5843,-6.5421,-6.2921,-6.0351,-6.0766,-6.2279,-6.3279,-6.3035,-6.1888,-6.1107,-6.1058,-6.1205,-6.1058,-6.1309,-6.1302,-6.0912,-6.0668,-5.9155,-5.8203,-5.791,-5.7935,-5.8984,-6.0107,-6.0326,-6.0131,-6.0058,-6.0107,-6.018,-6.018,-5.9619,-5.8886,-5.8276,-5.8057,-5.7959,-5.813,-5.9741,-6.0473,-6.0961,-6.0961,-6.0839,-6.079,-6.0717,-6.1327,-6.2254,-6.1748,-6.1878,-6.0617,-5.9006,-5.5875,-5.4212,-5.1608,-5.002,-5.0755,-5.0942,-5.019,-4.9925,-4.9925,-4.9925,-4.9925,-4.9925,-4.9925,-4.9925,-4.9925,-4.9925,-4.9925,-4.9925,-4.9925,-7.4205,-7.2912,-7.3086,-7.3116,-7.3366,-7.3145,-7.3541,-7.327,-7.3377,-7.3281,-7.3377,-7.3203,-7.3494,-7.3116,-7.3543,-7.3261,-7.3261,-7.3523,-7.3203,-7.2941,-7.2563,-7.1516,-7.0004,-6.9858,-6.9829,-6.9771,-6.948,-6.9596,-6.9829,-6.9655,-6.9509,-6.9771,-6.9655,-6.948,-6.9829,-6.9655,-6.9422,-6.9858,-7.0643,-7.1051,-7.1196,-7.1836,-7.2185,-7.2148,-7.1616,-7.0443,-6.7859,-6.5586,-6.4123,-6.4456,-6.045,-5.8697,-5.8618,-6.0229,-6.1254,-6.118,-6.0985,-6.0741,-6.0888,-6.0692,-6.0839,-6.0741,-6.079,-6.0668,-5.9667,-5.8667,-5.7886,-5.7886,-5.7886,-5.8106,-5.852,-5.8374,-5.8496,-5.8594,-5.8423,-5.8276,-5.8228,-5.8154,-5.8032,-5.791,-5.7886,-5.7886,-5.7935,-5.8252,-5.8935,-5.9936,-5.9936,-5.9936,-5.996,-5.957,-5.9936,-6.0936,-6.1736,-6.2308,-6.1465,-6.0775,-5.8254,-5.5726,-5.2495,-5.0094,-5.0826,-5.0713,-5.0227,-4.9925,-4.9925,-4.9925,-4.9925,-4.9925,-4.9925,-4.9925,-4.9925,-4.9925,-4.9925,-4.9925,-4.9925,-7.4864,-7.4313,-7.5068,-7.5401,-7.5275,-7.4418,-7.4092,-7.3898,-7.3143,-7.2708,-7.2708,-7.2708,-7.2708,-7.2708,-7.2679,-7.2679,-7.2708,-7.2708,-7.233,-7.1807,-7.1661,-7.0673,-6.9422,-6.8986,-6.8986,-6.8986,-6.9044,-6.8986,-6.8986,-6.8986,-6.8986,-6.8986,-6.8986,-6.8986,-6.8986,-6.8986,-6.9015,-6.9102,-6.948,-6.98,-6.9829,-7.0353,-7.0585,-7.0556,-7.0427,-6.9398,-6.6604,-6.4258,-6.2138,-6.0553,-5.9028,-5.7886,-5.8008,-5.8813,-5.9204,-5.9204,-5.9228,-5.9253,-5.9204,-5.9228,-5.9228,-5.9228,-5.9228,-5.8984,-5.8618,-5.8252,-5.7886,-5.7886,-5.7886,-5.7886,-5.7886,-5.7886,-5.7886,-5.7886,-5.7886,-5.791,-5.791,-5.7886,-5.7886,-5.7886,-5.7886,-5.7886,-5.791,-5.791,-5.8398,-5.8886,-5.8911,-5.9082,-5.9204,-5.8569,-5.8496,-5.9692,-6.0577,-6.037,-5.9769,-6.0255,-5.8797,-5.6333,-5.3333,-4.9978,-5.0127,-5.0089,-4.9905,-5.002,-4.9925,-4.9925,-4.9925,-4.9925,-4.9925,-4.9925,-4.9925,-4.9925,-4.9925,-4.9925,-4.9925,-7.5266,-7.496,-7.5926,-7.6329,-7.6153,-7.5168,-7.4589,-7.4435,-7.3345,-7.291,-7.2931,-7.2926,-7.2685,-7.2284,-7.229,-7.2083,-7.164,-7.1632,-7.1196,-7.0498,-7.044,-6.9829,-6.916,-6.8986,-6.8986,-6.8986,-6.8986,-6.8986,-6.8986,-6.8986,-6.8986,-6.8986,-6.8986,-6.8986,-6.8986,-6.8986,-6.8986,-6.8986,-6.9044,-6.9044,-6.9073,-6.9102,-6.8986,-6.8986,-6.9102,-6.8094,-6.615,-6.3793,-6.1162,-5.8235,-5.7886,-5.7886,-5.7886,-5.7984,-5.8106,-5.8081,-5.8008,-5.7959,-5.7959,-5.8008,-5.7959,-5.7886,-5.813,-5.791,-5.7886,-5.791,-5.791,-5.7886,-5.7886,-5.7886,-5.7886,-5.7886,-5.7886,-5.7886,-5.7886,-5.7886,-5.7886,-5.7886,-5.7886,-5.7886,-5.7886,-5.7886,-5.7886,-5.7886,-5.7959,-5.8032,-5.8032,-5.8106,-5.8276,-5.7935,-5.7984,-5.896,-5.9175,-5.874,-5.8333,-5.9279,-5.8701,-5.5943,-5.3555,-5.0232,-5.0014,-5.0091,-5.0199,-4.9982,-4.9868,-4.9925,-4.9925,-4.9925,-4.9925,-4.9925,-4.9925,-4.9925,-4.9925,-4.9925,-4.9925,-7.4883,-7.3669,-7.3737,-7.4093,-7.4093,-7.3898,-7.3878,-7.3692,-7.3438,-7.339,-7.3386,-7.3367,-7.2663,-7.1505,-7.1414,-7.0735,-6.9466,-6.9509,-6.9451,-6.9335,-6.9277,-6.9218,-6.9044,-6.8986,-6.8986,-6.8986,-6.8986,-6.8986,-6.8986,-6.8986,-6.8986,-6.8986,-6.8986,-6.8986,-6.8986,-6.8986,-6.8986,-6.8986,-6.8986,-6.8986,-6.8986,-6.8986,-6.8952,-6.8825,-6.8732,-6.7786,-6.5745,-6.4027,-6.1528,-5.856,-5.7961,-5.7886,-5.7886,-5.7886,-5.7886,-5.7886,-5.7886,-5.7886,-5.7886,-5.7886,-5.7886,-5.7886,-5.7886,-5.7886,-5.7886,-5.7886,-5.7886,-5.7886,-5.7886,-5.7886,-5.7886,-5.7886,-5.7886,-5.7886,-5.7886,-5.7886,-5.7886,-5.7886,-5.7886,-5.7886,-5.7886,-5.7886,-5.7886,-5.7886,-5.7886,-5.7886,-5.7886,-5.7886,-5.7886,-5.791,-5.7935,-5.8006,-5.8198,-5.6969,-5.4107,-5.5007,-5.5264,-5.3504,-5.2973,-5.1098,-5.0635,-5.0833,-5.0977,-5.0218,-4.9811,-4.9887,-4.9925,-4.9925,-4.9925,-4.9925,-4.9925,-4.9925,-4.9925,-4.9925,-4.9925,-7.6761,-7.63,-7.63,-7.63,-7.6197,-7.5186,-7.4832,-7.467,-7.3879,-7.352,-7.3488,-7.352,-7.2637,-7.1412,-7.1144,-7.036,-6.9112,-6.8986,-6.8986,-6.8986,-6.8986,-6.8986,-6.8986,-6.8986,-6.8986,-6.8986,-6.8986,-6.8986,-6.8986,-6.8986,-6.8986,-6.8986,-6.8986,-6.8986,-6.8986,-6.8986,-6.8986,-6.8986,-6.8986,-6.8986,-6.8986,-6.8986,-6.8449,-6.737,-6.7146,-6.564,-6.2967,-6.3175,-6.2223,-6.0008,-5.8511,-5.7961,-5.7886,-5.7886,-5.7886,-5.7886,-5.7886,-5.7886,-5.7886,-5.7886,-5.7886,-5.7886,-5.7886,-5.7886,-5.7886,-5.7886,-5.7886,-5.7886,-5.7886,-5.7886,-5.7886,-5.7886,-5.7886,-5.7886,-5.7886,-5.7886,-5.7886,-5.7886,-5.7886,-5.7886,-5.7886,-5.7886,-5.7886,-5.7886,-5.7886,-5.7886,-5.7886,-5.7886,-5.7886,-5.7886,-5.683,-5.6349,-5.6525,-5.4582,-5.1253,-5.0811,-5.1467,-5.1528,-5.1502,-5.0329,-4.9729,-4.992,-5.0204,-4.9457,-4.9621,-4.9659,-4.9755,-4.9793,-4.9925,-4.9925,-4.9925,-4.9925,-4.9925,-4.9925,-4.9793,-7.6657,-7.6609,-7.6624,-7.6576,-7.6446,-7.5463,-7.5028,-7.4876,-7.4528,-7.4177,-7.4218,-7.41,-7.332,-7.2086,-7.1322,-7.036,-6.9078,-6.8986,-6.8986,-6.8986,-6.8986,-6.8986,-6.8986,-6.8986,-6.8986,-6.8986,-6.8986,-6.8986,-6.8986,-6.8986,-6.8986,-6.8986,-6.8986,-6.8986,-6.8986,-6.8986,-6.8986,-6.8986,-6.8986,-6.8986,-6.8986,-6.8986,-6.8356,-6.7146,-6.7016,-6.5249,-6.1773,-6.2126,-6.1844,-6.0681,-5.8907,-5.7886,-5.7886,-5.7886,-5.7886,-5.7886,-5.7886,-5.7886,-5.7886,-5.7886,-5.7886,-5.7886,-5.7886,-5.7886,-5.7886,-5.7886,-5.7886,-5.7886,-5.7886,-5.7886,-5.7886,-5.7886,-5.7886,-5.7886,-5.7886,-5.7886,-5.7886,-5.7886,-5.7886,-5.7886,-5.7886,-5.7886,-5.7886,-5.7886,-5.7886,-5.7886,-5.7886,-5.7886,-5.7886,-5.7886,-5.7058,-5.5024,-5.4403,-5.3543,-5.0469,-4.8985,-4.8818,-4.8321,-4.8025,-4.7151,-4.7393,-4.761,-4.8154,-4.833,-4.8976,-4.9336,-4.9564,-4.9735,-4.9849,-4.9925,-4.9793,-4.9811,-4.9887,-4.9793,-4.9678,-7.3847,-7.3945,-7.3748,-7.4011,-7.4063,-7.389,-7.3786,-7.4021,-7.5022,-7.5321,-7.5207,-7.5539,-7.4557,-7.3283,-7.1966,-7.0302,-6.8917,-6.8579,-6.8579,-6.8608,-6.8695,-6.8695,-6.8666,-6.8724,-6.8782,-6.8811,-6.8957,-6.8986,-6.8986,-6.8986,-6.8986,-6.8986,-6.8986,-6.8986,-6.8986,-6.8986,-6.8986,-6.8986,-6.8986,-6.8986,-6.8986,-6.8986,-6.8825,-6.8669,-6.8356,-6.6623,-6.3218,-6.156,-6.0728,-6.0345,-5.8858,-5.7961,-5.7886,-5.7886,-5.7886,-5.7886,-5.7886,-5.7886,-5.7886,-5.7886,-5.7886,-5.7886,-5.7886,-5.7886,-5.7886,-5.7886,-5.7886,-5.7886,-5.7886,-5.7886,-5.7886,-5.7886,-5.7886,-5.7886,-5.7886,-5.7886,-5.7886,-5.7886,-5.7886,-5.7886,-5.7886,-5.7886,-5.7886,-5.7886,-5.7886,-5.7886,-5.7886,-5.7886,-5.7886,-5.7886,-5.6906,-5.5024,-5.352,-5.2357,-4.97,-4.7038,-4.6109,-4.5359,-4.5341,-4.5302,-4.5938,-4.6185,-4.6774,-4.7476,-4.8121,-4.8577,-4.8786,-4.8995,-4.9205,-4.93,-4.9565,-4.9508,-4.9338,-4.9129,-4.9165,-7.3669,-7.3669,-7.3669,-7.3669,-7.3669,-7.3669,-7.3669,-7.3748,-7.4175,-7.4373,-7.4556,-7.5353,-7.4899,-7.3512,-7.2972,-7.0565,-6.6667,-6.6397,-6.6368,-6.6368,-6.6368,-6.6368,-6.6514,-6.727,-6.7648,-6.7764,-6.8549,-6.8986,-6.8986,-6.8986,-6.8986,-6.8986,-6.8986,-6.8986,-6.8986,-6.8986,-6.8986,-6.8986,-6.8986,-6.9015,-6.8986,-6.8986,-6.8356,-6.7081,-6.5839,-6.4029,-6.1657,-6.1015,-6.0153,-5.8907,-5.8237,-5.7886,-5.7886,-5.7886,-5.7886,-5.7886,-5.7886,-5.7886,-5.7886,-5.7886,-5.7886,-5.7886,-5.7886,-5.7886,-5.7886,-5.7886,-5.7886,-5.7886,-5.7886,-5.7886,-5.7886,-5.7886,-5.7886,-5.7886,-5.7886,-5.7886,-5.7886,-5.7886,-5.7886,-5.7886,-5.7886,-5.7886,-5.7886,-5.7886,-5.7886,-5.7886,-5.7886,-5.7886,-5.7886,-5.7811,-5.7158,-5.4924,-5.263,-5.1077,-4.9231,-4.6787,-4.5263,-4.5112,-4.5056,-4.5037,-4.5331,-4.5407,-4.5787,-4.6527,-4.7115,-4.759,-4.7932,-4.8121,-4.8197,-4.8106,-4.8409,-4.8713,-4.8466,-4.8315,-4.8254,-7.2026,-7.2059,-7.2059,-7.2059,-7.2059,-7.2071,-7.2071,-7.2091,-7.2663,-7.2893,-7.311,-7.3787,-7.3379,-7.1993,-7.2003,-6.9792,-6.6149,-6.5326,-6.5118,-6.5118,-6.5118,-6.5118,-6.5176,-6.5903,-6.6371,-6.6574,-6.7739,-6.852,-6.8928,-6.8986,-6.8986,-6.8986,-6.8986,-6.8986,-6.8986,-6.8986,-6.8986,-6.8986,-6.8986,-6.8669,-6.8036,-6.7943,-6.7786,-6.7081,-6.5289,-6.3796,-6.2661,-6.1301,-6.0153,-5.8981,-5.8237,-5.7886,-5.7886,-5.7886,-5.7886,-5.7886,-5.7886,-5.7886,-5.7886,-5.7886,-5.7886,-5.7886,-5.7886,-5.7886,-5.7886,-5.7886,-5.7886,-5.7886,-5.7886,-5.7886,-5.7886,-5.7886,-5.7886,-5.7886,-5.7886,-5.7886,-5.7886,-5.7886,-5.7886,-5.7886,-5.7886,-5.7886,-5.7886,-5.7886,-5.7886,-5.7886,-5.7886,-5.7485,-5.7058,-5.6754,-5.5457,-5.3026,-5.1755,-5.0894,-4.9312,-4.6619,-4.4989,-4.4904,-4.4904,-4.4923,-4.4923,-4.5018,-4.5056,-4.5881,-4.5946,-4.6382,-4.702,-4.721,-4.7438,-4.7476,-4.7704,-4.7856,-4.7457,-4.7818,-4.7609,-6.9233,-6.9299,-6.9233,-6.9397,-6.9266,-6.9364,-6.9299,-6.9594,-7.0789,-7.1426,-7.141,-7.1509,-7.0562,-6.9085,-6.8992,-6.8287,-6.6776,-6.5149,-6.445,-6.4303,-6.4449,-6.4681,-6.4798,-6.4856,-6.4769,-6.4623,-6.5787,-6.7066,-6.8259,-6.852,-6.8811,-6.8724,-6.8608,-6.8753,-6.8608,-6.8579,-6.8753,-6.8579,-6.8695,-6.8085,-6.6491,-6.5995,-6.6534,-6.7542,-6.6416,-6.4913,-6.4879,-6.2126,-6.026,-6.026,-5.8511,-5.7666,-5.7691,-5.7617,-5.7666,-5.7837,-5.7764,-5.7666,-5.7642,-5.7569,-5.7593,-5.7642,-5.7495,-5.7666,-5.7447,-5.7447,-5.7447,-5.7666,-5.7715,-5.7886,-5.7886,-5.7691,-5.7593,-5.7544,-5.7617,-5.7593,-5.7642,-5.752,-5.7788,-5.7739,-5.7813,-5.7886,-5.7886,-5.7886,-5.7886,-5.7886,-5.7886,-5.7409,-5.5918,-5.5179,-5.3576,-5.1173,-5.0448,-5.0631,-4.8347,-4.618,-4.5055,-4.4904,-4.4904,-4.4904,-4.4904,-4.4904,-4.4904,-4.5018,-4.5207,-4.5511,-4.6014,-4.6318,-4.6527,-4.6717,-4.6907,-4.6982,-4.6717,-4.7153,-4.6963,-6.9233,-6.9233,-6.9233,-6.9233,-6.9233,-6.9233,-6.9233,-6.9299,-6.9627,-6.9868,-6.9956,-7.1018,-6.9005,-6.5166,-6.4741,-6.3554,-6.1638,-6.1129,-6.0391,-5.9672,-5.9592,-5.9675,-5.9763,-6.0406,-6.0871,-6.1104,-6.2239,-6.3024,-6.3402,-6.4274,-6.5263,-6.6077,-6.6165,-6.6165,-6.6165,-6.6194,-6.6165,-6.6281,-6.7186,-6.7346,-6.6405,-6.3657,-6.2022,-6.1813,-5.954,-5.8651,-5.9438,-5.7502,-5.6306,-5.6234,-5.5782,-5.5543,-5.5519,-5.5031,-5.5786,-5.7495,-5.6422,-5.5543,-5.5543,-5.5543,-5.5543,-5.5543,-5.5543,-5.5519,-5.5543,-5.5543,-5.5543,-5.5641,-5.7007,-5.7764,-5.7788,-5.6983,-5.6153,-5.5616,-5.5543,-5.5519,-5.5641,-5.63,-5.6616,-5.6714,-5.6953,-5.7886,-5.7886,-5.7886,-5.7687,-5.7611,-5.7711,-5.756,-5.7158,-5.6578,-5.5765,-5.3475,-5.1835,-5.0086,-4.66,-4.5225,-4.5055,-4.4904,-4.4904,-4.4904,-4.4904,-4.4904,-4.4904,-4.4904,-4.4904,-4.5094,-4.5445,-4.5426,-4.5416,-4.5529,-4.5567,-4.5567,-4.5795,-4.5624,-4.5492,-6.7458,-6.7426,-6.7426,-6.7426,-6.7458,-6.7426,-6.7458,-6.7426,-6.7426,-6.7426,-6.7557,-6.8389,-6.6142,-6.1638,-6.2097,-6.0906,-5.8622,-5.8601,-5.8191,-5.7632,-5.7579,-5.7579,-5.7556,-5.8283,-5.8545,-5.8661,-5.9883,-6.0409,-6.0641,-6.1746,-6.2995,-6.4245,-6.4885,-6.5118,-6.5118,-6.5118,-6.5118,-6.5118,-6.5845,-6.569,-6.433,-6.1962,-6.0194,-5.898,-5.6709,-5.5849,-5.6396,-5.533,-5.464,-5.464,-5.464,-5.425,-5.3371,-5.3786,-5.4787,-5.6275,-5.5348,-5.464,-5.464,-5.464,-5.464,-5.464,-5.464,-5.464,-5.464,-5.381,-5.3392,-5.3469,-5.4494,-5.5762,-5.6324,-5.5543,-5.4907,-5.4713,-5.464,-5.4665,-5.4569,-5.4432,-5.4381,-5.4356,-5.4288,-5.4215,-5.4483,-5.6377,-5.6965,-5.5071,-5.5039,-5.4559,-5.3935,-5.3912,-5.3048,-5.1093,-4.9658,-4.7581,-4.5713,-4.4904,-4.4904,-4.4904,-4.4904,-4.4904,-4.4904,-4.4904,-4.4904,-4.4904,-4.4904,-4.4904,-4.4904,-4.4904,-4.4904,-4.4961,-4.4923,-4.4904,-4.4904,-4.4904,-4.4904,-6.4969,-6.4904,-6.5035,-6.4904,-6.5035,-6.5002,-6.5035,-6.5035,-6.4936,-6.4797,-6.4575,-6.4501,-6.2663,-5.9839,-6.0551,-5.9621,-5.7419,-5.7328,-5.7218,-5.7085,-5.7149,-5.7201,-5.7056,-5.7143,-5.7172,-5.7288,-5.8138,-5.8516,-5.8632,-5.9915,-6.1252,-6.2529,-6.3925,-6.4507,-6.4681,-6.4681,-6.471,-6.4769,-6.4505,-6.301,-6.0293,-6.0157,-5.9498,-5.7987,-5.6107,-5.5239,-5.5354,-5.4653,-5.4201,-5.4323,-5.4274,-5.3514,-5.195,-5.3127,-5.4201,-5.4323,-5.4103,-5.403,-5.3981,-5.4128,-5.4054,-5.4201,-5.4128,-5.4201,-5.4152,-5.2414,-5.1241,-5.1632,-5.1583,-5.261,-5.4006,-5.3832,-5.366,-5.3981,-5.4128,-5.4347,-5.4084,-5.2874,-5.1716,-5.162,-5.0156,-4.8515,-4.8938,-5.2996,-5.4713,-5.1237,-5.155,-5.1471,-5.0009,-4.9814,-4.8984,-4.6127,-4.4789,-4.4808,-4.4989,-4.4904,-4.4904,-4.4904,-4.4904,-4.4904,-4.4904,-4.4904,-4.4904,-4.4904,-4.4904,-4.4904,-4.4904,-4.4904,-4.4904,-4.4904,-4.4904,-4.4904,-4.4904,-4.4904,-4.463,-6.4904,-6.4904,-6.4904,-6.4904,-6.4904,-6.4904,-6.4904,-6.4904,-6.4863,-6.3687,-6.178,-6.1616,-6.0655,-5.9139,-5.9309,-5.8107,-5.6088,-5.591,-5.5428,-5.4573,-5.4523,-5.4494,-5.4523,-5.4523,-5.4523,-5.4581,-5.4785,-5.493,-5.5076,-5.6218,-5.7062,-5.7498,-5.9534,-6.1077,-6.2065,-6.2094,-6.2094,-6.195,-6.0,-5.8026,-5.6168,-5.4366,-5.3734,-5.406,-5.1738,-5.1221,-5.2863,-5.1668,-5.1315,-5.2145,-5.2219,-5.2023,-5.1535,-5.1144,-5.1248,-5.195,-5.0614,-4.9622,-4.9735,-5.0394,-5.0858,-5.0858,-5.1706,-5.2219,-5.2072,-5.0199,-4.9613,-5.1192,-5.1412,-5.1681,-5.217,-5.2097,-5.2048,-5.217,-5.2219,-5.2113,-5.2249,-5.2608,-5.2252,-5.0435,-4.8028,-4.5189,-4.3905,-4.7287,-5.0215,-4.9433,-4.9914,-5.0303,-4.994,-5.0384,-4.8733,-4.5506,-4.349,-4.3623,-4.4696,-4.4885,-4.4904,-4.4904,-4.4885,-4.4847,-4.4904,-4.4904,-4.4904,-4.4904,-4.4904,-4.4904,-4.4904,-4.4904,-4.4904,-4.4904,-4.4904,-4.4904,-4.4904,-4.4904,-4.4441,-6.2964,-6.2964,-6.2964,-6.2997,-6.2964,-6.2964,-6.2964,-6.2884,-6.182,-6.0178,-5.8347,-5.8803,-5.8105,-5.6601,-5.7074,-5.6319,-5.4605,-5.4605,-5.4252,-5.3621,-5.3621,-5.3621,-5.3621,-5.3621,-5.3621,-5.3621,-5.3621,-5.3621,-5.3708,-5.4299,-5.4997,-5.5666,-5.6916,-5.8491,-6.0206,-6.0322,-6.0304,-6.0057,-5.7491,-5.5042,-5.2971,-5.1169,-5.0192,-5.0121,-4.8691,-4.8423,-4.9637,-4.9289,-4.9101,-4.9311,-4.9311,-4.9003,-4.8515,-4.8393,-4.8832,-4.9857,-4.8856,-4.7714,-4.6596,-4.8126,-4.9076,-4.9101,-4.9637,-4.9979,-4.9979,-4.8905,-4.832,-4.849,-5.0435,-5.1486,-5.1486,-5.029,-4.9152,-4.8387,-4.867,-4.8834,-4.8858,-4.867,-4.8072,-4.7147,-4.4787,-4.2363,-4.026,-4.2853,-4.5063,-4.5935,-4.5899,-4.615,-4.6482,-4.6953,-4.6293,-4.3813,-4.2844,-4.3091,-4.3983,-4.4506,-4.4866,-4.4904,-4.4601,-4.4506,-4.4847,-4.4904,-4.4904,-4.4904,-4.4904,-4.4904,-4.4904,-4.4885,-4.4904,-4.4904,-4.4904,-4.4904,-4.4904,-4.4904,-4.4081,-6.0586,-6.0405,-6.0405,-6.0327,-6.014,-6.0172,-6.014,-5.9983,-5.8052,-5.6588,-5.5668,-5.6721,-5.5958,-5.3962,-5.4907,-5.4748,-5.3621,-5.3621,-5.3621,-5.3621,-5.3621,-5.3621,-5.3621,-5.3621,-5.3621,-5.3621,-5.3621,-5.3621,-5.3621,-5.365,-5.4203,-5.52,-5.5491,-5.6683,-5.8632,-5.8909,-5.8487,-5.7445,-5.5061,-5.2515,-4.9974,-4.8669,-4.7336,-4.6072,-4.5988,-4.6026,-4.6196,-4.7051,-4.7221,-4.6465,-4.6416,-4.5684,-4.4187,-4.5416,-4.6685,-4.7623,-4.7242,-4.6278,-4.4546,-4.6093,-4.7437,-4.7916,-4.8086,-4.7912,-4.7433,-4.6994,-4.6234,-4.5332,-4.8271,-5.0679,-5.084,-4.7987,-4.5543,-4.4361,-4.4587,-4.5016,-4.5226,-4.3932,-4.309,-4.302,-4.105,-3.9748,-3.9958,-4.0261,-4.1083,-4.1903,-4.2219,-4.1596,-4.2501,-4.2275,-4.2237,-4.2332,-4.2275,-4.245,-4.273,-4.3793,-4.4317,-4.4563,-4.4002,-4.3793,-4.4344,-4.426,-4.4184,-4.4468,-4.4468,-4.4563,-4.4601,-4.4677,-4.4677,-4.4904,-4.4904,-4.4904,-4.4904,-4.3783,-4.2682,-6.0094,-5.9201,-5.9201,-5.8638,-5.7766,-5.7766,-5.7766,-5.7723,-5.7335,0.0,0.0,-5.703,-5.6395,-5.5095,-5.5312,-5.4748,-5.3669,-5.3621,-5.3621,-5.3621,-5.3621,-5.3621,-5.3621,-5.3621,-5.3621,-5.3621,-5.3621,-5.3621,-5.3621,-5.3621,-5.3766,-5.4086,-5.5084,-5.584,-5.6231,-5.6981,-5.5191,-5.0938,-4.9414,-4.7799,-4.5994,-4.4037,-4.2941,-4.2634,-4.2634,-4.3048,-4.3902,-4.4147,-4.4503,-4.5161,-4.5186,-4.3504,-3.9998,-4.2365,-4.4382,-4.5249,-4.2819,-4.1923,-4.342,-4.2859,-4.3713,-4.6746,-4.7734,-4.6846,-4.3479,-4.0834,-4.0895,-4.4621,-4.56,-4.6794,-4.8549,-4.461,-4.1668,-4.1353,-4.1445,-4.1781,-4.2442,-4.229,-4.1181,-3.9531,-3.8515,-3.8494,-3.9825,-4.0072,-4.0224,-4.0434,-4.0395,-4.0528,-4.1193,-4.0965,-4.0813,-4.1307,-4.1022,-4.0624,-4.0871,-4.1952,-4.2882,-4.3072,-4.292,-4.2806,-4.2844,-4.254,-4.2446,-4.3034,-4.3357,-4.3566,-4.3623,-4.3547,-4.3926,-4.4715,-4.4904,-4.4904,-4.4517,-4.1137,-3.7882,-5.6996,-5.703,-5.702,-5.7095,0.0,-5.7161,-5.573,-5.3448,-5.3418,-5.3418,-5.3448,-5.3448,-5.3089,-5.2556,-5.2556,-5.2232,-5.1681,-5.1681,-5.1728,-5.1652,-5.1681,-5.1699,-5.1652,-5.1652,-5.1652,-5.1728,-5.1652,-5.1652,-5.1728,-5.1699,-5.1386,-5.083,-5.1412,-5.1431,-5.086,-5.1842,-5.0093,-4.5377,-4.5377,-4.4678,-4.3341,-4.2316,-4.1755,-4.1755,-4.1755,0.0,0.0,0.0,0.0,0.0,0.0,0.0,0.0,-3.984,0.0,-3.9472,-3.8107,-3.7436,-3.7802,-3.7981,-3.8804,-4.0577,-4.1582,-4.0932,-3.8195,-3.4533,-3.3793,-3.7061,-3.972,-4.0898,-4.0306,-3.9197,-3.8092,-3.7344,-3.7526,-3.7958,-3.8369,-3.8472,-3.7622,-3.5766,-3.5878,-3.7225,-3.973,-4.0072,-4.0072,-4.0072,-4.0072,-4.0224,-4.0471,-4.032,-4.0148,-4.0509,-4.0282,-4.0072,-4.0148,-4.0871,-4.1518,-4.2275,-4.218,-4.2104,-4.2465,-4.2294,-4.218,-4.2484,-4.2749,-4.2578,-4.1895,-4.1708,-4.2412,-4.4241,-4.4904,-4.4149,-4.0795,-3.7293,-3.4367,-5.376,-5.4506,-5.4495,-5.4974,-5.573,-5.573,-5.3448,-4.9762,-4.9762,-4.9762,-4.9762,-4.9762,-4.9762,-4.9762,-4.9762,-4.9762,-4.9762,-4.9762,-4.9762,-4.9762,-4.9762,-4.9762,-4.9762,-4.9762,-4.9762,-4.9762,-4.9762,-4.9762,-4.9762,-4.9762,-4.9211,-4.8019,-4.8019,-4.7369,-4.6147,0.0,0.0,0.0,-4.2438,-4.2341,-4.1565,-4.1242,-4.1145,-4.1198,-4.1169,0.0,-4.154,-4.2292,-4.2438,-4.1804,-4.1311,0.0,0.0,0.0,0.0,0.0,0.0,0.0,0.0,0.0,0.0,0.0,-3.3867,-3.3248,-3.1924,-2.889,-2.7829,-2.9821,-3.3683,-3.4976,-3.2266,-3.366,-3.4339,-3.3236,-3.3638,-3.4112,-3.4283,-3.4329,-3.3732,-3.2172,-3.3138,-3.5517,-3.9255,-4.0072,-4.0072,-4.0053,-3.9901,-3.9825,-3.9825,-3.9674,-3.9825,-4.0034,-4.011,-4.0072,-4.0072,-4.0091,-4.0681,-4.1594,-4.142,-4.115,-4.1246,-4.1298,-4.1452,-4.0579,-4.0893,-4.0236,-3.9039,-3.8879,-3.9895,-4.3741,-4.37,-4.148,-3.5784,-3.2977,-3.1642,-5.275,-5.2012,-5.197,-5.1442,-5.0729,-5.0729,-5.0326,-4.9762,-4.9762,-4.9762,-4.9762,-4.9762,-4.9762,-4.9762,-4.9762,-4.9762,-4.9762,-4.9762,-4.9762,-4.9762,-4.9762,-4.9762,-4.9762,-4.9762,-4.9762,-4.9762,-4.9762,-4.9762,-4.9762,-4.9762,-4.9182,-4.8067,-4.8019,-4.7369,-4.594,-4.1811,-4.0363,-4.1731,-4.1027,-4.0587,-4.0416,-3.9412,-3.89,-3.89,-3.89,-3.9388,-4.0368,-4.0563,-4.1003,-4.1731,-4.2267,-4.1159,-3.8162,-3.4839,-3.2692,0.0,-2.9679,0.0,0.0,0.0,0.0,0.0,0.0,0.0,0.0,-2.5264,-2.6633,-2.9689,-3.0543,-3.0715,-3.0335,-2.9951,-2.9931,-3.0411,-3.0543,-3.0904,-3.1666,-3.1761,-3.14,-3.0334,-3.0467,-3.3049,-3.8817,-4.0072,-4.0053,-3.9901,-3.9032,-3.8449,-3.8746,-3.8465,-3.8562,-3.9958,-4.0072,-3.9789,-3.9468,-3.9789,-4.0148,-4.032,-4.0054,-3.9635,-3.7923,-3.7667,-3.7122,-3.5458,-3.5192,-3.4934,-3.4546,-3.4481,-3.6342,-4.1082,-3.9421,-3.5376,-3.0325,-2.8489,-2.8076,-4.9304,-4.9419,-4.9463,-4.8746,-4.7609,-4.7609,-4.7609,-4.7609,-4.7609,-4.7609,-4.7609,-4.7609,-4.726,-4.6721,-4.7319,-4.726,-4.6708,-4.7319,-4.7609,-4.7609,-4.7609,-4.7609,-4.758,-4.7609,-4.723,-4.6653,-4.7303,-4.6892,-4.5664,-4.6265,-4.5963,-4.4632,-4.4113,-4.3138,-4.186,-4.0274,-3.9952,-4.093,-4.0465,-3.9928,-3.9317,-3.8753,-3.8485,-3.8435,-3.7705,-3.7563,-3.8037,-3.794,-3.8049,-3.851,-3.9363,-3.7892,-3.3523,-3.0985,-2.9204,0.0,0.0,0.0,0.0,0.0,0.0,0.0,0.0,0.0,0.0,0.0,-2.3508,-2.3196,-2.6426,-2.8515,-2.8534,-2.8012,-2.7629,-2.7465,-2.741,-2.7885,-2.8991,-2.9612,-2.9518,-2.8629,-2.933,-3.1094,-3.3998,-3.6029,-3.7548,-3.8478,-3.5538,-3.376,-3.494,-3.4486,-3.4417,-3.5844,-3.8323,-3.8961,-3.5042,-3.7659,-4.0072,-3.9826,-3.7504,-3.5219,-3.4338,-3.4675,-3.4811,-3.3868,-3.3632,-3.2983,-3.0635,-3.0151,-3.0861,-3.3158,-3.1848,-2.9042,-2.6119,-2.5983,-2.6437,-4.6475,-4.7304,-4.6723,-4.6126,-4.5428,-4.5457,-4.5603,-4.5864,-4.5864,-4.5719,-4.5457,-4.5457,-4.4626,-4.3218,-4.4119,-4.4207,-4.3694,-4.4585,-4.5283,-4.5835,-4.5574,-4.5603,-4.5864,-4.5569,-4.4985,-4.4202,-4.4698,-4.403,-4.2312,-4.291,-4.2585,-4.1242,-3.9904,-3.885,-3.8143,-3.9268,-3.983,-3.983,-3.9762,-3.917,-3.8057,-3.7655,-3.7502,-3.7478,-3.6378,-3.5973,-3.6224,-3.6077,-3.6089,-3.633,-3.5947,-3.3957,-3.0106,-2.7208,0.0,0.0,0.0,0.0,0.0,0.0,0.0,0.0,0.0,-1.7451,-1.6177,0.0,-1.8936,0.0,-2.244,-2.6513,-2.7875,-2.6487,0.0,0.0,-2.4667,-2.5049,-2.618,-2.7208,-2.7485,-2.6618,-2.819,-2.9462,-2.9898,-3.2556,-3.4608,-3.5004,-3.1281,-2.9226,-3.1333,-3.0258,-2.9824,-3.197,-3.5238,-3.5328,-2.9712,-3.2701,-3.631,-3.7567,-3.4291,-3.1337,-3.0829,-3.1453,-3.1856,-3.1394,-3.1317,-3.0169,-2.7189,-2.6399,-2.6399,-2.6424,-2.549,-2.4326,-2.4035,-2.4633,-2.5193,-4.5923,-4.5835,-4.3567,-4.3247,-4.4247,-4.4247,-4.4858,-4.5864,-4.5835,-4.5295,-4.4276,-4.4276,-4.2869,-4.0563,-4.065,0.0,-4.2345,-4.2442,-4.3683,-4.5806,-4.4771,-4.4858,-4.5793,-4.477,-4.423,-4.407,-4.2977,-4.2358,-4.2121,-4.1334,-4.0252,-3.908,-3.691,-3.6211,-3.7046,-3.8069,-3.8631,-3.8631,-3.8387,-3.7654,-3.6505,-3.523,-3.4542,-3.4573,-3.4436,-3.4873,-3.5969,-3.5935,-3.6395,-3.7184,-3.3039,-3.0372,-2.9784,0.0,0.0,0.0,0.0,0.0,0.0,0.0,0.0,0.0,0.0,0.0,0.0,0.0,0.0,-1.5153,-1.9091,0.0,-2.9238,-2.4946,0.0,0.0,0.0,-2.2334,-2.3071,-2.4213,-2.4734,-2.3929,0.0,0.0,-2.9765,-3.1509,-3.1651,-2.8935,-2.7445,-2.7287,-2.903,-2.7205,-2.6803,-2.9839,-3.0825,-2.8801,-2.3319,-2.4162,-2.7107,-3.0491,-3.0754,-2.9496,-2.7851,-2.7565,-2.6753,-2.547,-2.477,-2.4566,-2.4336,-2.3672,-2.336,-2.4074,-2.3471,-2.3096,-2.3459,-2.3696,-2.3803,-4.2723,-4.122,-4.0251,-4.0143,-4.0579,-4.0608,-4.1298,-4.2452,-4.2491,-4.2229,-4.1735,-4.092,-3.9612,-3.7837,-3.6263,0.0,0.0,0.0,-4.0351,-4.2469,-4.1523,-4.1651,-4.2692,-4.2927,-4.2243,-4.1036,-4.1788,-4.1069,-3.902,-3.9351,-3.7301,-3.3034,0.0,-3.2719,-3.4998,-3.5862,-3.6535,-3.7122,-3.6938,-3.626,-3.5072,-3.4489,-3.4222,-3.4222,-3.3383,-3.3137,-3.3604,-3.2314,-3.1235,-3.0504,-2.9158,-2.6486,0.0,0.0,0.0,0.0,0.0,0.0,0.0,0.0,0.0,0.0,0.0,-1.1497,-1.0557,0.0,0.0,0.0,-1.4239,-1.8079,-2.183,-2.0723,0.0,0.0,0.0,0.0,0.0,0.0,0.0,-2.0159,-2.2342,-2.4075,-2.4306,-2.4906,-2.4878,-2.3591,-2.314,-2.3511,-2.5121,0.0,-2.3261,-2.5568,-2.5099,-2.3552,-2.1057,-2.1346,-2.2442,-2.423,-2.4953,-2.4988,-2.4177,-2.4711,-2.4794,-2.412,-2.3918,-2.349,-2.2113,-2.1698,-2.1607,-2.1802,-2.1013,-2.0304,-2.0569,-2.0519,-2.0413,-3.7843,0.0,0.0,0.0,0.0,-3.6645,-3.7338,-3.8558,-3.8445,-3.8207,-3.7977,-3.6853,0.0,0.0,0.0,0.0,0.0,0.0,-3.6565,-3.8456,-3.8194,-3.864,-3.9716,-4.0075,-3.947,-3.7961,-3.8824,-3.7813,-3.5187,-3.5233,-3.2545,-2.7349,0.0,0.0,0.0,0.0,-3.3903,-3.4528,-3.5091,-3.4781,-3.3599,-3.32,-3.2983,-3.2983,-3.1963,-3.131,-3.1126,-2.9069,-2.7126,-2.5338,-2.4123,0.0,0.0,0.0,0.0,0.0,0.0,0.0,0.0,0.0,0.0,0.0,0.0,0.0,0.0,0.0,0.0,0.0,0.0,0.0,-1.5129,-1.5882,-1.581,0.0,0.0,0.0,0.0,0.0,0.0,0.0,0.0,0.0,-2.0454,-2.0578,-2.0578,0.0,0.0,-2.0626,-2.1402,-2.1042,-2.081,-2.149,-2.1055,0.0,-1.9319,-1.9208,-1.9455,-2.0455,-2.1179,-2.1528,-2.1072,-2.2118,-2.2618,-2.1432,-2.2198,-2.2066,-1.9542,-1.8866,-1.9292,-2.0193,-1.8847,-1.7394,-1.7312,-1.7198,-1.7108,0.0,0.0,0.0,0.0,-3.26,0.0,0.0,0.0,-3.4057,-3.3403,0.0,-3.2143,0.0,0.0,0.0,0.0,-2.9967,-3.0969,0.0,0.0,-3.517,-3.6352,-3.7409,-3.6256,-3.5742,-3.5538,-3.3468,-3.1856,-3.0563,-2.7954,0.0,0.0,0.0,0.0,0.0,0.0,-3.054,-3.041,-3.2682,-3.3288,-3.2134,-3.0836,-3.0125,-3.0125,-3.0068,-2.965,-2.8832,-2.695,-2.5302,-2.3967,-1.7689,0.0,0.0,0.0,0.0,0.0,0.0,0.0,0.0,0.0,0.0,0.0,0.0,0.0,0.0,0.0,0.0,0.0,0.0,0.0,0.0,-1.0826,0.0,0.0,0.0,0.0,0.0,0.0,0.0,0.0,0.0,-1.4411,-1.9548,-2.0377,-2.0578,-2.0565,0.0,0.0,0.0,0.0,-2.0024,-1.8451,-1.9579,-1.9381,-1.6231,-1.5738,-1.6795,-2.0024,0.0,0.0,-1.8447,-1.9541,-1.9542,-1.598,-1.8325,-1.9453,-1.5437,-1.4651,-1.6022,-1.9537,-1.7264,-1.482,-1.4674,-1.4445,-1.4483,0.0,0.0,0.0,0.0,0.0,0.0,0.0,0.0,0.0,-2.9044,-2.8716,-2.771,0.0,0.0,0.0,0.0,0.0,0.0,0.0,0.0,-2.8818,-2.9052,-3.0152,-2.9957,-2.9539,-2.8877,-2.8738,-2.6899,0.0,0.0,0.0,0.0,0.0,0.0,0.0,0.0,-2.6803,-2.7991,-2.966,-3.0328,-2.9945,-2.9969,-2.9974,-2.9898,-2.8969,-2.7484,-2.5374,-2.3462,-2.1611,0.0,0.0,0.0,0.0,0.0,0.0,0.0,0.0,0.0,0.0,0.0,0.0,0.0,0.0,0.0,0.0,0.0,0.0,0.0,0.0,0.0,0.0,0.0,-0.8035,0.0,0.0,0.0,0.0,0.0,0.0,0.0,0.0,0.0,-1.1452,-1.4583,-1.7375,-1.9238,-1.7799,-1.6445,-1.6122,0.0,0.0,0.0,0.0,0.0,0.0,0.0,-1.3396,-1.6733,-1.7619,-1.7361,-1.6042,-1.6255,-1.6248,-1.4904,0.0,0.0,-0.896,-0.9984,-1.2823,-1.6058,-1.3271,-1.0397,-1.0393,-0.9652,-0.9053,0.0,0.0,0.0,0.0,0.0,0.0,0.0,0.0,0.0,-2.2575,-2.266,0.0,0.0,0.0,0.0,0.0,0.0,0.0,0.0,0.0,0.0,0.0,-2.4834,-2.5069,0.0,0.0,0.0,0.0,0.0,0.0,0.0,0.0,0.0,0.0,0.0,0.0,-2.3809,-2.5432,-2.7606,-2.874,-2.8759,-2.9015,-2.9068,-2.8865,-2.7546,-2.5698,-2.3291,0.0,0.0,0.0,0.0,0.0,0.0,0.0,0.0,0.0,0.0,0.0,0.0,0.0,0.0,0.0,0.0,0.0,0.0,0.0,0.0,0.0,0.0,0.0,0.0,0.0,-0.6096,0.0,0.0,0.0,0.0,0.0,0.0,0.0,0.0,0.0,0.0,-1.0661,-1.3968,-1.4622,-1.419,-1.3889,-1.4097,-1.4473,-1.4753,0.0,0.0,0.0,0.0,0.0,0.0,0.0,0.0,0.0,0.0,0.0,0.0,0.0,0.0,-0.9391,-0.3884,-0.5781,-0.8896,-1.0808,0.0,0.0,0.0,0.0,0.0,0.0,0.0,0.0,0.0,0.0,0.0,0.0,0.0,0.0,0.0,-1.4735,0.0,0.0,-1.4517,0.0,0.0,0.0,0.0,0.0,0.0,0.0,0.0,0.0,0.0,0.0,0.0,0.0,0.0,0.0,0.0,0.0,0.0,0.0,0.0,0.0,0.0,-2.1662,-2.2599,-2.6645,-2.8721,-2.865,-2.7982,-2.7392,-2.6799,-2.5756,-2.4414,-2.2642,0.0,0.0,0.0,0.0,0.0,0.0,0.0,0.0,0.0,0.0,0.0,0.0,0.0,0.0,0.0,0.0,0.0,0.0,0.0,0.0,0.0,0.0,0.0,0.0,0.0,0.0,-0.2929,-0.4414,-0.5504,0.0,0.0,0.0,0.0,0.0,0.0,0.0,0.0,0.0,-0.6991,-0.934,-1.1728,-1.2134,-1.2639,-1.281,-1.2756,-1.1474,-1.041,-1.0326,-1.0306,-1.0581,0.0,0.0,0.0,0.0,0.0,0.0,0.0,0.0,0.0,0.0,0.0,0.0,0.0,0.0,0.0,0.0,0.0,0.0,0.0,0.0,0.0,0.0,0.0,0.0,0.0,0.0,0.0,0.0,0.0,0.0,0.0,0.0,0.0,0.0,0.0,0.0,0.0,0.0,0.0,0.0,0.0,0.0,0.0,0.0,0.0,0.0,0.0,0.0,0.0,0.0,0.0,0.0,0.0,0.0,-2.1052,-2.2541,-2.6025,-2.7581,-2.717,-2.7471,-2.6859,-2.5237,-2.3393,-2.1779,0.0,0.0,0.0,0.0,0.0,0.0,0.0,0.0,0.0,0.0,0.0,0.0,0.0,0.0,0.0,0.0,0.0,0.0,0.0,0.0,0.0,0.0,0.0,0.0,0.0,0.0,0.0,0.0,-0.3499,-0.3739,-0.3389,0.0,0.0,0.0,0.0,0.0,0.0,0.0,0.0,0.0,0.0,-0.6959,-0.7074,-0.6694,-0.6674,-0.7461,-0.7801,-0.7775,-0.6917,-0.6445,-0.7042,-0.9604,0.0,0.0,0.0,0.0,0.0,0.0,0.0,0.0,0.0,0.0,0.0,0.0,0.0,0.0,0.0,0.0,0.0,0.0,0.0,0.0,0.0,0.0,0.0,0.0,0.0,0.0,0.0,0.0,0.0,0.0,0.0,0.0,0.0,0.0,0.0,0.0,0.0,0.0,0.0,0.0,0.0,0.0,0.0,0.0,0.0,0.0,0.0,0.0,0.0,0.0,0.0,0.0,0.0,-2.054,-2.1627,-2.5133,-2.6612,-2.5924,-2.6184,-2.5293,-2.3284,-2.1309,-1.9308,0.0,0.0,0.0,0.0,0.0,0.0,0.0,0.0,0.0,0.0,0.0,0.0,0.0,0.0,0.0,0.0,0.0,0.0,0.0,0.0,0.0,0.0,0.0,0.0,0.0,0.0,0.0,0.0,-0.1917,-0.201,-0.2229,0.0,0.0,0.0,0.0,0.0,0.0,0.0,0.0,0.0,0.0,-0.3386,-0.4087,-0.4074,0.0,0.0,-0.545,-0.5087,-0.3491,-0.4787,-0.5929,-0.591,-0.4056,0.0,0.0,0.0,0.0,0.0,0.0,0.0,0.0,0.0,0.0,0.0,0.0,0.0,0.0,0.0,0.0,0.0,0.0,0.0,0.0,0.0,0.0,0.0,0.0,0.0,0.0,0.0,0.0,0.0,0.0,0.0,0.0,0.0,0.0,0.0,0.0,0.0,0.0,0.0,0.0,0.0,0.0,0.0,0.0,0.0,0.0,0.0,0.0,0.0,0.0,0.0,0.0,-1.9989,-2.0198,-2.399,-2.5638,-2.5011,-2.4304,-2.2906,-2.0939,-1.9412,-1.6854,0.0,0.0,0.0,0.0,0.0,0.0,0.0,0.0,0.0,0.0,0.0,0.0,0.0,0.0,0.0,0.0,0.0,0.0,0.0,0.0,0.0,0.0,0.0,0.0,0.0,0.0,0.0,0.0,0.0,0.0,0.0,0.0,0.0,0.0,0.0,0.0,0.0,0.0,0.0,0.0,0.0,-0.0893,-0.27,-0.3828,-0.4603,0.0,-0.3967,-0.2508,-0.0329,-0.4608,-0.6296,-0.0938,0.0,0.0,0.0,0.0,0.0,0.0,0.0,0.0,0.0,0.0,0.0,0.0,0.0,0.0,0.0,0.0,0.0,0.0,0.0,0.0,0.0,0.0,0.0,0.0,0.0,0.0,0.0,0.0,0.0,0.0,0.0,0.0,0.0,0.0,0.0,0.0,0.0,0.0,0.0,0.0,0.0,0.0,0.0,0.0,0.0,0.0,0.0,0.0,0.0,0.0,0.0,0.0,0.0,0.0,-2.0917,-2.2492,-2.3672,-2.4258,-2.2731,-2.0623,-1.7949,-1.6422,0.0,0.0,0.0,0.0,0.0,0.0,0.0,0.0,0.0,0.0,0.0,0.0,0.0,0.0,0.0,0.0,0.0,0.0,0.0,0.0,0.0,0.0,0.0,0.0,0.0,0.0,0.0,0.0,0.0,0.0,0.0,0.0,0.0,0.0,0.0,0.0,0.0,0.0,0.0,0.0,0.0,0.0,0.0502,-0.0623,-0.1013,-0.1239,0.0,0.0,-0.0661,-0.0055,-0.1251,-0.1721,0.0,0.0,0.0,0.0,0.0,0.0,0.0,0.0,0.0,0.0,0.0,0.0,0.0,0.0,0.0,0.0,0.0,0.0,0.0,0.0,0.0,0.0,0.0,0.0,0.0,0.0,0.0,0.0,0.0,0.0,0.0,0.0,0.0,0.0,0.0,0.0,0.0,0.0,0.0,0.0,0.0,0.0,0.0,0.0,0.0,0.0,0.0,0.0,0.0,0.0,0.0,0.0,0.0,0.0,-1.8203,-1.9409,-2.0716,-2.1716,-2.2281,-2.1253,-1.943,-1.6782,-1.5307,-1.3192,0.0,0.0,0.0,0.0,0.0,0.0,0.0,0.0,0.0,0.0,0.0,0.0,0.0,0.0,0.0,0.0,0.0,0.0,0.0,0.0,0.0,0.0,0.0,0.0,0.0,0.0,0.0,0.0,0.0,0.0,0.0,0.0,0.0,0.0,0.0,0.0,0.0,0.0,0.0,0.0,0.0,0.0,0.1519,0.0657,0.0,0.0,0.0,0.0,0.0,0.0,0.0,0.0,0.0,0.0,0.0,0.0,0.0,0.0,0.0,0.0,0.0,0.0,0.0,0.0,0.0,0.0,0.0,0.0,0.0,0.0,0.0,0.0,0.0,0.0,0.0,0.0,0.0,0.0,0.0,0.0,0.0,0.0,0.0,0.0,0.0,0.0,0.0,0.0,0.0,0.0,0.0,0.0,0.0,0.0,0.0,0.0,0.0,0.0,0.0,0.0,0.0,0.0,0.0,0.0,0.0,0.0,-1.7044,-1.8743,-1.9779,-1.9963,-1.9819,-1.8656,-1.652,-1.5088,-1.26,0.0,0.0,0.0,0.0,0.0,0.0,0.0,0.0,0.0,0.0,0.0,0.0,0.0,0.0,0.0,0.0,0.0,0.0,0.0,0.0,0.0,0.0,0.0,0.0,0.0,0.0,0.0,0.0,0.0,0.0,0.0,0.0,0.0,0.0,0.0,0.0,0.0,0.0,0.0,0.0,0.0,0.2223,0.314,0.1521,0.0584,0.0,0.0,0.0,0.0048,0.0,0.0,0.0,0.0,0.0,0.0,0.0,0.0,0.0,0.0,0.0,0.0,0.0,0.0,0.0,0.0,0.0,0.0,0.0,0.0,0.0,0.0,0.0,0.0,0.0,0.0,0.0,0.0,0.0,0.0,0.0,0.0,0.0,0.0,0.0,0.0,0.0,0.0,0.0,0.0,0.0,0.0,0.0,0.0,0.0,0.0,0.0,0.0,0.0,0.0,0.0,0.0,0.0,0.0,0.0,0.0,0.0,-1.6148,-1.6287,-1.7525,-1.9828,-1.8535,-1.6831,-1.5059,-1.3614,-1.1179,0.0,0.0,0.0,0.0,0.0,0.0,0.0,0.0,0.0,0.0,0.0,0.0,0.0,0.0,0.0,0.0,0.0,0.0,0.0,0.0,0.0,0.0,0.0,0.0,0.0,0.0,0.0,0.0,0.0,0.0,0.0,0.0,0.0,0.0,0.0,0.0,0.0,0.0,0.0,0.0,0.0,0.2338,0.2136,0.1735,0.0,0.0,0.0,0.0,0.0,0.0,0.0,0.0,0.0,0.0,0.0,0.0,0.0,0.0,0.0,0.0,0.0,0.0,0.0,0.0,0.0,0.0,0.0,0.0,0.0,0.0,0.0,0.0,0.0,0.0,0.0,0.0,0.0,0.0,0.0,0.0,0.0,0.0,0.0,0.0,0.0,0.0,0.0,0.0,0.0,0.0,0.0,0.0,0.0,0.0,0.0,0.0,0.0,0.0,0.0,0.0,0.0,0.0,0.0,0.0,0.0,0.0,-1.4597,-1.4888,-1.6048,-1.8118,-1.6845,-1.5358,-1.3971,-1.2301,-0.9949,0.0,0.0,0.0,0.0,0.0,0.0,0.0,0.0,0.0,0.0,0.0,0.0,0.0,0.0,0.0,0.0,0.0,0.0,0.0,0.0,0.0,0.0,0.0,0.0,0.0,0.0,0.0,0.0,0.0,0.0,0.0,0.0,0.0,0.0,0.0,0.0,0.0,0.0,0.0,0.0,0.2532,0.2488,0.2428,0.0,0.0,0.0,0.0,0.0,0.0,0.0386,0.0,0.0,0.0,0.0,0.0,0.0,0.0,0.0,0.0,0.0,0.0,0.0,0.0,0.0,0.0,0.0,0.0,0.0,0.0,0.0,0.0,0.0,0.0,0.0,0.0,0.0,0.0,0.0,0.0,0.0,0.0,0.0,0.0,0.0,0.0,0.0,0.0,0.0,0.0,0.0,0.0,0.0,0.0,0.0,0.0,0.0,0.0,0.0,0.0,0.0,0.0,0.0,0.0,0.0,0.0,0.0,-1.3,-1.3948,-1.5043,-1.6293,-1.5639,-1.4638,-1.3249,-1.1562,-0.9407,-0.6843,0.0,0.0,0.0,0.0,0.0,0.0,0.0,0.0,0.0,0.0,0.0,0.0,0.0,0.0,0.0,0.0,0.0,0.0,0.0,0.0,0.0,0.0,0.0,0.0,0.0,0.0,0.0,0.0,0.0,0.0,0.0,0.0,0.0,0.0,0.0,0.0,0.0,0.0,0.0,0.2856,0.2885,0.0,0.0,0.0,0.0,0.0,0.0,0.0,0.0,0.0168,0.0,0.0,0.0,0.0,0.0,0.0,0.0,0.0,0.0,0.0,0.0,0.0,0.0,0.0,0.0,0.0,0.0,0.0,0.0,0.0,0.0,0.0,0.0,0.0,0.0,0.0,0.0,0.0,0.0,0.0,0.0,0.0,0.0,0.0,0.0,0.0,0.0,0.0,0.0,0.0,0.0,0.0,0.0,0.0,0.0,0.0,0.0,0.0,0.0,0.0,0.0,0.0,0.0,0.0,0.0,0.0,-1.3233,-1.4595,-1.6254,-1.6627,-1.5623,-1.3301,-1.2469,-1.0673,-0.7678,0.0,0.0,0.0,0.0,0.0,0.0,0.0,0.0,0.0,0.0,0.0,0.0,0.0,0.0,0.0,0.0,0.0,0.0,0.0,0.0,0.0,0.0,0.0,0.0,0.0,0.0,0.0,0.0,0.0,0.0,0.0,0.0,0.0,0.0,0.0,0.0,0.0,0.0,0.4876,0.4156,0.0,0.0,0.0,0.0,0.0,0.0,0.0,0.0,0.1048,0.0,0.0,0.0,0.0,0.0,0.0,0.0,0.0,0.0,0.0,0.0,0.0,0.0,0.0,0.0,0.0,0.0,0.0,0.0,0.0,0.0,0.0,0.0,0.0,0.0,0.0,0.0,0.0,0.0,0.0,0.0,0.0,0.0,0.0,0.0,0.0,0.0,0.0,0.0,0.0,0.0,0.0,0.0,0.0,0.0,0.0,0.0,0.0,0.0,0.0,0.0,0.0,0.0,0.0,0.0,0.0,0.0,0.0,-1.405,-1.5704,-1.5673,-1.4888,-1.3551,-1.2223,-1.0352,0.0,0.0,0.0,0.0,0.0,0.0,0.0,0.0,0.0,0.0,0.0,0.0,0.0,0.0,0.0,0.0,0.0,0.0,0.0,0.0,0.0,0.0,0.0,0.0,0.0,0.0,0.0,0.0,0.0,0.0,0.0,0.0,0.0,0.0,0.0,0.0,0.0,0.0,0.0,0.0,0.0,0.0,0.0,0.0,0.0,0.0,0.0,0.0,0.0,0.0,0.0,0.0,0.0,0.0,0.0,0.0,0.0,0.0,0.0,0.0,0.0,0.0,0.0,0.0,0.0,0.0,0.0,0.0,0.0,0.0,0.0,0.0,0.0,0.0,0.0,0.0,0.0,0.0,0.0,0.0,0.0,0.0,0.0,0.0,0.0,0.0,0.0,0.0,0.0,0.0,0.0,0.0,0.0,0.0,0.0,0.0,0.0,0.0,0.0,0.0,0.0,0.0,0.0,0.0,0.0,0.0,0.0,0.0,-1.353,-1.4921,-1.4612,-1.4159,-1.36,-1.1656,-0.9718,0.0,0.0,0.0,0.0,0.0,0.0,0.0,0.0,0.0,0.0,0.0,0.0,0.0,0.0,0.0,0.0,0.0,0.0,0.0,0.0,0.0,0.0,0.0,0.0,0.0,0.0,0.0,0.0,0.0,0.0,0.0,0.0,0.0,0.0,0.0,0.0,0.0,0.0,0.0,0.0,0.0,0.0,0.0,0.0,0.0,0.0,0.0,0.0,0.4299,0.0,0.0,0.0,0.0,0.0,0.0,0.0,0.0,0.0,0.0,0.0,0.0,0.0,0.0,0.0,0.0,0.0,0.0,0.0,0.0,0.0,0.0,0.0,0.0,0.0,0.0,0.0,0.0,0.0,0.0,0.0,0.0,0.0,0.0,0.0,0.0,0.0,0.0,0.0,0.0,0.0,0.0,0.0,0.0,0.0,0.0,0.0,0.0,0.0,0.0,0.0,0.0,0.0,0.0,0.0,0.0,0.0,0.0,0.0,-1.3141,-1.3788,-1.4709,-1.4474,-1.2965,-1.1275,-0.9449,0.0,0.0,0.0,0.0,0.0,0.0,0.0,0.0,0.0,0.0,0.0,0.0,0.0,0.0,0.0,0.0,0.0,0.0,0.0,0.0,0.0,0.0,0.0,0.0,0.0,0.0,0.0,0.0,0.0,0.0,0.0,0.0,0.0,0.0,0.0,0.0,0.0,0.0,0.0,0.0,0.0,0.0,0.0,0.0,0.0,0.0,0.0,0.0,0.0,0.0,0.0,0.0,0.0,0.0,0.0,0.0,0.0,0.0,0.0,0.0,0.0,0.0,0.0,0.0,0.0,0.0,0.0,0.0,0.0,0.0,0.0,0.0,0.0,0.0,0.0,0.0,0.0,0.0,0.0,0.0,0.0,0.0,0.0,0.0,0.0,0.0,0.0,0.0,0.0,0.0,0.0,0.0,0.0,0.0,0.0,0.0,0.0,0.0,0.0,0.0,0.0,0.0,0.0,0.0,0.0,0.0,0.0,0.0,-1.2883,-1.3593,-1.4085,-1.3498,-1.1621,-1.0083,-0.8684,0.0,0.0,0.0,0.0,0.0,0.0,0.0,0.0,0.0,0.0,0.0,0.0,0.0,0.0,0.0,0.0,0.0,0.0,0.0,0.0,0.0,0.0,0.0,0.0,0.0,0.0,0.0,0.0,0.0,0.0,0.0,0.0,0.0,0.0,0.0,0.0,0.0,0.0,0.0,0.0,0.0,0.0,0.0,0.0,0.0,0.0,0.0,0.0,0.0,0.0,0.0,0.0,0.0,0.0,0.0,0.0,0.0,0.0,0.0,0.0,0.0,0.0,0.0,0.0,0.0,0.0,0.0,0.0,0.0,0.0,0.0,0.0,0.0,0.0,0.0,0.0,0.0,0.0,0.0,0.0,0.0,0.0,0.0,0.0,0.0,0.0,0.0,0.0,0.0,0.0,0.0,0.0,0.0,0.0,0.0,0.0,0.0,0.0,0.0,0.0,0.0,0.0,0.0,0.0,0.0,0.0,0.0,0.0,0.0,-1.292,-1.2751,-1.1927,-1.0546,-0.9264,-0.8241,0.0,0.0,0.0,0.0,0.0,0.0,0.0,0.0,0.0,0.0,0.0,0.0,0.0,0.0,0.0,0.0,0.0,0.0,0.0,0.0,0.0,0.0,0.0,0.0,0.0,0.0,0.0,0.0,0.0,0.0,0.0,0.0,0.0,0.0,0.0,0.0,0.0,0.0,0.0,0.0,0.0,0.0,0.0,0.0,0.0,0.0,0.0,0.0,0.0,0.0,0.0,0.0,0.0,0.0,0.0,0.0,0.0,0.0,0.0,0.0,0.0,0.0,0.0,0.0,0.0,0.0,0.0,0.0,0.0,0.0,0.0,0.0,0.0,0.0,0.0,0.0,0.0,0.0,0.0,0.0,0.0,0.0,0.0,0.0,0.0,0.0,0.0,0.0,0.0,0.0,0.0,0.0,0.0,0.0,0.0,0.0,0.0,0.0,0.0,0.0,0.0,0.0,0.0,0.0,0.0,0.0,0.0,0.0,0.0,-1.1245,-1.0534,-1.0068,-0.9931,-0.9049,-0.8315,0.0,0.0,0.0,0.0,0.0,0.0,0.0,0.0,0.0,0.0,0.0,0.0,0.0,0.0,0.0,0.0,0.0,0.0,0.0,0.0,0.0,0.0,0.0,0.0,0.0,0.0,0.0,0.0,0.0,0.0,0.0,0.0,0.0,0.0,0.0,0.0,0.0,0.0,0.0,0.0,0.0,0.0,0.0,0.0,0.0,0.0,0.0,0.0,0.0,0.0,0.0,0.0,0.0,0.0,0.0,0.0,0.0,0.0,0.0,0.0,0.0,0.0,0.0,0.0,0.0,0.0,0.0,0.0,0.0,0.0,0.0,0.0,0.0,0.0,0.0,0.0,0.0,0.0,0.0,0.0,0.0,0.0,0.0,0.0,0.0,0.0,0.0,0.0,0.0,0.0,0.0,0.0,0.0,0.0,0.0,0.0,0.0,0.0,0.0,0.0,0.0,0.0,0.0,0.0,0.0,0.0,0.0,0.0,0.0,-1.0601,-1.0297,-0.9646,-0.8626,-0.8702,-0.8067,-0.65,0.0,0.0,0.0,0.0,0.0,0.0,0.0,0.0,0.0,0.0,0.0,0.0,0.0,0.0,0.0,0.0,0.0,0.0,0.0,0.0,0.0,0.0,0.0,0.0,0.0,0.0,0.0,0.0,0.0,0.0,0.0,0.0,0.0,0.0,0.0,0.0,0.0,0.0,0.0,0.0,0.0,0.0,0.0,0.0,0.0,0.0,0.0,0.0,0.0,0.0,0.0,0.0,0.0,0.0,0.0,0.0,0.0,0.0,0.0,0.0,0.0,0.0,0.0,0.0,0.0,0.0,0.0,0.0,0.0,0.0,0.0,0.0,0.0,0.0,0.0,0.0,0.0,0.0,0.0,0.0,0.0,0.0,0.0,0.0,0.0,0.0,0.0,0.0,0.0,0.0,0.0,0.0,0.0,0.0,0.0,0.0,0.0,0.0,0.0,0.0,0.0,0.0,0.0,0.0,0.0,0.0,0.0,0.0,-1.0293,-1.003,-0.9474,-0.8644,-0.8789,-0.8281,0.0,0.0,0.0,0.0,0.0,0.0,0.0,0.0,0.0,0.0,0.0,0.0,0.0,0.0,0.0,0.0,0.0,0.0,0.0,0.0,0.0,0.0,0.0,0.0,0.0,0.0,0.0,0.0,0.0,0.0,0.0,0.0,0.0,0.0,0.0,0.0,0.0,0.0,0.0,0.0,0.0,0.0,0.0,0.0,0.0,0.0,0.0,0.0,0.0,0.0,0.0,0.0,0.0,0.0,0.0,0.0,0.0,0.0,0.0,0.0,0.0,0.0,0.0,0.0,0.0,0.0,0.0,0.0,0.0,0.0,0.0,0.0,0.0,0.0,0.0,0.0,0.0,0.0,0.0,0.0,0.0,0.0,0.0,0.0,0.0,0.0,0.0,0.0,0.0,0.0,0.0,0.0,0.0,0.0,0.0,0.0,0.0,0.0,0.0,0.0,0.0,0.0,0.0,0.0,0.0,0.0,0.0,0.0,-0.9394,-1.0215,-0.9462,-0.9412,-1.0197,-0.9412,-0.9059,0.0,0.0,0.0,0.0,0.0,0.0,0.0,0.0,0.0,0.0,0.0,0.0,0.0,0.0,0.0,0.0,0.0,0.0,0.0,0.0,0.0,0.0,0.0,0.0,0.0,0.0,0.0,0.0,0.0,0.0,0.0,0.0,0.0,0.0,0.0,0.0,0.0,0.0,0.0,0.0,0.0,0.0,0.0,0.0,0.0,0.0,0.0,0.0,0.0,0.0,0.0,0.0,0.0,0.0,0.0,0.0,0.0,0.0,0.0,0.0,0.0,0.0,0.0,0.0,0.0,0.0,0.0,0.0,0.0,0.0,0.0,0.0,0.0,0.0,0.0,0.0,0.0,0.0,0.0,0.0,0.0,0.0,0.0,0.0,0.0,0.0,0.0,0.0,0.0,0.0,0.0,0.0,0.0,0.0,0.0,0.0,0.0,0.0,0.0,0.0,0.0,0.0,0.0,0.0,0.0,0.0,0.0,0.0,0.0,-0.9335,0.0,-0.9734,-0.9412,-0.9691,-0.906,0.0,0.0,0.0,0.0,0.0,0.0,0.0,0.0,0.0,0.0,0.0,0.0,0.0,0.0,0.0,0.0,0.0,0.0,0.0,0.0,0.0,0.0,0.0,0.0,0.0,0.0,0.0,0.0,0.0,0.0,0.0,0.0,0.0,0.0,0.0,0.0,0.0,0.0,0.0,0.0,0.0,0.0,0.0,0.0,0.0,0.0,0.0,0.0,0.0,0.0,0.0,0.0,0.0,0.0,0.0,0.0,0.0,0.0,0.0,0.0,0.0,0.0,0.0,0.0,0.0,0.0,0.0,0.0,0.0,0.0,0.0,0.0,0.0,0.0,0.0,0.0,0.0,0.0,0.0,0.0,0.0,0.0,0.0,0.0,0.0,0.0,0.0,0.0,0.0,0.0,0.0,0.0,0.0,0.0,0.0,0.0,0.0,0.0,0.0,0.0,0.0,0.0,0.0,0.0,0.0,0.0,0.0,0.0,0.0,-0.8596,-0.9305,-0.9594,-0.945,-0.9749,-0.9097,0.0,0.0,0.0,0.0,0.0,0.0,0.0,0.0,0.0,0.0,0.0,0.0,0.0,0.0,0.0,0.0,0.0,0.0,0.0,0.0,0.0,0.0,0.0,0.0,0.0,0.0,0.0,0.0,0.0,0.0,0.0,0.0,0.0,0.0,0.0,0.0,0.0,0.0,0.0,0.0,0.0,0.0,0.0,0.0,0.0,0.0,0.0,0.0,0.0,0.0,0.0,0.0,0.0,0.0,0.0,0.0,0.0,0.0,0.0,0.0,0.0,0.0,0.0,0.0,0.0,0.0,0.0,0.0,0.0,0.0,0.0,0.0,0.0,0.0,0.0,0.0,0.0,0.0,0.0,0.0,0.0,0.0,0.0,0.0,0.0,0.0,0.0,0.0,0.0,0.0,0.0,0.0,0.0,0.0,0.0,0.0,0.0,0.0,0.0,0.0,0.0,0.0,0.0,0.0,0.0,0.0,0.0,0.0,0.0,-0.8109,-0.843,-0.9078,-1.0115,-0.9632,-0.9022,0.0,0.0,0.0,0.0,0.0,0.0,0.0,0.0,0.0,0.0,0.0,0.0,0.0,0.0,0.0,0.0,0.0,0.0,0.0,0.0,0.0,0.0,0.0,0.0,0.0,0.0,0.0,0.0,0.0,0.0,0.0,0.0,0.0,0.0,0.0,0.0,0.0,0.0,0.0,0.0,0.0,0.0,0.0,0.0,0.0,0.0,0.0,0.0,0.0,0.0,0.0,0.0,0.0,0.0,0.0,0.0,0.0,0.0,0.0,0.0,0.0,0.0,0.0,0.0,0.0,0.0,0.0,0.0,0.0,0.0,0.0,0.0,0.0,0.0,0.0,0.0,0.0,0.0,0.0,0.0,0.0,0.0,0.0,0.0,0.0,0.0,0.0,0.0,0.0,0.0,0.0,0.0,0.0,0.0,0.0,0.0,0.0,0.0,0.0,0.0,0.0,0.0,0.0,0.0,0.0,0.0,0.0,0.0,0.0,0.0,-0.8371,-0.8691,-0.9013,-0.8855,-0.8286,-0.7305,0.0,0.0,0.0,0.0,0.0,0.0,0.0,0.0,0.0,0.0,0.0,0.0,0.0,0.0,0.0,0.0,0.0,0.0,0.0,0.0,0.0,0.0,0.0,0.0,0.0,0.0,0.0,0.0,0.0,0.0,0.0,0.0,0.0,0.0,0.0,0.0,0.0,0.0,0.0,0.0,0.0,0.0,0.0,0.0,0.0,0.0,0.0,0.0,0.0,0.0,0.0,0.0,0.0,0.0,0.0,0.0,0.0,0.0,0.0,0.0,0.0,0.0,0.0,0.0,0.0,0.0,0.0,0.0,0.0,0.0,0.0,0.0,0.0,0.0,0.0,0.0,0.0,0.0,0.0,0.0,0.0,0.0,0.0,0.0,0.0,0.0,0.0,0.0,0.0,0.0,0.0,0.0,0.0,0.0,0.0,0.0,0.0,0.0,0.0,0.0,0.0,0.0,0.0,0.0,0.0,0.0,0.0,0.0,0.0,0.0,-0.8267,-0.8523,-0.8765,-0.8441,0.0,0.0,0.0,0.0,0.0,0.0,0.0,0.0,0.0,0.0,0.0,0.0,0.0,0.0,0.0,0.0,0.0,0.0,0.0,0.0,0.0,0.0,0.0,0.0,0.0,0.0,0.0,0.0,0.0,0.0,0.0,0.0,0.0,0.0,0.0,0.0,0.0,0.0,0.0,0.0,0.0,0.0,0.0,0.0,0.0,0.0,0.0,0.0,0.0,0.0,0.0,0.0,0.0,0.0,0.0,0.0,0.0,0.0,0.0,0.0,0.0,0.0,0.0,0.0,0.0,0.0,0.0,0.0,0.0,0.0,0.0,0.0,0.0,0.0,0.0,0.0,0.0,0.0,0.0,0.0,0.0,0.0,0.0,0.0,0.0,0.0,0.0,0.0,0.0,0.0,0.0,0.0,0.0,0.0,0.0,0.0,0.0,0.0,0.0,0.0,0.0,0.0,0.0,0.0,0.0,0.0,0.0,0.0,0.0,0.0,0.0,-0.7955,-0.8379,-0.8948,0.0,-0.8402,0.0,0.0,0.0,0.0,0.0,0.0,0.0,0.0,0.0,0.0,0.0,0.0,0.0,0.0,0.0,0.0,0.0,0.0,0.0,0.0,0.0,0.0,0.0,0.0,0.0,0.0,0.0,0.0,0.0,0.0,0.0,0.0,0.0,0.0,0.0,0.0,0.0,0.0,0.0,0.0,0.0,0.0,0.0,0.0,0.0,0.0,0.0,0.0,0.0,0.0,0.0,0.0,0.0,0.0,0.0,0.0,0.0,0.0,0.0,0.0,0.0,0.0,0.0,0.0,0.0,0.0,0.0,0.0,0.0,0.0,0.0,0.0,0.0,0.0,0.0,0.0,0.0,0.0,0.0,0.0,0.0,0.0,0.0,0.0,0.0,0.0,0.0,0.0,0.0,0.0,0.0,0.0,0.0,0.0,0.0,0.0,0.0,0.0,0.0,0.0,0.0,0.0,0.0,0.0,0.0,0.0,0.0,0.0,0.0,0.0,0.0,0.0,-0.8203,-0.826,-0.7254,0.0,0.0,0.0,0.0,0.0,0.0,0.0,0.0,0.0,0.0,0.0,0.0,0.0,0.0,0.0,0.0,0.0,0.0,0.0,0.0,0.0,0.0,0.0,0.0,0.0,0.0,0.0,0.0,0.0,0.0,0.0,0.0,0.0,0.0,0.0,0.0,0.0,0.0,0.0,0.0,0.0,0.0,0.0,0.0,0.0,0.0,0.0,0.0,0.0,0.0,0.0,0.0,0.0,0.0,0.0,0.0,0.0,0.0,0.0,0.0,0.0,0.0,0.0,0.0,0.0,0.0,0.0,0.0,0.0,0.0,0.0,0.0,0.0,0.0,0.0,0.0,0.0,0.0,0.0,0.0,0.0,0.0,0.0,0.0,0.0,0.0,0.0,0.0,0.0,0.0,0.0,0.0,0.0,0.0,0.0,0.0,0.0,0.0,0.0,0.0,0.0,0.0,0.0,0.0,0.0,0.0,0.0,0.0,0.0,0.0,-0.8607,-0.7218,-0.7838,-0.7752,-0.6854,0.0,0.0,0.0,0.0,0.0,0.0,0.0,0.0,0.0,0.0,0.0,0.0,0.0,0.0,0.0,0.0,0.0,0.0,0.0,0.0,0.0,0.0,0.0,0.0,0.0,0.0,0.0,0.0,0.0,0.0,0.0,0.0,0.0,0.0,0.0,0.0,0.0,0.0,0.0,0.0,0.0,0.0,0.0,0.0,0.0,0.0,0.0,0.0,0.0,0.0,0.0,0.0,0.0,0.0,0.0,0.0,0.0,0.0,0.0,0.0,0.0,0.0,0.0,0.0,0.0,0.0,0.0,0.0,0.0,0.0,0.0,0.0,0.0,0.0,0.0,0.0,0.0,0.0,0.0,0.0,0.0,0.0,0.0,0.0,0.0,0.0,0.0,0.0,0.0,0.0,0.0,0.0,0.0,0.0,0.0,0.0,0.0,0.0,0.0,0.0,0.0,0.0,0.0,0.0,0.0,0.0,0.0,0.0,0.0,0.0,0.0,0.0,0.0,0.0,-0.6738,0.0,0.0,0.0,0.0,0.0,0.0,0.0,0.0,0.0,0.0,0.0,0.0,0.0,0.0,0.0,0.0,0.0,0.0,0.0,0.0,0.0,0.0,0.0,0.0,0.0,0.0,0.0,0.0,0.0,0.0,0.0,0.0,0.0,0.0,0.0,0.0,0.0,0.0,0.0,0.0,0.0,0.0,0.0,0.0,0.0,0.0,0.0,0.0,0.0,0.0,0.0,0.0,0.0,0.0,0.0,0.0,0.0,0.0,0.0,0.0,0.0,0.0,0.0,0.0,0.0,0.0,0.0,0.0,0.0,0.0,0.0,0.0,0.0,0.0,0.0,0.0,0.0,0.0,0.0,0.0,0.0,0.0,0.0,0.0,0.0,0.0,0.0,0.0,0.0,0.0,0.0,0.0,0.0,0.0,0.0,0.0,0.0,0.0,0.0,0.0,0.0,0.0,0.0,0.0,0.0,0.0,0.0,0.0,0.0,0.0,0.0,0.0,0.0,0.0,0.0,0.0,0.0,0.0,0.0,0.0,0.0,0.0,0.0,0.0,0.0,0.0,0.0,0.0,0.0,0.0,0.0,0.0,0.0,0.0,0.0,0.0,0.0,0.0,0.0,0.0,0.0,0.0,0.0,0.0,0.0,0.0,0.0,0.0,0.0,0.0,0.0,0.0,0.0,0.0,0.0,0.0,0.0,0.0,0.0,0.0,0.0,0.0,0.0,0.0,0.0,0.0,0.0,0.0,0.0,0.0,0.0,0.0,0.0,0.0,0.0,0.0,0.0,0.0,0.0,0.0,0.0,0.0,0.0,0.0,0.0,0.0,0.0,0.0,0.0,0.0,0.0,0.0,0.0,0.0,0.0,0.0,0.0,0.0,0.0,0.0,0.0,0.0,0.0,0.0,0.0,0.0,0.0,0.0,0.0,0.0,0.0,0.0,0.0,0.0,0.0,0.0,0.0,0.0,0.0,0.0,0.0,0.0,0.0,0.0,0.0,0.0,0.0,0.0,0.0,0.0,0.0,0.0,0.0,0.0,0.0,0.0,0.0,0.0,0.0,0.0,0.0,0.0,0.0,0.0,0.0,0.0,0.0,0.0,0.0,0.0,0.0,0.0,0.0,0.0,0.0,0.0,0.0,0.0,0.0,0.0,0.0,0.0,0.0,0.0,0.0,0.0,0.0,0.0,0.0,0.0,0.0,0.0,0.0,0.0,0.0,0.0,0.0,0.0,0.0,0.0,0.0,0.0,0.0,0.0,0.0,0.0,0.0,0.0,0.0,0.0,0.0,0.0,0.0,0.0,0.0,0.0,0.0,0.0,0.0,0.0,0.0,0.0,0.0,0.0,0.0,0.0,0.0,0.0,0.0,0.0,0.0,0.0,0.0,0.0,0.0,0.0,0.0,0.0,0.0,0.0,0.0,0.0,0.0,0.0,0.0,0.0,0.0,0.0,0.0,0.0,0.0,0.0,0.0,0.0,0.0,0.0,0.0,0.0,0.0,0.0,0.0,0.0,0.0,0.0,0.0,0.0,0.0,0.0,0.0,0.0,0.0,0.0,0.0,0.0,0.0,0.0,0.0,0.0,0.0,0.0,0.0,0.0,0.0,0.0,0.0,0.0,0.0,0.0,0.0,0.0,0.0,0.0,0.0,0.0,0.0,0.0,0.0,0.0,0.0,0.0,0.0,0.0,0.0,0.0,0.0,0.0,0.0,0.0,0.0,0.0,0.0,0.0,0.0,0.0,0.0,0.0,0.0,0.0,0.0,0.0,0.0,0.0,0.0,0.0,0.0,0.0,0.0,0.0,0.0,0.0,0.0,0.0,0.0,0.0,0.0,0.0,0.0,0.0,0.0,0.0,0.0,0.0,0.0,0.0,0.0,0.0,0.0,0.0,0.0,0.0,0.0,0.0,0.0,0.0,0.0,0.0,0.0,0.0,0.0,0.0,0.0,0.0,0.0,0.0,0.0,0.0,0.0,0.0,0.0,0.0,0.0,0.0,0.0,0.0,0.0,0.0,0.0,0.0,0.0,0.0,0.0,0.0,0.0,0.0,0.0,0.0,0.0,0.0,0.0,0.0,0.0,0.0,0.0,0.0,0.0,0.0,0.0,0.0,0.0,0.0,0.0,0.0,0.0,0.0,0.0,0.0,0.0,0.0,0.0,0.0,0.0,0.0,0.0,0.0,0.0,0.0,0.0,0.0,0.0,0.0,0.0,0.0,0.0,0.0,0.0,0.0,0.0,0.0,0.0,0.0,0.0,0.0,0.0,0.0,0.0,0.0,0.0,0.0,0.0,0.0,0.0,0.0,0.0,0.0,0.0,0.0,0.0,0.0,0.0,0.0,0.0,0.0,0.0,0.0,0.0,0.0,0.0,0.0,0.0,0.0,0.0,0.0,0.0,0.0,0.0,0.0,0.0,0.0,0.0,0.0,0.0,0.0,0.0,0.0,0.0,0.0,0.0,0.0,0.0,0.0,0.0,0.0,0.0,0.0,0.0,0.0,0.0,0.0,0.0,0.0,0.0,0.0,0.0,0.0,0.0,0.0,0.0,0.0,0.0,0.0,0.0,0.0,0.0,0.0,0.0,0.0,0.0,0.0,0.0,0.0,0.0,0.0,0.0,0.0,0.0,0.0,0.0,0.0,0.0,0.0,0.0,0.0,0.0,0.0,0.0,0.0,0.0,0.0,0.0,0.0,0.0,0.0,0.0,0.0,0.0,0.0,0.0,0.0,0.0,0.0,0.0,0.0,0.0,0.0,0.0,0.0,0.0,0.0,0.0,0.0,0.0,0.0,0.0,0.0,0.0,0.0,0.0,0.0,0.0,0.0,0.0,0.0,0.0,0.0,0.0,0.0,0.0,0.0,0.0,0.0,0.0,0.0,0.0,0.0,0.0,0.0,0.0,0.0,0.0,0.0,0.0,0.0,0.0,0.0,0.0,0.0,0.0,0.0,0.0,0.0,0.0,0.0,0.0,0.0,0.0,0.0,0.0,0.0,0.0,0.0,0.0,0.0,0.0,0.0,0.0,0.0,0.0,0.0,0.0,0.0,0.0,0.0,0.0,0.0,0.0,0.0,0.0,0.0,0.0,0.0,0.0,0.0,0.0,0.0,0.0,0.0,0.0,0.0,0.0,0.0,0.0,0.0,0.0,0.0,0.0,0.0,0.0,0.0,0.0,0.0,0.0,0.0,0.0,0.0,0.0,0.0,0.0,0.0,0.0,0.0,0.0,0.0,0.0,0.0,0.0,0.0,0.0,0.0,0.0,0.0,0.0,0.0,0.0,0.0,0.0,0.0,0.0,0.0,0.0,0.0,0.0,0.0,0.0,0.0,0.0,0.0,0.0,0.0,0.0,0.0,0.0,0.0,0.0,0.0,0.0,0.0,0.0,0.0,0.0,0.0,0.0,0.0,0.0,0.0,0.0,0.0,0.0,0.0,0.0,0.0,0.0,0.0,0.0,0.0,0.0,0.0,0.0,0.0,0.0,0.0,0.0,0.0,0.0,0.0,0.0,0.0,0.0,0.0,0.0,0.0,0.0,0.0,0.0,0.0,0.0,0.0,0.0,0.0,0.0,0.0,0.0,0.0,0.0,0.0,0.0,0.0,0.0,0.0,0.0,0.0,0.0,0.0,0.0,0.0,0.0,0.0,0.0,0.0,0.0,0.0,0.0,0.0,0.0,0.0,0.0,0.0,0.0,0.0,0.0,0.0,0.0,0.0,0.0,0.0,0.0,0.0,0.0,0.0,0.0,0.0,0.0,0.0,0.0,0.0,0.0,0.0,0.0,0.0,0.0,0.0,0.0,0.0,0.0,0.0,0.0,0.0,0.0,0.0,0.0,0.0,0.0,0.0,0.0,0.0,0.0,0.0,0.0,0.0,0.0,0.0,0.0,0.0,0.0,0.0,0.0,0.0,0.0,0.0,0.0,0.0,0.0,0.0,0.0,0.0,0.0,0.0,0.0,0.0,0.0,0.0,0.0,0.0,0.0,0.0,0.0,0.0,0.0,0.0,0.0,0.0,0.0,0.0,0.0,0.0,0.0,0.0,0.0,0.0,0.0,0.0,0.0,0.0,0.0,0.0,0.0,0.0,0.0,0.0,0.0,0.0,0.0,0.0,0.0,0.0,0.0,0.0,0.0,0.0,0.0,0.0,0.0,0.0,0.0,0.0,0.0,0.0,0.0,0.0,0.0,0.0,0.0,0.0,0.0,0.0,0.0,0.0,0.0,0.0,0.0,0.0,0.0,0.0,0.0,0.0,0.0,0.0,0.0,0.0,0.0,0.0,0.0,0.0,0.0,0.0,0.0,0.0,0.0,0.0,0.0,0.0,0.0,0.0,0.0,0.0,0.0,0.0,0.0,0.0]}],[{"header":{"parameterUnit":"kt","parameterCategory":2,"dx":1,"dy":1,"la1":29.587661999999998,"la2":31.0,"lo1":-88.76705300000003,"lo2":-86.6583820000003,"nx":115,"ny":88,"refTime":"2022-10-12T06:00:00:Z","depth":0,"parameterNumber":2,"parameterNumberName":"V-component_of_WINDS"},"data":[6.4388,6.4471,6.6137,6.6269,6.5721,6.839,6.8047,6.5557,6.6863,6.6697,6.5851,6.5524,6.5207,6.4412,6.4388,6.5069,6.6912,6.6924,6.6889,6.6842,6.7356,6.7178,6.7041,6.7202,6.7964,6.8942,6.9781,7.0034,7.2268,7.2556,7.3032,7.5194,7.6336,7.7523,7.9309,8.0111,8.0096,8.0299,8.0561,8.1172,8.1624,8.1071,8.0299,8.0809,8.1508,8.1828,8.2265,8.3004,8.3277,8.3422,8.3353,8.3567,8.3829,8.4177,8.4177,8.4177,8.4177,8.4003,8.3644,8.3586,8.3033,8.3091,8.28,8.2539,8.2393,8.2509,8.1055,7.9514,7.9281,7.8903,7.8961,7.9601,7.9849,8.009,8.1057,8.2176,8.3278,8.3382,8.2561,8.1367,8.1324,8.3376,8.5306,8.6242,8.6242,8.5765,8.5022,8.5853,8.6582,8.6637,8.6757,8.6724,8.6724,8.6691,8.6691,8.6691,8.6691,8.6691,8.6691,8.6691,8.6691,8.6691,8.6691,8.6691,8.6691,8.6691,8.6691,8.6691,8.6691,8.6691,8.6691,8.6691,8.6691,8.6691,8.6691,6.4388,6.4388,6.4697,6.5557,6.7004,6.7675,6.738,6.7004,6.722,6.637,6.4765,6.4597,6.4451,6.4412,6.4388,6.453,6.4863,6.531,6.5087,6.5004,6.4979,6.5227,6.5227,6.5004,6.5368,6.6137,6.722,6.8496,6.9618,7.04,7.1412,7.3294,7.4321,7.5076,7.685,7.806,7.8787,7.899,7.9456,8.027,8.0008,7.9456,7.9543,7.9979,8.0664,8.0751,8.0677,8.0881,8.091,8.1113,8.1404,8.2277,8.312,8.3945,8.4003,8.3974,8.3916,8.3237,8.2829,8.2568,8.2015,8.1462,8.0997,8.0619,8.0212,7.9485,7.7988,7.7146,7.7146,7.7029,7.7058,7.7262,7.7262,7.7539,7.8844,8.0082,8.1026,8.179,7.986,7.7755,7.9222,8.1449,8.3376,8.5249,8.5395,8.5022,8.5136,8.6021,8.6615,8.6637,8.6385,8.6219,8.5564,8.6021,8.6691,8.6691,8.6691,8.6691,8.6691,8.6691,8.6691,8.6691,8.6691,8.6691,8.6691,8.6691,8.6691,8.6691,8.6691,8.6691,8.6691,8.6691,8.6691,8.6691,8.6691,6.4388,6.4388,6.4388,6.4921,6.5614,6.5696,6.5696,6.5696,6.5696,6.517,6.4388,6.4388,6.4388,6.4388,6.4388,6.4471,6.4471,6.4388,6.4388,6.4388,6.453,6.4388,6.4388,6.4555,6.4388,6.4471,6.5557,6.6162,6.6817,6.8047,6.9773,7.1538,7.3294,7.4607,7.6498,7.71,7.7478,7.7536,7.7914,7.8176,7.8089,7.7827,7.7972,7.8351,7.8874,7.9368,7.9543,8.0125,8.0241,8.0489,8.0357,8.1404,8.187,8.3324,8.3945,8.3741,8.2946,8.187,8.1566,8.1333,8.1159,8.0955,8.0576,7.9688,7.9165,7.8176,7.6652,7.6564,7.6564,7.6564,7.6564,7.6564,7.6564,7.6564,7.7627,7.8287,7.886,7.9456,7.8279,7.6635,7.7588,7.9688,8.1324,8.3137,8.3137,8.2775,8.4297,8.5054,8.6164,8.6691,8.6021,8.5338,8.3914,8.3823,8.5709,8.644,8.6582,8.6691,8.6691,8.6691,8.6691,8.6691,8.6691,8.6691,8.6691,8.6691,8.6691,8.6691,8.6691,8.6691,8.6691,8.6691,8.6691,8.6691,8.6691,6.4388,6.4388,6.4388,6.4388,6.4388,6.4388,6.4388,6.4388,6.4388,6.4388,6.4388,6.4388,6.4388,6.4388,6.4388,6.4388,6.4388,6.4388,6.4388,6.4388,6.4388,6.4388,6.4388,6.4388,6.4388,6.4388,6.4388,6.4697,6.5227,6.6219,6.7755,6.9722,7.1559,7.3459,7.5415,7.6594,7.6739,7.6797,7.6588,7.6131,7.6801,7.671,7.6564,7.7013,7.7333,7.8002,7.8292,7.8932,7.9252,7.9688,7.9776,7.9776,7.9761,8.1986,8.3015,8.2928,8.1579,8.0677,8.0183,7.995,7.963,7.9543,7.9194,7.8787,7.8205,7.7216,7.6664,7.6564,7.6564,7.6564,7.6564,7.6564,7.6564,7.6564,7.6746,7.6746,7.6816,7.6885,7.6885,7.6564,7.6564,7.7833,7.9324,8.0143,8.0272,8.1292,8.2745,8.3914,8.4875,8.4932,8.3972,8.3586,8.2164,8.2653,8.4965,8.6076,8.6495,8.6691,8.6691,8.6691,8.6691,8.6691,8.6691,8.6691,8.6691,8.6691,8.6691,8.6691,8.6691,8.6691,8.6691,8.6691,8.6691,8.6691,8.6691,6.4388,6.4388,6.4388,6.4388,6.4388,6.4388,6.4388,6.4388,6.4388,6.4388,6.4388,6.4388,6.4388,6.4388,6.4388,6.4388,6.4388,6.4388,6.4388,6.4388,6.4388,6.4388,6.4388,6.4388,6.4388,6.4388,6.4388,6.4388,6.4471,6.531,6.66,6.7675,6.9877,7.1785,7.3652,7.4899,7.5386,7.5114,7.4538,7.4538,7.57,7.6424,7.6564,7.6594,7.671,7.6826,7.6826,7.6896,7.6925,7.7391,7.774,7.8031,7.8321,7.9427,8.0386,8.0328,8.0183,7.9427,7.8903,7.87,7.8147,7.7594,7.6955,7.7158,7.7262,7.671,7.6594,7.6564,7.6564,7.6564,7.6564,7.6564,7.6564,7.6564,7.6564,7.6564,7.6564,7.6564,7.6564,7.6564,7.6564,7.6746,7.8316,8.0593,8.1039,8.0047,8.085,8.1947,8.2439,8.2132,8.1823,8.1823,8.1198,8.1449,8.3914,8.5909,8.6385,8.6691,8.6691,8.6691,8.6691,8.6691,8.6691,8.6691,8.6691,8.6691,8.6691,8.6691,8.6691,8.6691,8.6691,8.6691,8.6691,8.6691,8.6691,6.4388,6.4388,6.4388,6.4388,6.4388,6.4388,6.4388,6.4388,6.4388,6.4388,6.4388,6.4388,6.4388,6.4388,6.4388,6.4388,6.4388,6.4388,6.4388,6.4388,6.4388,6.4388,6.4388,6.4388,6.4388,6.4388,6.4388,6.4388,6.4755,6.5392,6.6244,6.7541,6.9411,7.0696,7.1456,7.2338,7.2859,7.2562,7.2487,7.3062,7.3854,7.4638,7.5629,7.6254,7.6564,7.6623,7.6623,7.6652,7.6652,7.6768,7.6925,7.7071,7.7216,7.742,7.8147,7.8321,7.8351,7.8002,7.7711,7.7507,7.7158,7.6809,7.6652,7.6564,7.6564,7.6564,7.6564,7.6564,7.6564,7.6564,7.6564,7.6564,7.6564,7.6564,7.6564,7.6564,7.6564,7.6564,7.6564,7.6564,7.6564,7.6564,7.7833,8.0207,8.1198,7.9983,7.9853,8.066,8.069,8.0078,7.9753,8.0013,7.9948,8.0207,8.3228,8.5597,8.6219,8.6691,8.6691,8.6691,8.6691,8.6691,8.6691,8.6691,8.6691,8.6691,8.6691,8.6691,8.6691,8.6691,8.6691,8.6691,8.6691,8.6691,8.6691,6.4388,6.4388,6.4388,6.4388,6.4388,6.4388,6.4388,6.4388,6.4388,6.4388,6.4388,6.4388,6.4388,6.4388,6.4388,6.4388,6.4388,6.4388,6.4388,6.4388,6.4388,6.4388,6.4388,6.4388,6.4388,6.4388,6.4388,6.4388,6.4672,6.545,6.63,6.6923,6.8285,6.9099,6.9228,6.8916,6.9255,6.9411,6.9722,7.0799,7.2038,7.3386,7.432,7.5458,7.6013,7.6564,7.6564,7.6564,7.6564,7.6564,7.6594,7.6594,7.6564,7.6564,7.6564,7.6564,7.6564,7.6564,7.6564,7.6594,7.6594,7.6594,7.6564,7.6564,7.6564,7.6564,7.6564,7.6564,7.6564,7.6564,7.6564,7.6564,7.6564,7.6564,7.6564,7.6564,7.6564,7.6564,7.6564,7.6564,7.6564,7.6635,7.6816,7.889,7.9688,7.9162,7.9029,7.9425,7.9294,7.8113,7.7735,7.8181,7.8384,7.8993,8.1761,8.5282,8.6021,8.6691,8.6691,8.6691,8.6691,8.6691,8.6691,8.6691,8.6691,8.6691,8.6691,8.6691,8.6691,8.6691,8.6691,8.6691,8.6691,8.6691,8.6691,6.4388,6.4388,6.4388,6.4388,6.4388,6.4388,6.4388,6.4388,6.4388,6.4388,6.4388,6.4388,6.4388,6.4388,6.4388,6.4388,6.4388,6.4388,6.4388,6.4388,6.4388,6.4388,6.4388,6.4388,6.4388,6.4388,6.4388,6.4388,6.4388,6.5004,6.4921,6.5227,6.6681,6.7275,6.6978,6.6519,6.6356,6.722,6.7595,6.8654,7.0263,7.1991,7.2914,7.4292,7.5286,7.6013,7.6564,7.6564,7.6564,7.6564,7.6564,7.6564,7.6564,7.6564,7.6564,7.6564,7.6564,7.6564,7.6564,7.6564,7.6564,7.6564,7.6564,7.6564,7.6564,7.6564,7.6564,7.6564,7.6564,7.6564,7.6564,7.6564,7.6564,7.6564,7.6564,7.6564,7.6564,7.6564,7.6564,7.6564,7.6564,7.6635,7.6746,7.6746,7.7833,7.7559,7.7803,7.8113,7.7939,7.6676,7.6856,7.7174,7.7559,7.8046,8.0723,8.4439,8.5732,8.6691,8.6691,8.6691,8.6691,8.6691,8.6691,8.6691,8.6691,8.6691,8.6691,8.6691,8.6691,8.6691,8.6691,8.6691,8.6691,8.6691,8.6691,6.4388,6.4388,6.4388,6.4388,6.4388,6.4388,6.4388,6.4388,6.4388,6.4388,6.4388,6.4388,6.4388,6.4388,6.4388,6.4388,6.4388,6.4388,6.4388,6.4388,6.4388,6.4388,6.4388,6.4388,6.4388,6.4388,6.4388,6.4388,6.4388,6.4388,6.4388,6.4555,6.5087,6.5532,6.5392,6.5087,6.4838,6.5227,6.586,6.66,6.8285,6.9671,7.1006,7.3016,7.4393,7.5286,7.6254,7.6564,7.6564,7.6564,7.6564,7.6564,7.6564,7.6564,7.6564,7.6564,7.6564,7.6564,7.6564,7.6564,7.6564,7.6564,7.6564,7.6564,7.6564,7.6564,7.6564,7.6564,7.6564,7.6564,7.6564,7.6564,7.6564,7.6564,7.6564,7.6564,7.6564,7.6564,7.6564,7.6564,7.6564,7.6564,7.6635,7.6564,7.6564,7.6564,7.6564,7.6705,7.6746,7.6635,7.6676,7.6856,7.7105,7.8593,8.1104,8.4233,8.5821,8.6549,8.6691,8.6691,8.6691,8.6691,8.6691,8.6691,8.6691,8.6691,8.6691,8.6691,8.6691,8.6691,8.6691,8.6691,8.6691,8.6691,8.6691,6.4388,6.4388,6.4388,6.4388,6.4388,6.4388,6.4388,6.4388,6.4388,6.4388,6.4388,6.4388,6.4388,6.4388,6.4388,6.4388,6.4388,6.4388,6.4388,6.4388,6.4388,6.4388,6.4388,6.4388,6.4388,6.4388,6.4388,6.4388,6.4388,6.4388,6.4388,6.4388,6.453,6.4388,6.4388,6.4388,6.4388,6.4388,6.453,6.531,6.7326,6.8443,7.0186,7.3358,7.4393,7.5386,7.6465,7.6564,7.6564,7.6564,7.6564,7.6564,7.6564,7.6564,7.6564,7.6564,7.6564,7.6564,7.6564,7.6564,7.6564,7.6564,7.6564,7.6564,7.6564,7.6564,7.6564,7.6564,7.6564,7.6564,7.6564,7.6564,7.6564,7.6564,7.6564,7.6564,7.6564,7.6564,7.6564,7.6564,7.6564,7.6564,7.6564,7.6564,7.6564,7.6564,7.6564,7.6564,7.6676,7.6676,7.7243,7.7214,7.8181,7.9657,8.1543,8.4555,8.644,8.6691,8.6691,8.6691,8.6691,8.6691,8.6691,8.6691,8.6691,8.6691,8.6691,8.6691,8.6691,8.6691,8.6691,8.6691,8.6691,8.6691,8.6691,6.4388,6.4388,6.4388,6.4388,6.4388,6.4388,6.4388,6.4388,6.4388,6.4388,6.4388,6.4388,6.4388,6.4388,6.4388,6.4388,6.4388,6.4388,6.4388,6.4388,6.4388,6.4388,6.4388,6.4388,6.4388,6.4388,6.4388,6.4388,6.4388,6.4388,6.4388,6.4388,6.4388,6.4388,6.4388,6.4388,6.4388,6.4388,6.4388,6.5392,6.6978,6.8654,7.0416,7.2812,7.4465,7.5629,7.6395,7.6564,7.6564,7.6564,7.6564,7.6564,7.6564,7.6564,7.6564,7.6564,7.6564,7.6564,7.6564,7.6564,7.6564,7.6564,7.6564,7.6564,7.6564,7.6564,7.6564,7.6564,7.6564,7.6564,7.6564,7.6564,7.6564,7.6564,7.6564,7.6564,7.6564,7.6564,7.6564,7.6564,7.6564,7.6564,7.6564,7.6564,7.6564,7.6564,7.6564,7.6676,7.6816,7.7283,7.8421,7.9029,8.0562,8.2162,8.4058,8.6021,8.6637,8.6691,8.6691,8.6691,8.6691,8.6691,8.6691,8.6691,8.6691,8.6691,8.6691,8.6691,8.6691,8.6691,8.6691,8.6691,8.6691,8.6691,8.6691,6.4388,6.4388,6.4388,6.4388,6.4388,6.4388,6.4388,6.4388,6.4388,6.4388,6.4388,6.4388,6.4388,6.4388,6.4388,6.4388,6.4388,6.4388,6.4388,6.4388,6.4388,6.4388,6.4388,6.4388,6.4388,6.4388,6.4388,6.4388,6.4388,6.4388,6.4388,6.4388,6.4388,6.4388,6.4388,6.4388,6.4388,6.4388,6.4388,6.4838,6.545,6.7355,6.9437,7.1532,7.3505,7.4999,7.6225,7.6564,7.6564,7.6564,7.6564,7.6564,7.6564,7.6564,7.6564,7.6564,7.6564,7.6564,7.6564,7.6564,7.6564,7.6564,7.6564,7.6564,7.6564,7.6564,7.6564,7.6564,7.6564,7.6564,7.6564,7.6564,7.6564,7.6564,7.6564,7.6564,7.6564,7.6564,7.6564,7.6564,7.6564,7.6564,7.6564,7.6564,7.6564,7.6564,7.6564,7.6635,7.6926,7.7803,7.8963,8.0404,8.1978,8.4175,8.6385,8.6582,8.6691,8.6691,8.6691,8.6691,8.6691,8.6691,8.6691,8.6691,8.6691,8.6691,8.6691,8.6691,8.6691,8.6691,8.6691,8.6691,8.6691,8.6691,8.6691,6.4388,6.4388,6.4388,6.4388,6.4388,6.4388,6.4388,6.4388,6.4388,6.4388,6.4388,6.4388,6.4388,6.4388,6.4388,6.4388,6.4388,6.4388,6.4388,6.4388,6.4388,6.4388,6.4388,6.4388,6.4388,6.4388,6.4388,6.4388,6.4388,6.4388,6.4388,6.4388,6.4388,6.4388,6.4388,6.4388,6.4388,6.4388,6.4388,6.4921,6.5392,6.7004,6.8733,7.1153,7.3136,7.4437,7.6154,7.6494,7.6564,7.6564,7.6564,7.6564,7.6564,7.6564,7.6564,7.6564,7.6564,7.6564,7.6564,7.6564,7.6564,7.6564,7.6564,7.6564,7.6564,7.6564,7.6564,7.6564,7.6564,7.6564,7.6564,7.6564,7.6564,7.6564,7.6564,7.6564,7.6564,7.6564,7.6564,7.6564,7.6564,7.6564,7.6564,7.6564,7.6564,7.6564,7.6564,7.6705,7.7174,7.7871,7.8963,8.0245,8.1605,8.3614,8.4116,8.5363,8.6691,8.6691,8.6691,8.6691,8.6691,8.6691,8.6691,8.6691,8.6691,8.6691,8.6691,8.6691,8.6691,8.6691,8.6691,8.6691,8.6691,8.6691,8.6691,6.4388,6.4388,6.4388,6.4388,6.4388,6.4388,6.4388,6.4388,6.4388,6.4388,6.4388,6.4388,6.4388,6.4388,6.4388,6.4388,6.4388,6.4388,6.4388,6.4388,6.4388,6.4388,6.4388,6.4388,6.4388,6.4388,6.4388,6.4388,6.4388,6.4388,6.4388,6.4388,6.4388,6.4388,6.4388,6.4388,6.4388,6.4388,6.4388,6.5227,6.6244,6.7461,6.8916,7.184,7.3062,7.4219,7.6154,7.6084,7.6113,7.6564,7.6564,7.6564,7.6564,7.6564,7.6564,7.6564,7.6564,7.6564,7.6564,7.6564,7.6564,7.6564,7.6564,7.6564,7.6564,7.6564,7.6564,7.6564,7.6564,7.6564,7.6564,7.6564,7.6564,7.6564,7.6564,7.6564,7.6564,7.6564,7.6564,7.6564,7.6564,7.6564,7.6564,7.6564,7.6564,7.6564,7.6564,7.6564,7.7134,7.791,7.8963,8.0082,8.1355,8.1512,8.1885,8.3882,8.5988,8.6691,8.6691,8.6691,8.6691,8.6691,8.6691,8.6691,8.6691,8.6691,8.6691,8.6691,8.6691,8.6691,8.6691,8.6691,8.6691,8.6691,8.6691,6.4388,6.4388,6.4388,6.4388,6.4388,6.4388,6.4388,6.4388,6.4388,6.4388,6.4388,6.4388,6.4388,6.4388,6.4388,6.4388,6.4388,6.4388,6.4388,6.4388,6.4388,6.4388,6.4388,6.4388,6.4388,6.4388,6.4388,6.4388,6.4388,6.4388,6.4388,6.4388,6.4388,6.4388,6.4388,6.4388,6.4388,6.4388,6.4388,6.4697,6.5475,6.6625,6.802,6.9229,7.0443,7.2113,7.3854,7.4393,7.5386,7.6183,7.6564,7.6564,7.6564,7.6564,7.6564,7.6564,7.6564,7.6564,7.6564,7.6564,7.6564,7.6564,7.6564,7.6564,7.6564,7.6564,7.6564,7.6564,7.6564,7.6564,7.6564,7.6564,7.6564,7.6564,7.6564,7.6564,7.6564,7.6564,7.6564,7.6564,7.6564,7.6564,7.6564,7.6564,7.6564,7.6564,7.6564,7.6564,7.7243,7.8046,7.9096,8.0241,8.037,7.9192,8.1071,8.3882,8.5564,8.6691,8.6691,8.6691,8.6691,8.6691,8.6691,8.6691,8.6691,8.6691,8.6691,8.6691,8.6691,8.6691,8.6691,8.6691,8.6691,8.6691,8.6691,6.4388,6.4388,6.4388,6.4388,6.4388,6.4388,6.4388,6.4388,6.4388,6.4388,6.4388,6.4388,6.4388,6.4388,6.4388,6.4388,6.4388,6.4388,6.4388,6.4388,6.4388,6.4388,6.4388,6.4388,6.4388,6.4388,6.4388,6.4388,6.4388,6.4388,6.4388,6.4388,6.4388,6.4388,6.4388,6.4388,6.4388,6.4388,6.4388,6.4388,6.4838,6.63,6.7914,6.8811,6.985,7.2086,7.3899,7.4219,7.4538,7.6183,7.6564,7.6564,7.6564,7.6564,7.6564,7.6564,7.6564,7.6564,7.6564,7.6564,7.6564,7.6564,7.6564,7.6564,7.6564,7.6564,7.6564,7.6564,7.6564,7.6564,7.6564,7.6564,7.6564,7.6564,7.6564,7.6564,7.6564,7.6564,7.6564,7.6564,7.6564,7.6564,7.6564,7.6564,7.6564,7.6564,7.6564,7.6564,7.7134,7.7735,7.869,7.9818,7.8623,7.7559,8.069,8.3999,8.5765,8.6691,8.6691,8.6691,8.6691,8.6691,8.6691,8.6691,8.6691,8.6691,8.6691,8.6691,8.6691,8.6691,8.6691,8.6691,8.6691,8.6691,8.6691,6.4388,6.4388,6.4388,6.4388,6.4388,6.4388,6.4388,6.4388,6.4388,6.4388,6.4388,6.4388,6.4388,6.4388,6.4388,6.4388,6.4388,6.4388,6.4388,6.4388,6.4388,6.4388,6.4388,6.4388,6.4388,6.4388,6.4388,6.4388,6.4388,6.4388,6.4388,6.4388,6.4388,6.4388,6.4388,6.4388,6.4388,6.4388,6.4388,6.4388,6.4613,6.5974,6.7809,6.9177,7.0082,7.1559,7.461,7.432,7.4538,7.6254,7.6564,7.6564,7.6564,7.6564,7.6564,7.6564,7.6564,7.6564,7.6564,7.6564,7.6564,7.6564,7.6564,7.6564,7.6564,7.6564,7.6564,7.6564,7.6564,7.6564,7.6564,7.6564,7.6564,7.6564,7.6564,7.6564,7.6564,7.6564,7.6564,7.6564,7.6564,7.6564,7.6564,7.6564,7.6564,7.6564,7.6564,7.6564,7.6746,7.6885,7.7559,7.7871,7.7065,7.7764,8.0336,8.3882,8.5676,8.6637,8.6691,8.6691,8.6691,8.6691,8.6691,8.6691,8.6691,8.6691,8.6691,8.6691,8.6691,8.6691,8.6691,8.6691,8.6691,8.6691,8.6691,6.4388,6.4388,6.4388,6.4388,6.4388,6.4388,6.4388,6.4388,6.4388,6.4388,6.4388,6.4388,6.4388,6.4388,6.4388,6.4388,6.4388,6.4388,6.4388,6.4388,6.4388,6.4388,6.4388,6.4388,6.4388,6.4388,6.4388,6.4388,6.4388,6.4388,6.4388,6.4388,6.4388,6.4388,6.4388,6.4388,6.4388,6.4388,6.4388,6.4388,6.4363,6.4814,6.5892,6.7834,6.8047,7.0135,7.3854,7.368,7.4638,7.5942,7.6564,7.6564,7.6564,7.6564,7.6564,7.6564,7.6564,7.6564,7.6564,7.6564,7.6564,7.6564,7.6564,7.6564,7.6564,7.6564,7.6564,7.6564,7.6564,7.6564,7.6564,7.6564,7.6564,7.6564,7.6564,7.6564,7.6564,7.6564,7.6564,7.6187,7.6564,7.6564,7.6564,7.6564,7.6564,7.6564,7.6564,7.6564,7.6564,7.6564,7.6564,7.6564,7.6885,7.7833,8.1008,8.4875,8.4875,8.6076,8.6691,8.6691,8.6691,8.6691,8.6691,8.6691,8.6691,8.6691,8.6691,8.6691,8.6691,8.6691,8.6691,8.6691,8.6691,8.6691,8.6691,6.4388,6.4388,6.4388,6.4388,6.4388,6.4388,6.4388,6.4388,6.4388,6.4388,6.4388,6.4388,6.4388,6.4388,6.4388,6.4388,6.4388,6.4388,6.4388,6.4388,6.4388,6.4388,6.4388,6.4388,6.4388,6.4363,6.4363,6.4388,6.4388,6.4339,6.4388,6.4363,6.4388,6.4388,6.4388,6.429,6.4388,6.4388,6.4388,6.4388,6.4388,6.4388,6.5532,6.722,6.8496,7.034,7.2914,7.3487,7.4465,7.6084,7.6564,7.6564,7.6564,7.6564,7.6564,7.6564,7.6564,7.6564,7.6564,7.6564,7.6564,7.6564,7.6564,7.6564,7.6564,7.6535,7.6564,7.6564,7.6564,7.6564,7.6564,7.6564,7.6564,7.6564,7.6564,7.6564,7.6564,7.6564,7.5733,7.4686,7.5588,7.6216,7.6361,7.6564,7.6564,7.6564,7.6564,7.6564,7.6564,7.6564,7.6564,7.6564,7.6705,7.9089,8.3554,8.4265,8.3554,8.5564,8.6691,8.6691,8.6691,8.6691,8.6691,8.6691,8.6691,8.6691,8.6691,8.6691,8.6691,8.6691,8.6691,8.6691,8.6691,8.6691,8.6691,6.4388,6.4388,6.4388,6.4388,6.4388,6.4388,6.4388,6.4388,6.4388,6.4388,6.4388,6.4388,6.4388,6.4388,6.4388,6.4388,6.4388,6.4388,6.4388,6.4388,6.4388,6.4388,6.4388,6.4363,6.4046,6.3972,6.3572,6.3474,6.3548,6.3767,6.3459,6.3703,6.3655,6.363,6.3581,6.3718,6.3532,6.3386,6.367,6.384,6.3938,6.4251,6.531,6.73,6.8575,7.0723,7.2766,7.3634,7.4465,7.6324,7.6564,7.6564,7.6564,7.6564,7.6564,7.6564,7.6564,7.6564,7.6564,7.6564,7.6564,7.6564,7.6564,7.6564,7.6274,7.6402,7.61,7.61,7.5983,7.6564,7.6606,7.5878,7.5896,7.5878,7.5704,7.5704,7.5733,7.546,7.4792,7.3668,7.4744,7.582,7.6245,7.6564,7.6564,7.6564,7.6198,7.5849,7.6274,7.6564,7.6477,7.6448,7.6647,8.0881,8.476,8.3137,8.3495,8.5877,8.6691,8.6691,8.6691,8.6691,8.6691,8.6691,8.6691,8.6691,8.6691,8.6691,8.6691,8.6691,8.6691,8.6691,8.6691,8.6691,8.6691,6.4388,6.4388,6.4388,6.4388,6.4388,6.4388,6.4388,6.4388,6.4388,6.4388,6.4388,6.4388,6.4388,6.4388,6.4388,6.4388,6.4388,6.4388,6.4241,6.4168,6.4094,6.3997,6.4046,6.3875,6.3337,6.162,6.1742,6.1742,6.1742,6.1546,6.1937,6.1644,6.1595,6.1888,6.1749,6.1546,6.1791,6.1961,6.2523,6.2864,6.2937,6.3728,6.4987,6.6618,6.7657,6.9429,7.1921,7.332,7.4364,7.6395,7.6564,7.6564,7.6564,7.6564,7.6564,7.6564,7.6303,7.6158,7.607,7.6274,7.6303,7.6564,7.6477,7.6053,7.5384,7.5413,7.4919,7.4599,7.4744,7.5896,7.6361,7.4908,7.3726,7.3494,7.3406,7.329,7.3319,7.329,7.3261,7.2592,7.297,7.3988,7.4879,7.578,7.6245,7.6419,7.5529,7.5151,7.6111,7.6506,7.6245,7.6158,7.7303,8.066,8.2194,8.1512,8.4439,8.6242,8.6691,8.6691,8.6691,8.6691,8.6691,8.6691,8.6691,8.6691,8.6691,8.6691,8.6691,8.6691,8.6691,8.6691,8.6691,8.6691,8.6691,6.3401,6.345,6.4036,6.4388,6.4388,6.4388,6.4388,6.4388,6.4388,6.4388,6.4388,6.4388,6.4388,6.4388,6.4388,6.4363,6.4388,6.4388,6.3987,6.3377,6.2791,6.2596,6.2547,6.2376,6.2157,6.1278,6.0961,6.101,6.101,6.1058,6.0888,6.101,6.1058,6.0863,6.101,6.1058,6.0936,6.1083,6.1522,6.1766,6.1791,6.2303,6.3307,6.3924,6.5219,6.6699,6.9574,7.1327,7.3353,7.4414,7.4615,7.4512,7.4657,7.5751,7.6477,7.6245,7.5529,7.457,7.457,7.4541,7.4599,7.4414,7.4541,7.4163,7.393,7.2767,7.1981,7.14,7.1923,7.329,7.4211,7.3116,7.2883,7.2708,7.2737,7.2708,7.2621,7.2127,7.1574,7.0905,7.0905,7.172,7.2592,7.3494,7.4037,7.4744,7.3901,7.3784,7.4802,7.4705,7.489,7.5834,7.7376,7.877,7.9857,8.1263,8.372,8.5233,8.5978,8.6691,8.644,8.6495,8.6637,8.6691,8.6691,8.6691,8.6691,8.6691,8.6691,8.6691,8.6691,8.6691,8.6691,8.6691,8.6691,6.1849,6.2327,6.323,6.3596,6.3679,6.3679,6.363,6.3606,6.363,6.3484,6.3548,6.363,6.3581,6.3499,6.3484,6.3572,6.3401,6.3352,6.3157,6.2205,6.1327,6.0912,6.0351,6.0351,6.0302,6.0229,6.0302,6.0302,6.0253,6.0107,6.0326,6.0229,6.0033,6.0302,6.0204,6.0058,6.0351,6.0399,6.057,6.0692,6.0741,6.0985,6.1284,6.1522,6.2759,6.4251,6.6251,6.9504,7.1698,7.2339,7.2223,7.1923,7.2418,7.4221,7.5413,7.5122,7.3755,7.2825,7.2767,7.2941,7.2767,7.2903,7.3057,7.2592,7.2301,7.0498,6.9364,6.9015,6.9044,7.0294,7.1632,7.1894,7.1661,7.1574,7.1632,7.172,7.172,7.1051,7.0178,6.9451,6.9189,6.9073,6.9277,7.1196,7.2069,7.265,7.265,7.2505,7.2447,7.2359,7.3086,7.4192,7.5744,7.7444,7.7761,7.7422,8.0544,8.3082,8.5257,8.6637,8.6164,8.6053,8.6495,8.6691,8.6691,8.6691,8.6691,8.6691,8.6691,8.6691,8.6691,8.6691,8.6691,8.6691,8.6691,5.9423,6.118,6.1327,6.1351,6.1289,6.1376,6.1435,6.1345,6.1571,6.1626,6.1571,6.1424,6.1668,6.1351,6.1846,6.1473,6.1473,6.1693,6.1424,6.1205,6.0888,6.0009,5.874,5.8618,5.8594,5.8545,5.8301,5.8398,5.8594,5.8447,5.8325,5.8545,5.8447,5.8301,5.8594,5.8447,5.8252,5.8618,5.9277,5.9619,5.9741,6.0277,6.057,6.0673,6.1301,6.2873,6.5817,6.8662,7.0132,7.0188,6.9693,6.9643,6.9858,7.1778,7.2999,7.2912,7.2679,7.2388,7.2563,7.233,7.2505,7.2388,7.2447,7.2301,7.1109,6.9916,6.8986,6.8986,6.8986,6.9247,6.9742,6.9567,6.9713,6.9829,6.9626,6.9451,6.9393,6.9306,6.916,6.9015,6.8986,6.8986,6.9044,6.9422,7.0236,7.1429,7.1429,7.1429,7.1458,7.0992,7.1429,7.2621,7.4229,7.5923,7.4896,7.389,7.7657,8.1844,8.4624,8.633,8.5857,8.588,8.6341,8.6691,8.6691,8.6691,8.6691,8.6691,8.6691,8.6691,8.6691,8.6691,8.6691,8.6691,8.6691,5.5649,5.6509,5.7083,5.7336,5.75,5.8667,5.92,5.9442,6.0428,6.101,6.101,6.101,6.101,6.101,6.0985,6.0985,6.101,6.101,6.0692,6.0253,6.0131,5.9301,5.8252,5.7886,5.7886,5.7886,5.7935,5.7886,5.7886,5.7886,5.7886,5.7886,5.7886,5.7886,5.7886,5.7886,5.791,5.7984,5.8301,5.8569,5.8594,5.9033,5.9228,5.9204,5.9357,6.0326,6.3343,6.6832,6.9011,6.92,6.9113,6.8986,6.9131,7.0091,7.0556,7.0556,7.0585,7.0614,7.0556,7.0585,7.0585,7.0585,7.0585,7.0294,6.9858,6.9422,6.8986,6.8986,6.8986,6.8986,6.8986,6.8986,6.8986,6.8986,6.8986,6.9015,6.9015,6.8986,6.8986,6.8986,6.8986,6.8986,6.9015,6.9015,6.9596,7.0178,7.0207,7.0411,7.0556,6.98,6.9713,7.1138,7.2674,7.2748,7.1865,7.2448,7.5426,8.0827,8.3918,8.5915,8.574,8.5674,8.6221,8.6637,8.6691,8.6691,8.6691,8.6691,8.6691,8.6691,8.6691,8.6691,8.6691,8.6691,8.6691,5.2093,5.2731,5.3535,5.3819,5.4069,5.5494,5.6207,5.6474,5.7821,5.8125,5.8403,5.853,5.8466,5.9322,5.9195,5.9685,5.998,6.0107,5.9741,5.9155,5.9106,5.8594,5.8032,5.7886,5.7886,5.7886,5.7886,5.7886,5.7886,5.7886,5.7886,5.7886,5.7886,5.7886,5.7886,5.7886,5.7886,5.7886,5.7935,5.7935,5.7959,5.7984,5.7886,5.7886,5.7984,5.8933,6.0882,6.4634,6.7334,6.879,6.8986,6.8986,6.8986,6.9102,6.9247,6.9218,6.9131,6.9073,6.9073,6.9131,6.9073,6.8986,6.9277,6.9015,6.8986,6.9015,6.9015,6.8986,6.8986,6.8986,6.8986,6.8986,6.8986,6.8986,6.8986,6.8986,6.8986,6.8986,6.8986,6.8986,6.8986,6.8986,6.8986,6.8986,6.9073,6.916,6.916,6.9247,6.9451,6.9044,6.9102,7.0265,7.0679,7.0004,7.0294,7.1433,7.4295,7.9895,8.2467,8.4223,8.4485,8.4616,8.5434,8.6571,8.6592,8.6691,8.6691,8.6691,8.6691,8.6691,8.6691,8.6691,8.6691,8.6691,8.6691,4.9681,5.1464,5.1631,5.152,5.152,5.1864,5.2091,5.196,5.2383,5.2712,5.2587,5.2938,5.3645,5.4868,5.5669,5.6771,5.7903,5.8325,5.8276,5.8179,5.813,5.8081,5.7935,5.7886,5.7886,5.7886,5.7886,5.7886,5.7886,5.7886,5.7886,5.7886,5.7886,5.7886,5.7886,5.7886,5.7886,5.7886,5.7886,5.7886,5.7886,5.7886,5.7986,5.8136,5.8186,5.9055,6.1041,6.3057,6.555,6.8414,6.8923,6.8986,6.8986,6.8986,6.8986,6.8986,6.8986,6.8986,6.8986,6.8986,6.8986,6.8986,6.8986,6.8986,6.8986,6.8986,6.8986,6.8986,6.8986,6.8986,6.8986,6.8986,6.8986,6.8986,6.8986,6.8986,6.8986,6.8986,6.8986,6.8986,6.8986,6.8986,6.8986,6.8986,6.8986,6.8986,6.8986,6.8986,6.8986,6.9015,6.9044,6.9282,6.9665,7.0038,7.213,7.3163,7.4346,7.8581,8.0034,8.1378,8.2025,8.275,8.3596,8.5467,8.6494,8.6625,8.6691,8.6691,8.6691,8.6691,8.6691,8.6691,8.6691,8.6691,8.6691,4.658,4.7331,4.7331,4.7331,4.7498,4.8943,4.9413,4.9658,5.0894,5.1479,5.1457,5.1479,5.2653,5.4303,5.4591,5.5842,5.7735,5.7886,5.7886,5.7886,5.7886,5.7886,5.7886,5.7886,5.7886,5.7886,5.7886,5.7886,5.7886,5.7886,5.7886,5.7886,5.7886,5.7886,5.7886,5.7886,5.7886,5.7886,5.7886,5.7886,5.7886,5.7886,5.8461,5.9473,5.9668,6.121,6.3796,6.359,6.4575,6.6792,6.8356,6.8923,6.8986,6.8986,6.8986,6.8986,6.8986,6.8986,6.8986,6.8986,6.8986,6.8986,6.8986,6.8986,6.8986,6.8986,6.8986,6.8986,6.8986,6.8986,6.8986,6.8986,6.8986,6.8986,6.8986,6.8986,6.8986,6.8986,6.8986,6.8986,6.8986,6.8986,6.8986,6.8986,6.8986,6.8986,6.8986,6.8986,6.8986,6.8986,6.9711,7.0052,6.9959,7.1294,7.3538,7.4626,7.5236,7.6754,7.8367,7.9574,8.0754,8.1662,8.2734,8.4593,8.5946,8.6012,8.6395,8.6461,8.6691,8.6691,8.6691,8.6691,8.6691,8.6691,8.6461,4.4146,4.423,4.4127,4.4211,4.4359,4.5792,4.6429,4.6674,4.8284,4.9097,4.9241,5.0099,5.1697,5.3341,5.4357,5.5842,5.7835,5.7886,5.7886,5.7886,5.7886,5.7886,5.7886,5.7886,5.7886,5.7886,5.7886,5.7886,5.7886,5.7886,5.7886,5.7886,5.7886,5.7886,5.7886,5.7886,5.7886,5.7886,5.7886,5.7886,5.7886,5.7886,5.8511,5.9668,5.9814,6.1515,6.4953,6.4615,6.4885,6.6077,6.7915,6.8986,6.8986,6.8986,6.8986,6.8986,6.8986,6.8986,6.8986,6.8986,6.8986,6.8986,6.8986,6.8986,6.8986,6.8986,6.8986,6.8986,6.8986,6.8986,6.8986,6.8986,6.8986,6.8986,6.8986,6.8986,6.8986,6.8986,6.8986,6.8986,6.8986,6.8986,6.8986,6.8986,6.8986,6.8986,6.8986,6.8986,6.8986,6.8986,6.9525,7.0905,7.1382,7.203,7.4124,7.5611,7.6261,7.7518,7.837,7.9253,8.0257,8.1231,8.2364,8.371,8.4828,8.5453,8.5848,8.6143,8.656,8.6691,8.6461,8.6494,8.6625,8.6461,8.6045,4.2635,4.2692,4.2578,4.273,4.2868,4.3091,4.2815,4.3168,4.3861,4.4478,4.4966,4.6973,4.9348,5.1552,5.3374,5.5671,5.7317,5.7544,5.7544,5.7569,5.7642,5.7642,5.7617,5.7666,5.7715,5.7739,5.7861,5.7886,5.7886,5.7886,5.7886,5.7886,5.7886,5.7886,5.7886,5.7886,5.7886,5.7886,5.7886,5.7886,5.7886,5.7886,5.8136,5.8261,5.8511,6.0251,6.3494,6.5155,6.5983,6.6435,6.8008,6.8923,6.8986,6.8986,6.8986,6.8986,6.8986,6.8986,6.8986,6.8986,6.8986,6.8986,6.8986,6.8986,6.8986,6.8986,6.8986,6.8986,6.8986,6.8986,6.8986,6.8986,6.8986,6.8986,6.8986,6.8986,6.8986,6.8986,6.8986,6.8986,6.8986,6.8986,6.8986,6.8986,6.8986,6.8986,6.8986,6.8986,6.8986,6.8986,6.9649,7.0905,7.2,7.2897,7.4734,7.6571,7.7311,7.7973,7.8335,7.8664,7.9568,7.9995,8.1014,8.2231,8.3349,8.4138,8.45,8.4861,8.5441,8.5605,8.6066,8.5967,8.5671,8.5309,8.5157,4.264,4.264,4.264,4.264,4.264,4.264,4.264,4.2578,4.2825,4.2939,4.3153,4.4497,4.6349,4.8657,5.1333,5.3659,5.5569,5.5714,5.569,5.569,5.569,5.569,5.5812,5.6446,5.6763,5.6861,5.752,5.7886,5.7886,5.7886,5.7886,5.7886,5.7886,5.7886,5.7886,5.7886,5.7886,5.7886,5.7886,5.791,5.7886,5.7886,5.8511,5.9741,6.0995,6.2784,6.5115,6.5717,6.666,6.7915,6.864,6.8986,6.8986,6.8986,6.8986,6.8986,6.8986,6.8986,6.8986,6.8986,6.8986,6.8986,6.8986,6.8986,6.8986,6.8986,6.8986,6.8986,6.8986,6.8986,6.8986,6.8986,6.8986,6.8986,6.8986,6.8986,6.8986,6.8986,6.8986,6.8986,6.8986,6.8986,6.8986,6.8986,6.8986,6.8986,6.8986,6.8986,6.8986,6.9049,6.9492,7.0935,7.2606,7.3799,7.5089,7.6724,7.7809,7.794,7.8236,7.8203,7.8516,7.8647,7.9305,8.0587,8.1606,8.2428,8.302,8.3349,8.348,8.3533,8.4059,8.4586,8.4158,8.3895,8.3579,4.1689,4.1708,4.1708,4.1708,4.1708,4.161,4.161,4.1727,4.1952,4.2085,4.2317,4.379,4.563,4.7651,4.9602,5.1526,5.3447,5.4331,5.464,5.464,5.464,5.464,5.4689,5.5299,5.5568,5.5739,5.6714,5.7495,5.7837,5.7886,5.7886,5.7886,5.7886,5.7886,5.7886,5.7886,5.7886,5.7886,5.7886,5.8261,5.8883,5.8932,5.9055,5.9741,6.1418,6.2967,6.4043,6.545,6.666,6.785,6.864,6.8986,6.8986,6.8986,6.8986,6.8986,6.8986,6.8986,6.8986,6.8986,6.8986,6.8986,6.8986,6.8986,6.8986,6.8986,6.8986,6.8986,6.8986,6.8986,6.8986,6.8986,6.8986,6.8986,6.8986,6.8986,6.8986,6.8986,6.8986,6.8986,6.8986,6.8986,6.8986,6.8986,6.8986,6.8986,6.8986,6.9271,6.9525,6.9773,7.0664,7.2318,7.3232,7.3879,7.5035,7.6826,7.7924,7.7973,7.7973,7.8006,7.8006,7.817,7.8236,7.9469,7.9782,8.0539,8.1442,8.1771,8.2165,8.2231,8.2625,8.2888,8.2198,8.2823,8.2461,4.0072,4.011,4.0072,4.0167,4.0091,4.0148,4.011,4.0282,4.087,4.1134,4.1541,4.4036,4.6372,4.7815,4.775,4.9273,5.1239,5.2993,5.3722,5.3957,5.4079,5.4274,5.4372,5.4421,5.4347,5.4225,5.5201,5.6275,5.7276,5.7495,5.7739,5.7666,5.7569,5.7691,5.7569,5.7544,5.7691,5.7544,5.7642,5.8536,6.0001,6.0209,5.9384,5.8584,5.9801,6.0931,6.1299,6.4193,6.6051,6.6051,6.7756,6.8724,6.8753,6.8666,6.8724,6.8928,6.884,6.8724,6.8695,6.8608,6.8637,6.8695,6.852,6.8724,6.8462,6.8462,6.8462,6.8724,6.8782,6.8986,6.8986,6.8753,6.8637,6.8579,6.8666,6.8637,6.8695,6.8549,6.8869,6.8811,6.8898,6.8986,6.8986,6.8986,6.8986,6.8986,6.8986,6.9334,7.0299,7.0785,7.1911,7.3594,7.4093,7.4014,7.5526,7.7047,7.7842,7.7973,7.7973,7.7973,7.7973,7.7973,7.7973,7.817,7.8499,7.9026,7.9699,8.0225,8.0587,8.0916,8.1244,8.1376,8.0916,8.1672,8.1343,4.0072,4.0072,4.0072,4.0072,4.0072,4.0072,4.0072,4.011,4.0301,4.0338,4.0491,4.1833,4.2598,4.2623,4.2648,4.4398,4.7083,4.7866,4.8794,4.9849,5.0003,4.9963,5.0036,5.0687,5.1077,5.1272,5.2341,5.3001,5.3318,5.3932,5.4762,5.5446,5.5519,5.5519,5.5519,5.5543,5.5519,5.5616,5.6251,5.6886,5.7345,5.7191,5.7963,5.9562,6.0457,6.1267,6.209,6.4143,6.5346,6.5407,6.5893,6.6194,6.6165,6.5583,6.6336,6.852,6.7241,6.6194,6.6194,6.6194,6.6194,6.6194,6.6194,6.6165,6.6194,6.6194,6.6194,6.631,6.7939,6.884,6.8869,6.791,6.6921,6.6281,6.6194,6.6165,6.631,6.7095,6.7622,6.7739,6.8479,6.8986,6.8986,6.8986,6.9054,6.9116,6.9083,6.9208,6.9492,6.9867,7.0421,7.1939,7.3176,7.443,7.6794,7.7743,7.7842,7.7973,7.7973,7.7973,7.7973,7.7973,7.7973,7.7973,7.7973,7.8302,7.8713,7.868,7.8861,7.9058,7.9124,7.9124,7.9519,7.9223,7.8993,3.9045,3.9026,3.9026,3.9026,3.9045,3.9026,3.9045,3.9026,3.9026,3.9026,3.9102,3.9484,4.0731,4.2363,4.1688,4.3344,4.663,4.6718,4.7227,4.8145,4.8208,4.8208,4.8295,4.8905,4.9125,4.9223,5.0247,5.0801,5.0997,5.1926,5.2976,5.3908,5.4445,5.464,5.464,5.464,5.464,5.464,5.525,5.5611,5.5798,5.5669,5.6749,5.898,6.0284,6.1082,6.1816,6.3931,6.5118,6.5118,6.5118,6.4652,6.3605,6.41,6.5292,6.7066,6.5961,6.5118,6.5118,6.5118,6.5118,6.5118,6.5118,6.5118,6.5118,6.4129,6.3489,6.3722,6.4943,6.6307,6.7124,6.6194,6.529,6.5205,6.5118,6.5147,6.5177,6.6326,6.7005,6.7123,6.8249,6.9081,6.9111,6.9003,6.9257,6.9857,7.0605,7.1264,7.1737,7.1707,7.2348,7.365,7.467,7.6145,7.7413,7.7973,7.7973,7.7973,7.7973,7.7973,7.7973,7.7973,7.7973,7.7973,7.7973,7.7973,7.7973,7.7973,7.7973,7.8071,7.8006,7.7973,7.7973,7.7973,7.7973,3.751,3.7472,3.7548,3.7472,3.7548,3.7529,3.7548,3.7548,3.7491,3.7505,3.7282,3.7334,3.9921,4.3976,4.2794,4.4017,4.7332,4.7679,4.7693,4.7794,4.7954,4.7891,4.7769,4.7842,4.7867,4.7964,4.8783,4.9101,4.9198,5.0386,5.151,5.2468,5.364,5.4128,5.4274,5.4274,5.4299,5.4347,5.4366,5.4653,5.5248,5.5003,5.5604,5.7233,5.8867,5.9889,6.0144,6.301,6.4594,6.474,6.4681,6.3634,6.1775,6.3314,6.4594,6.474,6.4478,6.4391,6.4332,6.4507,6.442,6.4594,6.4507,6.4594,6.4536,6.2327,6.0932,6.1397,6.1339,6.2559,6.4361,6.4012,6.3809,6.4332,6.4507,6.4769,6.4741,6.588,6.6792,6.6819,6.7783,6.8967,6.9086,6.9066,6.9559,7.0521,7.1607,7.2829,7.3794,7.4201,7.5069,7.6769,7.7382,7.7415,7.7924,7.7973,7.7973,7.7973,7.7973,7.7973,7.7973,7.7973,7.7973,7.7973,7.7973,7.7973,7.7973,7.7973,7.7973,7.7973,7.7973,7.7973,7.7973,7.7973,7.8086,3.7472,3.7472,3.7472,3.7472,3.7472,3.7472,3.7472,3.7472,3.7543,3.677,3.5669,3.5574,3.6897,3.9143,3.8885,4.0593,4.3526,4.3878,4.4485,4.5589,4.5649,4.5625,4.5649,4.5649,4.5649,4.5698,4.5868,4.599,4.6112,4.7173,4.788,4.8246,4.9955,5.1364,5.2194,5.2219,5.2219,5.2213,5.2387,5.3171,5.4478,5.2845,5.246,5.359,5.4639,5.5898,5.769,5.9569,6.1019,6.2007,6.2094,6.1862,6.1281,6.0816,6.1075,6.1775,6.0319,5.9268,5.9272,6.0057,6.061,6.061,6.1484,6.2094,6.192,5.9824,5.9126,6.0874,6.1135,6.1455,6.2036,6.1949,6.1891,6.2036,6.2094,6.2381,6.2267,6.3254,6.4382,6.5432,6.5954,6.7154,6.8587,6.9126,6.9433,6.9946,7.0954,7.184,7.2324,7.3309,7.4507,7.5548,7.5326,7.5556,7.7611,7.794,7.7973,7.7973,7.794,7.7874,7.7973,7.7973,7.7973,7.7973,7.7973,7.7973,7.7973,7.7973,7.7973,7.7973,7.7973,7.7973,7.7973,7.7973,7.815,3.6352,3.6352,3.6352,3.6371,3.6352,3.6352,3.6352,3.6489,3.7976,3.8522,3.8345,3.7642,3.8641,4.0747,4.0149,4.1201,4.363,4.363,4.4129,4.4893,4.4893,4.4893,4.4893,4.4893,4.4893,4.4893,4.4893,4.4893,4.4967,4.5562,4.6148,4.6709,4.7758,4.9189,5.063,5.0728,5.1278,5.2553,5.2912,5.362,5.4614,5.2871,5.2546,5.3866,5.4196,5.5094,5.6352,5.771,5.8516,5.8636,5.8636,5.8399,5.7818,5.7672,5.8196,5.9417,5.8225,5.7497,5.7285,5.7994,5.8487,5.8516,5.9156,5.9563,5.9563,5.8283,5.7585,5.7789,5.9973,6.1223,6.1223,6.1278,6.1516,6.2071,6.2717,6.307,6.3243,6.4295,6.5263,6.5794,6.6555,6.7631,6.9036,6.925,6.9557,7.1073,7.1187,7.1748,7.2437,7.3172,7.3905,7.4566,7.4208,7.4636,7.6181,7.7282,7.7907,7.7973,7.7446,7.7282,7.7874,7.7973,7.7973,7.7973,7.7973,7.7973,7.7973,7.794,7.7973,7.7973,7.7973,7.7973,7.7973,7.7973,7.8311,3.5156,3.5315,3.5315,3.5447,3.5691,3.571,3.5691,3.5953,3.8789,4.0831,4.214,4.0646,4.1691,4.4483,4.3188,4.3451,4.4893,4.4893,4.4893,4.4893,4.4893,4.4893,4.4893,4.4893,4.4893,4.4893,4.4893,4.4893,4.4893,4.4918,4.5381,4.6318,4.6563,4.7563,4.9198,4.9871,5.1292,5.3686,5.3873,5.4263,5.4776,5.3346,5.3269,5.4664,5.4685,5.4851,5.5055,5.6073,5.6276,5.5375,5.5317,5.4444,5.2776,5.4124,5.5636,5.6881,5.6803,5.6516,5.6253,5.6667,5.7036,5.723,5.7434,5.748,5.7286,5.7008,5.5962,5.4145,5.7527,6.0264,6.0723,6.0599,6.0851,6.1906,6.3235,6.4141,6.3993,6.4979,6.5723,6.6403,6.7816,6.8499,6.9036,6.9211,7.0094,7.2033,7.1496,7.1685,7.2695,7.3222,7.3156,7.3321,7.3222,7.334,7.4011,7.5852,7.6953,7.7381,7.6214,7.5852,7.6806,7.6854,7.6723,7.7216,7.7216,7.7381,7.7446,7.7578,7.7578,7.7973,7.7973,7.7973,7.7973,7.7781,7.8001,3.5841,3.7083,3.7083,3.7898,3.9147,3.9147,3.9147,3.921,3.9775,0.0,0.0,4.0211,4.1162,4.2948,4.273,4.3451,4.4835,4.4893,4.4893,4.4893,4.4893,4.4893,4.4893,4.4893,4.4893,4.4893,4.4893,4.4893,4.4893,4.4893,4.5015,4.5283,4.6221,4.6855,4.7393,5.0302,5.226,5.3094,5.2186,5.2392,5.3733,5.1561,5.05,5.0809,5.0809,5.1303,5.2321,5.2612,5.3155,5.3941,5.397,5.1961,4.7668,5.0489,5.3009,5.4165,5.3114,5.247,5.2673,5.352,5.4587,5.5833,5.6887,5.7082,5.6028,5.456,5.3658,5.365,5.4465,5.5891,5.7987,5.7745,5.7482,5.7709,5.797,5.871,5.9777,6.0117,6.207,6.5628,6.5878,6.6506,6.8806,6.9233,6.9496,6.9857,6.9967,7.0197,7.1348,7.0953,7.069,7.1545,7.1052,7.0186,7.0613,7.2663,7.4274,7.4603,7.434,7.4143,7.4208,7.3682,7.3518,7.4537,7.5096,7.5458,7.5556,7.5425,7.6082,7.7644,7.7973,7.7973,7.7889,7.7368,7.7029,3.6661,3.7927,3.801,3.8783,0.0,4.0025,4.0397,4.0919,4.0896,4.0896,4.0919,4.0919,4.1384,4.218,4.218,4.258,4.3366,4.3366,4.3309,4.3341,4.3366,4.3285,4.3341,4.3341,4.3341,4.3309,4.3341,4.3341,4.3309,4.3285,4.3598,4.4186,4.479,4.5402,4.6097,4.845,5.0203,5.1402,5.1402,5.151,5.1652,5.0431,4.9762,4.9762,4.9762,0.0,0.0,0.0,0.0,0.0,0.0,0.0,0.0,4.898,0.0,5.1209,5.034,5.0132,5.0854,5.0862,5.1146,5.1936,5.3223,5.3103,5.1034,5.0481,5.0934,5.2562,5.307,5.4274,5.6637,5.6766,5.6874,5.7504,5.82,5.8871,5.9509,5.9668,6.0208,6.1329,6.2142,6.4476,6.8641,6.9233,6.9233,6.9233,6.9233,6.9496,7.0098,6.966,6.9364,7.0164,6.9594,6.9233,6.9364,7.0613,7.173,7.3222,7.3058,7.2926,7.3551,7.3255,7.3058,7.3584,7.4044,7.3748,7.2564,7.2059,7.3274,7.6821,7.7973,7.7836,7.7334,7.7316,7.7416,3.7469,3.8521,3.8602,3.9303,4.0397,4.0397,4.0919,4.1755,4.1755,4.1755,4.1755,4.1755,4.1755,4.1755,4.1755,4.1755,4.1755,4.1755,4.1755,4.1755,4.1755,4.1755,4.1755,4.1755,4.1755,4.1755,4.1755,4.1755,4.1755,4.1755,4.2403,4.3522,4.3522,4.4173,4.5448,0.0,0.0,0.0,5.0576,5.046,4.9425,4.9151,4.9035,4.899,4.9064,0.0,4.9396,5.0401,5.0576,4.982,4.9341,0.0,0.0,0.0,0.0,0.0,0.0,0.0,0.0,0.0,0.0,0.0,4.8032,4.7816,4.5592,4.6234,4.8201,5.1522,5.2366,5.3474,5.5327,5.5469,5.59,5.7134,5.8262,5.9084,5.938,5.931,5.8426,5.5864,5.7542,6.1517,6.782,6.9233,6.9233,6.92,6.8937,6.8806,6.8806,6.8718,6.8806,6.9167,6.9299,6.9233,6.9233,6.9266,7.0284,7.1861,7.1742,7.1635,7.2717,7.2993,7.308,7.3395,7.3395,7.2587,7.0429,6.978,7.1604,7.6145,7.7436,7.74,7.652,7.6987,7.7586,3.7713,3.9105,3.9162,4.01,4.154,4.154,4.1671,4.1755,4.1755,4.1755,4.1755,4.1755,4.1755,4.1755,4.1755,4.1755,4.1755,4.1755,4.1755,4.1755,4.1755,4.1755,4.1755,4.1755,4.1755,4.1755,4.1755,4.1755,4.1755,4.1755,4.2378,4.347,4.3522,4.4173,4.5442,4.5829,4.7259,4.9733,4.8786,4.8263,4.806,4.697,4.6359,4.6359,4.6359,4.6941,4.8002,4.8234,4.8757,4.9733,5.0372,5.1282,5.2286,4.6338,4.3582,0.0,4.359,0.0,0.0,0.0,0.0,0.0,0.0,0.0,0.0,4.3105,4.613,5.1423,5.198,5.2143,5.2409,5.1359,5.1195,5.2541,5.2903,5.3527,5.4709,5.4874,5.4249,5.2673,5.2771,5.7243,6.7064,6.9233,6.92,6.8937,6.7948,6.7101,6.728,6.696,6.7299,6.9036,6.9233,6.909,6.888,6.909,6.9364,6.966,6.9726,6.9877,7.095,7.1215,7.1501,7.2298,7.2555,7.2426,7.2023,7.1886,7.2495,7.4115,7.5526,7.6082,7.5293,7.5195,7.5594,3.852,3.9841,3.9787,3.9827,3.9949,3.9949,3.9949,3.9949,3.9949,3.9949,3.9949,3.9949,3.9656,3.9117,3.9705,3.9656,3.9193,3.9705,3.9949,3.9949,3.9949,3.9949,3.9925,3.9949,4.0338,4.1004,4.0311,4.0673,4.1935,4.1384,4.2395,4.4925,4.4209,4.4476,4.5682,4.6535,4.7508,4.867,4.8118,4.7479,4.6752,4.6184,4.5864,4.5906,4.6459,4.7012,4.7605,4.889,4.9812,5.0415,5.1531,5.2154,5.2243,4.7827,4.4863,0.0,0.0,0.0,0.0,0.0,0.0,0.0,0.0,0.0,0.0,0.0,4.1444,4.2832,4.6947,4.9514,4.9547,5.0019,5.0231,5.0061,5.0091,5.0176,5.0467,5.1161,5.1127,4.9712,5.0929,5.3856,5.8887,6.2405,6.5035,6.6646,6.4945,6.3661,6.4018,6.435,6.4559,6.5167,6.7392,6.8514,6.5904,6.7591,6.9233,6.9156,6.8717,6.8382,6.8871,7.0314,7.1769,7.2219,7.2329,7.2585,7.3731,7.393,7.4048,7.4256,7.3463,7.1881,7.0326,7.1388,7.2636,3.8997,3.9781,3.9292,3.8704,3.8119,3.8143,3.8265,3.8485,3.8485,3.8363,3.8143,3.8143,3.7362,3.6264,3.7021,3.7094,3.6583,3.7411,3.7997,3.846,3.8241,3.8265,3.8485,3.8834,3.9451,4.0327,3.972,4.0346,4.2036,4.0988,4.2031,4.4909,4.4124,4.43,4.5457,4.6694,4.7362,4.7362,4.7914,4.7517,4.6269,4.65,4.6623,4.6593,4.7409,4.7955,4.8289,4.9999,5.1064,5.1405,5.2181,5.2415,5.1884,4.7244,0.0,0.0,0.0,0.0,0.0,0.0,0.0,0.0,0.0,3.3974,3.3168,0.0,3.5897,0.0,4.2204,4.7464,4.8525,4.9037,0.0,0.0,4.7894,4.761,4.7475,4.8336,4.8703,4.8144,4.97,5.1159,5.1785,5.6388,6.0551,6.2986,6.1228,6.0089,6.1329,6.119,6.098,6.224,6.5239,6.6095,6.2467,6.5232,6.811,6.7772,6.6938,6.6444,6.6682,6.8818,7.0512,7.0719,7.0753,7.1291,7.248,7.2529,7.2287,7.2601,7.0032,6.7062,6.6036,6.7677,6.9453,3.8534,3.846,3.6557,3.6288,3.7046,3.7046,3.7557,3.8485,3.846,3.7923,3.707,3.707,3.5971,3.4112,3.4185,0.0,3.5532,3.5535,3.6655,3.8436,3.7484,3.7557,3.851,3.9696,4.0352,4.0471,4.1412,4.199,4.2121,4.0975,4.114,4.2461,4.2366,4.2964,4.4247,4.547,4.6039,4.6039,4.8151,4.8631,4.736,4.8268,4.8763,4.8694,4.8838,4.9459,5.0544,5.0847,5.1498,5.2614,5.2237,5.1949,5.1587,0.0,0.0,0.0,0.0,0.0,0.0,0.0,0.0,0.0,0.0,0.0,0.0,0.0,0.0,3.1681,4.0024,0.0,5.1157,4.7793,0.0,0.0,0.0,4.554,4.6913,4.6761,4.7261,4.9198,0.0,0.0,5.1555,5.4713,5.7248,5.8837,5.7702,5.7693,6.0353,5.7521,5.683,6.169,6.3026,6.1763,5.8264,6.1932,6.5041,6.3568,6.323,6.3617,6.4437,6.5137,6.5393,6.6351,6.6251,6.6367,6.6411,6.5037,6.4181,6.6143,6.4706,6.3671,6.5114,6.5998,6.6524,3.5849,3.4511,3.3775,3.3609,3.3975,3.3999,3.4653,3.57,3.5654,3.5434,3.502,3.4336,3.3238,3.1749,3.0496,0.0,0.0,0.0,3.5465,3.7656,3.7799,3.8502,3.9724,4.0915,4.1512,4.1486,4.1971,4.2621,4.3337,4.2106,4.0176,3.7585,0.0,3.8907,4.1802,4.4385,4.6034,4.6878,4.913,4.9679,4.8383,4.8801,4.8988,4.8988,4.9609,5.0184,5.0649,5.0358,5.0231,5.0146,4.9624,4.7174,0.0,0.0,0.0,0.0,0.0,0.0,0.0,0.0,0.0,0.0,0.0,2.9094,2.8519,0.0,0.0,0.0,3.6379,4.285,4.8462,4.6004,0.0,0.0,0.0,0.0,0.0,0.0,0.0,4.1448,4.3966,4.8025,5.3801,5.5613,5.6539,5.7129,5.6739,5.6587,5.7261,0.0,5.6156,5.7936,5.8595,5.8293,5.6695,5.845,5.9825,5.9042,6.0428,6.1848,6.2373,6.3958,6.5227,6.5601,6.5715,6.4538,6.0756,5.9413,5.9163,5.99,6.0382,6.0904,6.1697,6.4587,6.6768,3.1684,0.0,0.0,0.0,0.0,3.0749,3.14,3.2426,3.2618,3.2488,3.1937,3.1268,0.0,0.0,0.0,0.0,0.0,0.0,3.3432,3.5861,3.6964,3.8137,3.9371,4.0515,4.1051,4.1066,4.1091,4.1356,4.1842,4.0353,3.7357,3.3103,0.0,0.0,0.0,0.0,4.5094,4.6239,4.9538,5.0725,4.9463,4.9687,4.9831,4.9831,5.0536,5.072,5.0299,4.972,4.8687,4.7155,4.5609,0.0,0.0,0.0,0.0,0.0,0.0,0.0,0.0,0.0,0.0,0.0,0.0,0.0,0.0,0.0,0.0,0.0,0.0,0.0,4.3938,4.262,4.1186,0.0,0.0,0.0,0.0,0.0,0.0,0.0,0.0,0.0,5.5258,5.6346,5.6346,0.0,0.0,5.5721,5.5753,5.6093,5.622,5.5801,5.6128,0.0,5.6709,5.6787,5.6703,5.639,5.8188,5.9757,5.9919,6.1603,6.2996,6.2688,6.2904,6.146,5.6553,5.538,5.5635,5.6243,5.6948,5.7567,5.775,6.0473,6.3295,0.0,0.0,0.0,0.0,2.7537,0.0,0.0,0.0,2.9802,2.9165,0.0,2.8126,0.0,0.0,0.0,0.0,2.6747,2.8131,0.0,0.0,3.4411,3.5645,3.6682,3.7874,3.8412,3.8445,3.8416,3.7797,3.6504,3.4521,0.0,0.0,0.0,0.0,0.0,0.0,4.2618,4.3129,4.9028,5.1627,5.0562,5.132,5.1785,5.1785,5.1818,5.1226,4.9813,4.8871,4.7089,4.4142,4.0083,0.0,0.0,0.0,0.0,0.0,0.0,0.0,0.0,0.0,0.0,0.0,0.0,0.0,0.0,0.0,0.0,0.0,0.0,0.0,0.0,3.7141,0.0,0.0,0.0,0.0,0.0,0.0,0.0,0.0,0.0,4.641,5.482,5.6176,5.6346,5.631,0.0,0.0,0.0,0.0,5.6545,5.6998,5.666,5.6688,5.7551,5.7727,5.7389,5.6545,0.0,0.0,5.7198,5.6954,5.6553,5.5728,5.64,5.59,5.3395,5.2828,5.3658,5.575,5.4547,5.3215,5.3137,5.3908,5.4526,0.0,0.0,0.0,0.0,0.0,0.0,0.0,0.0,0.0,2.7084,2.6487,2.5897,0.0,0.0,0.0,0.0,0.0,0.0,0.0,0.0,3.1935,3.32,3.4457,3.602,3.6315,3.5581,3.6373,3.4197,0.0,0.0,0.0,0.0,0.0,0.0,0.0,0.0,4.0399,4.239,4.7813,5.0474,5.0084,5.126,5.1916,5.1916,5.2397,5.169,4.9665,4.6421,4.3823,0.0,0.0,0.0,0.0,0.0,0.0,0.0,0.0,0.0,0.0,0.0,0.0,0.0,0.0,0.0,0.0,0.0,0.0,0.0,0.0,0.0,0.0,0.0,3.5511,0.0,0.0,0.0,0.0,0.0,0.0,0.0,0.0,0.0,4.4684,5.0441,5.3874,5.3399,5.4175,5.5077,5.5766,0.0,0.0,0.0,0.0,0.0,0.0,0.0,5.8315,5.7407,5.9006,5.9082,5.5038,5.4223,5.3987,5.3743,0.0,0.0,4.8342,4.88,5.0721,5.3568,5.2017,5.0537,5.1661,5.2075,5.303,0.0,0.0,0.0,0.0,0.0,0.0,0.0,0.0,0.0,2.204,2.1788,0.0,0.0,0.0,0.0,0.0,0.0,0.0,0.0,0.0,0.0,0.0,3.2292,3.3496,0.0,0.0,0.0,0.0,0.0,0.0,0.0,0.0,0.0,0.0,0.0,0.0,3.8664,4.1098,4.6748,4.9779,4.9812,5.1414,5.2038,5.1542,5.2774,5.1967,4.8831,0.0,0.0,0.0,0.0,0.0,0.0,0.0,0.0,0.0,0.0,0.0,0.0,0.0,0.0,0.0,0.0,0.0,0.0,0.0,0.0,0.0,0.0,0.0,0.0,0.0,3.4354,0.0,0.0,0.0,0.0,0.0,0.0,0.0,0.0,0.0,0.0,4.3981,4.9945,5.0785,5.2049,5.3465,5.5254,5.6216,5.7046,0.0,0.0,0.0,0.0,0.0,0.0,0.0,0.0,0.0,0.0,0.0,0.0,0.0,0.0,4.6945,4.2268,4.3544,4.6306,4.9518,0.0,0.0,0.0,0.0,0.0,0.0,0.0,0.0,0.0,0.0,0.0,0.0,0.0,0.0,0.0,1.3591,0.0,0.0,1.3988,0.0,0.0,0.0,0.0,0.0,0.0,0.0,0.0,0.0,0.0,0.0,0.0,0.0,0.0,0.0,0.0,0.0,0.0,0.0,0.0,0.0,0.0,3.7426,3.8946,4.6035,4.9746,4.9875,5.1941,5.234,5.0936,5.2953,5.1912,4.7205,0.0,0.0,0.0,0.0,0.0,0.0,0.0,0.0,0.0,0.0,0.0,0.0,0.0,0.0,0.0,0.0,0.0,0.0,0.0,0.0,0.0,0.0,0.0,0.0,0.0,0.0,3.0422,3.1162,3.2029,0.0,0.0,0.0,0.0,0.0,0.0,0.0,0.0,0.0,4.8589,4.8618,5.005,5.5019,5.5295,5.5762,5.7836,5.8685,5.9037,5.8936,5.8824,6.0009,0.0,0.0,0.0,0.0,0.0,0.0,0.0,0.0,0.0,0.0,0.0,0.0,0.0,0.0,0.0,0.0,0.0,0.0,0.0,0.0,0.0,0.0,0.0,0.0,0.0,0.0,0.0,0.0,0.0,0.0,0.0,0.0,0.0,0.0,0.0,0.0,0.0,0.0,0.0,0.0,0.0,0.0,0.0,0.0,0.0,0.0,0.0,0.0,0.0,0.0,0.0,0.0,0.0,0.0,3.6463,3.8847,4.5077,4.8998,5.0567,5.2213,5.2573,5.1601,5.163,4.9938,0.0,0.0,0.0,0.0,0.0,0.0,0.0,0.0,0.0,0.0,0.0,0.0,0.0,0.0,0.0,0.0,0.0,0.0,0.0,0.0,0.0,0.0,0.0,0.0,0.0,0.0,0.0,0.0,3.3646,3.3467,3.2245,0.0,0.0,0.0,0.0,0.0,0.0,0.0,0.0,0.0,0.0,4.8364,5.1146,5.403,5.5868,5.573,5.7791,5.8561,5.6336,5.3945,5.3488,5.6633,0.0,0.0,0.0,0.0,0.0,0.0,0.0,0.0,0.0,0.0,0.0,0.0,0.0,0.0,0.0,0.0,0.0,0.0,0.0,0.0,0.0,0.0,0.0,0.0,0.0,0.0,0.0,0.0,0.0,0.0,0.0,0.0,0.0,0.0,0.0,0.0,0.0,0.0,0.0,0.0,0.0,0.0,0.0,0.0,0.0,0.0,0.0,0.0,0.0,0.0,0.0,0.0,0.0,3.5487,3.7271,4.3532,4.7887,5.0065,5.1808,5.2292,5.1388,5.1129,4.8705,0.0,0.0,0.0,0.0,0.0,0.0,0.0,0.0,0.0,0.0,0.0,0.0,0.0,0.0,0.0,0.0,0.0,0.0,0.0,0.0,0.0,0.0,0.0,0.0,0.0,0.0,0.0,0.0,3.3127,3.3463,3.2384,0.0,0.0,0.0,0.0,0.0,0.0,0.0,0.0,0.0,0.0,4.6955,4.9186,5.25,0.0,0.0,5.5962,5.6035,5.3265,5.0877,5.0566,5.3968,5.0826,0.0,0.0,0.0,0.0,0.0,0.0,0.0,0.0,0.0,0.0,0.0,0.0,0.0,0.0,0.0,0.0,0.0,0.0,0.0,0.0,0.0,0.0,0.0,0.0,0.0,0.0,0.0,0.0,0.0,0.0,0.0,0.0,0.0,0.0,0.0,0.0,0.0,0.0,0.0,0.0,0.0,0.0,0.0,0.0,0.0,0.0,0.0,0.0,0.0,0.0,0.0,0.0,3.4709,3.4983,4.1868,4.6733,4.8955,5.0955,5.1599,5.0707,5.1068,4.776,0.0,0.0,0.0,0.0,0.0,0.0,0.0,0.0,0.0,0.0,0.0,0.0,0.0,0.0,0.0,0.0,0.0,0.0,0.0,0.0,0.0,0.0,0.0,0.0,0.0,0.0,0.0,0.0,0.0,0.0,0.0,0.0,0.0,0.0,0.0,0.0,0.0,0.0,0.0,0.0,0.0,4.5474,4.8483,5.0768,5.2609,0.0,5.3384,5.2218,5.0265,4.9559,5.0368,5.3751,0.0,0.0,0.0,0.0,0.0,0.0,0.0,0.0,0.0,0.0,0.0,0.0,0.0,0.0,0.0,0.0,0.0,0.0,0.0,0.0,0.0,0.0,0.0,0.0,0.0,0.0,0.0,0.0,0.0,0.0,0.0,0.0,0.0,0.0,0.0,0.0,0.0,0.0,0.0,0.0,0.0,0.0,0.0,0.0,0.0,0.0,0.0,0.0,0.0,0.0,0.0,0.0,0.0,0.0,3.6321,4.3206,4.8267,5.1145,5.1054,5.1205,5.1761,4.8552,0.0,0.0,0.0,0.0,0.0,0.0,0.0,0.0,0.0,0.0,0.0,0.0,0.0,0.0,0.0,0.0,0.0,0.0,0.0,0.0,0.0,0.0,0.0,0.0,0.0,0.0,0.0,2.612,0.0,0.0,0.0,0.0,0.0,0.0,0.0,0.0,0.0,0.0,0.0,0.0,0.0,0.0,4.1873,4.396,4.8889,5.1618,0.0,0.0,5.0528,5.0001,4.9871,4.9287,0.0,0.0,0.0,0.0,0.0,0.0,0.0,0.0,0.0,0.0,0.0,0.0,0.0,0.0,0.0,0.0,0.0,0.0,0.0,0.0,0.0,0.0,0.0,0.0,0.0,0.0,0.0,0.0,0.0,0.0,0.0,0.0,0.0,0.0,0.0,0.0,0.0,0.0,0.0,0.0,0.0,0.0,0.0,0.0,0.0,0.0,0.0,0.0,0.0,0.0,0.0,0.0,0.0,0.0,3.4781,3.547,4.1893,4.697,5.034,4.9917,5.0451,5.223,4.764,4.3488,0.0,0.0,0.0,0.0,0.0,0.0,0.0,0.0,0.0,0.0,0.0,0.0,0.0,0.0,0.0,0.0,0.0,0.0,0.0,0.0,0.0,0.0,0.0,0.0,0.0,0.0,0.0,0.0,0.0,0.0,0.0,0.0,0.0,0.0,0.0,0.0,0.0,0.0,0.0,0.0,0.0,0.0,4.219,4.6313,0.0,0.0,0.0,4.7761,4.7761,0.0,0.0,0.0,0.0,0.0,0.0,0.0,0.0,0.0,0.0,0.0,0.0,0.0,0.0,0.0,0.0,0.0,0.0,0.0,0.0,0.0,0.0,0.0,0.0,0.0,0.0,0.0,0.0,0.0,0.0,0.0,0.0,0.0,0.0,0.0,0.0,0.0,0.0,0.0,0.0,0.0,0.0,0.0,0.0,0.0,0.0,0.0,0.0,0.0,0.0,0.0,0.0,0.0,0.0,0.0,0.0,0.0,3.3542,3.9517,4.4555,4.8194,4.8294,4.9567,5.2195,4.767,4.3228,0.0,0.0,0.0,0.0,0.0,0.0,0.0,0.0,0.0,0.0,0.0,0.0,0.0,0.0,0.0,0.0,0.0,0.0,0.0,0.0,0.0,0.0,0.0,0.0,0.0,0.0,0.0,0.0,0.0,0.0,0.0,0.0,0.0,0.0,0.0,0.0,0.0,0.0,0.0,0.0,0.0,3.9916,4.1644,4.3558,4.4644,0.0,0.0,4.4306,4.4344,4.1952,0.0,0.0,0.0,0.0,0.0,0.0,0.0,0.0,0.0,0.0,0.0,0.0,0.0,0.0,0.0,0.0,0.0,0.0,0.0,0.0,0.0,0.0,0.0,0.0,0.0,0.0,0.0,0.0,0.0,0.0,0.0,0.0,0.0,0.0,0.0,0.0,0.0,0.0,0.0,0.0,0.0,0.0,0.0,0.0,0.0,0.0,0.0,0.0,0.0,0.0,0.0,0.0,0.0,0.0,0.0,0.0,3.3856,3.9443,4.4348,4.8167,4.7663,4.9054,5.2516,4.8072,4.3618,0.0,0.0,0.0,0.0,0.0,0.0,0.0,0.0,0.0,0.0,0.0,0.0,0.0,0.0,0.0,0.0,0.0,0.0,0.0,0.0,0.0,0.0,0.0,0.0,0.0,0.0,0.0,0.0,0.0,0.0,0.0,0.0,0.0,0.0,0.0,0.0,0.0,0.0,0.0,0.0,0.0,3.6905,3.9921,4.184,0.0,0.0,0.0,0.0,4.1003,4.0471,0.0,0.0,0.0,0.0,0.0,0.0,0.0,0.0,0.0,0.0,0.0,0.0,0.0,0.0,0.0,0.0,0.0,0.0,0.0,0.0,0.0,0.0,0.0,0.0,0.0,0.0,0.0,0.0,0.0,0.0,0.0,0.0,0.0,0.0,0.0,0.0,0.0,0.0,0.0,0.0,0.0,0.0,0.0,0.0,0.0,0.0,0.0,0.0,0.0,0.0,0.0,0.0,0.0,0.0,0.0,0.0,3.3272,3.8408,4.2923,4.644,4.7078,4.8341,5.0377,4.7563,4.3525,0.0,0.0,0.0,0.0,0.0,0.0,0.0,0.0,0.0,0.0,0.0,0.0,0.0,0.0,0.0,0.0,0.0,0.0,0.0,0.0,0.0,0.0,0.0,0.0,0.0,0.0,0.0,0.0,0.0,0.0,0.0,0.0,0.0,0.0,0.0,0.0,0.0,0.0,0.0,0.0,3.358,3.4497,3.7051,0.0,0.0,0.0,0.0,0.0,0.0,3.9293,3.8497,0.0,0.0,0.0,0.0,0.0,0.0,0.0,0.0,0.0,0.0,0.0,0.0,0.0,0.0,0.0,0.0,0.0,0.0,0.0,0.0,0.0,0.0,0.0,0.0,0.0,0.0,0.0,0.0,0.0,0.0,0.0,0.0,0.0,0.0,0.0,0.0,0.0,0.0,0.0,0.0,0.0,0.0,0.0,0.0,0.0,0.0,0.0,0.0,0.0,0.0,0.0,0.0,0.0,0.0,0.0,3.2378,3.706,4.1189,4.4613,4.6572,4.7691,4.7977,4.6809,4.3101,3.6919,0.0,0.0,0.0,0.0,0.0,0.0,0.0,0.0,0.0,0.0,0.0,0.0,0.0,0.0,0.0,0.0,0.0,0.0,0.0,0.0,0.0,0.0,0.0,0.0,0.0,0.0,0.0,0.0,0.0,0.0,0.0,0.0,0.0,0.0,0.0,0.0,0.0,0.0,0.0,3.1839,3.2561,0.0,0.0,0.0,0.0,0.0,0.0,0.0,0.0,3.8459,0.0,0.0,0.0,0.0,0.0,0.0,0.0,0.0,0.0,0.0,0.0,0.0,0.0,0.0,0.0,0.0,0.0,0.0,0.0,0.0,0.0,0.0,0.0,0.0,0.0,0.0,0.0,0.0,0.0,0.0,0.0,0.0,0.0,0.0,0.0,0.0,0.0,0.0,0.0,0.0,0.0,0.0,0.0,0.0,0.0,0.0,0.0,0.0,0.0,0.0,0.0,0.0,0.0,0.0,0.0,0.0,3.6111,4.01,4.4506,4.6309,4.7377,4.7963,4.6537,4.2218,3.4813,0.0,0.0,0.0,0.0,0.0,0.0,0.0,0.0,0.0,0.0,0.0,0.0,0.0,0.0,0.0,0.0,0.0,0.0,0.0,0.0,0.0,0.0,0.0,0.0,0.0,0.0,0.0,0.0,0.0,0.0,0.0,0.0,0.0,0.0,0.0,0.0,0.0,0.0,2.994,3.0048,0.0,0.0,0.0,0.0,0.0,0.0,0.0,0.0,3.6926,0.0,0.0,0.0,0.0,0.0,0.0,0.0,0.0,0.0,0.0,0.0,0.0,0.0,0.0,0.0,0.0,0.0,0.0,0.0,0.0,0.0,0.0,0.0,0.0,0.0,0.0,0.0,0.0,0.0,0.0,0.0,0.0,0.0,0.0,0.0,0.0,0.0,0.0,0.0,0.0,0.0,0.0,0.0,0.0,0.0,0.0,0.0,0.0,0.0,0.0,0.0,0.0,0.0,0.0,0.0,0.0,0.0,0.0,3.8601,4.3292,4.5196,4.582,4.5204,4.2981,3.9321,0.0,0.0,0.0,0.0,0.0,0.0,0.0,0.0,0.0,0.0,0.0,0.0,0.0,0.0,0.0,0.0,0.0,0.0,0.0,0.0,0.0,0.0,0.0,0.0,0.0,0.0,0.0,0.0,0.0,0.0,0.0,0.0,0.0,0.0,0.0,0.0,0.0,0.0,0.0,0.0,0.0,0.0,0.0,0.0,0.0,0.0,0.0,0.0,0.0,0.0,0.0,0.0,0.0,0.0,0.0,0.0,0.0,0.0,0.0,0.0,0.0,0.0,0.0,0.0,0.0,0.0,0.0,0.0,0.0,0.0,0.0,0.0,0.0,0.0,0.0,0.0,0.0,0.0,0.0,0.0,0.0,0.0,0.0,0.0,0.0,0.0,0.0,0.0,0.0,0.0,0.0,0.0,0.0,0.0,0.0,0.0,0.0,0.0,0.0,0.0,0.0,0.0,0.0,0.0,0.0,0.0,0.0,0.0,3.7174,4.1274,4.3513,4.3902,4.2327,3.9351,3.6426,0.0,0.0,0.0,0.0,0.0,0.0,0.0,0.0,0.0,0.0,0.0,0.0,0.0,0.0,0.0,0.0,0.0,0.0,0.0,0.0,0.0,0.0,0.0,0.0,0.0,0.0,0.0,0.0,0.0,0.0,0.0,0.0,0.0,0.0,0.0,0.0,0.0,0.0,0.0,0.0,0.0,0.0,0.0,0.0,0.0,0.0,0.0,0.0,3.1332,0.0,0.0,0.0,0.0,0.0,0.0,0.0,0.0,0.0,0.0,0.0,0.0,0.0,0.0,0.0,0.0,0.0,0.0,0.0,0.0,0.0,0.0,0.0,0.0,0.0,0.0,0.0,0.0,0.0,0.0,0.0,0.0,0.0,0.0,0.0,0.0,0.0,0.0,0.0,0.0,0.0,0.0,0.0,0.0,0.0,0.0,0.0,0.0,0.0,0.0,0.0,0.0,0.0,0.0,0.0,0.0,0.0,0.0,0.0,3.6104,3.801,4.1108,4.2036,4.0656,3.7761,3.4808,0.0,0.0,0.0,0.0,0.0,0.0,0.0,0.0,0.0,0.0,0.0,0.0,0.0,0.0,0.0,0.0,0.0,0.0,0.0,0.0,0.0,0.0,0.0,0.0,0.0,0.0,0.0,0.0,0.0,0.0,0.0,0.0,0.0,0.0,0.0,0.0,0.0,0.0,0.0,0.0,0.0,0.0,0.0,0.0,0.0,0.0,0.0,0.0,0.0,0.0,0.0,0.0,0.0,0.0,0.0,0.0,0.0,0.0,0.0,0.0,0.0,0.0,0.0,0.0,0.0,0.0,0.0,0.0,0.0,0.0,0.0,0.0,0.0,0.0,0.0,0.0,0.0,0.0,0.0,0.0,0.0,0.0,0.0,0.0,0.0,0.0,0.0,0.0,0.0,0.0,0.0,0.0,0.0,0.0,0.0,0.0,0.0,0.0,0.0,0.0,0.0,0.0,0.0,0.0,0.0,0.0,0.0,0.0,3.3891,3.7475,3.8831,3.8516,3.6303,3.4313,3.2694,0.0,0.0,0.0,0.0,0.0,0.0,0.0,0.0,0.0,0.0,0.0,0.0,0.0,0.0,0.0,0.0,0.0,0.0,0.0,0.0,0.0,0.0,0.0,0.0,0.0,0.0,0.0,0.0,0.0,0.0,0.0,0.0,0.0,0.0,0.0,0.0,0.0,0.0,0.0,0.0,0.0,0.0,0.0,0.0,0.0,0.0,0.0,0.0,0.0,0.0,0.0,0.0,0.0,0.0,0.0,0.0,0.0,0.0,0.0,0.0,0.0,0.0,0.0,0.0,0.0,0.0,0.0,0.0,0.0,0.0,0.0,0.0,0.0,0.0,0.0,0.0,0.0,0.0,0.0,0.0,0.0,0.0,0.0,0.0,0.0,0.0,0.0,0.0,0.0,0.0,0.0,0.0,0.0,0.0,0.0,0.0,0.0,0.0,0.0,0.0,0.0,0.0,0.0,0.0,0.0,0.0,0.0,0.0,0.0,3.5498,3.576,3.4762,3.27,3.1783,3.1162,0.0,0.0,0.0,0.0,0.0,0.0,0.0,0.0,0.0,0.0,0.0,0.0,0.0,0.0,0.0,0.0,0.0,0.0,0.0,0.0,0.0,0.0,0.0,0.0,0.0,0.0,0.0,0.0,0.0,0.0,0.0,0.0,0.0,0.0,0.0,0.0,0.0,0.0,0.0,0.0,0.0,0.0,0.0,0.0,0.0,0.0,0.0,0.0,0.0,0.0,0.0,0.0,0.0,0.0,0.0,0.0,0.0,0.0,0.0,0.0,0.0,0.0,0.0,0.0,0.0,0.0,0.0,0.0,0.0,0.0,0.0,0.0,0.0,0.0,0.0,0.0,0.0,0.0,0.0,0.0,0.0,0.0,0.0,0.0,0.0,0.0,0.0,0.0,0.0,0.0,0.0,0.0,0.0,0.0,0.0,0.0,0.0,0.0,0.0,0.0,0.0,0.0,0.0,0.0,0.0,0.0,0.0,0.0,0.0,3.0895,3.1145,3.1219,3.1024,3.1174,3.0631,0.0,0.0,0.0,0.0,0.0,0.0,0.0,0.0,0.0,0.0,0.0,0.0,0.0,0.0,0.0,0.0,0.0,0.0,0.0,0.0,0.0,0.0,0.0,0.0,0.0,0.0,0.0,0.0,0.0,0.0,0.0,0.0,0.0,0.0,0.0,0.0,0.0,0.0,0.0,0.0,0.0,0.0,0.0,0.0,0.0,0.0,0.0,0.0,0.0,0.0,0.0,0.0,0.0,0.0,0.0,0.0,0.0,0.0,0.0,0.0,0.0,0.0,0.0,0.0,0.0,0.0,0.0,0.0,0.0,0.0,0.0,0.0,0.0,0.0,0.0,0.0,0.0,0.0,0.0,0.0,0.0,0.0,0.0,0.0,0.0,0.0,0.0,0.0,0.0,0.0,0.0,0.0,0.0,0.0,0.0,0.0,0.0,0.0,0.0,0.0,0.0,0.0,0.0,0.0,0.0,0.0,0.0,0.0,0.0,2.9029,2.9178,2.936,2.9715,2.9614,2.8966,2.7605,0.0,0.0,0.0,0.0,0.0,0.0,0.0,0.0,0.0,0.0,0.0,0.0,0.0,0.0,0.0,0.0,0.0,0.0,0.0,0.0,0.0,0.0,0.0,0.0,0.0,0.0,0.0,0.0,0.0,0.0,0.0,0.0,0.0,0.0,0.0,0.0,0.0,0.0,0.0,0.0,0.0,0.0,0.0,0.0,0.0,0.0,0.0,0.0,0.0,0.0,0.0,0.0,0.0,0.0,0.0,0.0,0.0,0.0,0.0,0.0,0.0,0.0,0.0,0.0,0.0,0.0,0.0,0.0,0.0,0.0,0.0,0.0,0.0,0.0,0.0,0.0,0.0,0.0,0.0,0.0,0.0,0.0,0.0,0.0,0.0,0.0,0.0,0.0,0.0,0.0,0.0,0.0,0.0,0.0,0.0,0.0,0.0,0.0,0.0,0.0,0.0,0.0,0.0,0.0,0.0,0.0,0.0,0.0,2.809,2.8226,2.8417,2.872,2.8636,2.7957,0.0,0.0,0.0,0.0,0.0,0.0,0.0,0.0,0.0,0.0,0.0,0.0,0.0,0.0,0.0,0.0,0.0,0.0,0.0,0.0,0.0,0.0,0.0,0.0,0.0,0.0,0.0,0.0,0.0,0.0,0.0,0.0,0.0,0.0,0.0,0.0,0.0,0.0,0.0,0.0,0.0,0.0,0.0,0.0,0.0,0.0,0.0,0.0,0.0,0.0,0.0,0.0,0.0,0.0,0.0,0.0,0.0,0.0,0.0,0.0,0.0,0.0,0.0,0.0,0.0,0.0,0.0,0.0,0.0,0.0,0.0,0.0,0.0,0.0,0.0,0.0,0.0,0.0,0.0,0.0,0.0,0.0,0.0,0.0,0.0,0.0,0.0,0.0,0.0,0.0,0.0,0.0,0.0,0.0,0.0,0.0,0.0,0.0,0.0,0.0,0.0,0.0,0.0,0.0,0.0,0.0,0.0,0.0,2.3107,2.7876,2.8381,2.8438,2.8206,2.8438,2.7675,0.0,0.0,0.0,0.0,0.0,0.0,0.0,0.0,0.0,0.0,0.0,0.0,0.0,0.0,0.0,0.0,0.0,0.0,0.0,0.0,0.0,0.0,0.0,0.0,0.0,0.0,0.0,0.0,0.0,0.0,0.0,0.0,0.0,0.0,0.0,0.0,0.0,0.0,0.0,0.0,0.0,0.0,0.0,0.0,0.0,0.0,0.0,0.0,0.0,0.0,0.0,0.0,0.0,0.0,0.0,0.0,0.0,0.0,0.0,0.0,0.0,0.0,0.0,0.0,0.0,0.0,0.0,0.0,0.0,0.0,0.0,0.0,0.0,0.0,0.0,0.0,0.0,0.0,0.0,0.0,0.0,0.0,0.0,0.0,0.0,0.0,0.0,0.0,0.0,0.0,0.0,0.0,0.0,0.0,0.0,0.0,0.0,0.0,0.0,0.0,0.0,0.0,0.0,0.0,0.0,0.0,0.0,0.0,0.0,2.472,0.0,2.8369,2.8438,2.8344,2.6594,0.0,0.0,0.0,0.0,0.0,0.0,0.0,0.0,0.0,0.0,0.0,0.0,0.0,0.0,0.0,0.0,0.0,0.0,0.0,0.0,0.0,0.0,0.0,0.0,0.0,0.0,0.0,0.0,0.0,0.0,0.0,0.0,0.0,0.0,0.0,0.0,0.0,0.0,0.0,0.0,0.0,0.0,0.0,0.0,0.0,0.0,0.0,0.0,0.0,0.0,0.0,0.0,0.0,0.0,0.0,0.0,0.0,0.0,0.0,0.0,0.0,0.0,0.0,0.0,0.0,0.0,0.0,0.0,0.0,0.0,0.0,0.0,0.0,0.0,0.0,0.0,0.0,0.0,0.0,0.0,0.0,0.0,0.0,0.0,0.0,0.0,0.0,0.0,0.0,0.0,0.0,0.0,0.0,0.0,0.0,0.0,0.0,0.0,0.0,0.0,0.0,0.0,0.0,0.0,0.0,0.0,0.0,0.0,0.0,2.232,2.5137,2.7091,2.8345,2.7721,2.5777,0.0,0.0,0.0,0.0,0.0,0.0,0.0,0.0,0.0,0.0,0.0,0.0,0.0,0.0,0.0,0.0,0.0,0.0,0.0,0.0,0.0,0.0,0.0,0.0,0.0,0.0,0.0,0.0,0.0,0.0,0.0,0.0,0.0,0.0,0.0,0.0,0.0,0.0,0.0,0.0,0.0,0.0,0.0,0.0,0.0,0.0,0.0,0.0,0.0,0.0,0.0,0.0,0.0,0.0,0.0,0.0,0.0,0.0,0.0,0.0,0.0,0.0,0.0,0.0,0.0,0.0,0.0,0.0,0.0,0.0,0.0,0.0,0.0,0.0,0.0,0.0,0.0,0.0,0.0,0.0,0.0,0.0,0.0,0.0,0.0,0.0,0.0,0.0,0.0,0.0,0.0,0.0,0.0,0.0,0.0,0.0,0.0,0.0,0.0,0.0,0.0,0.0,0.0,0.0,0.0,0.0,0.0,0.0,0.0,2.0718,2.2546,2.4856,2.7792,2.6553,2.4957,0.0,0.0,0.0,0.0,0.0,0.0,0.0,0.0,0.0,0.0,0.0,0.0,0.0,0.0,0.0,0.0,0.0,0.0,0.0,0.0,0.0,0.0,0.0,0.0,0.0,0.0,0.0,0.0,0.0,0.0,0.0,0.0,0.0,0.0,0.0,0.0,0.0,0.0,0.0,0.0,0.0,0.0,0.0,0.0,0.0,0.0,0.0,0.0,0.0,0.0,0.0,0.0,0.0,0.0,0.0,0.0,0.0,0.0,0.0,0.0,0.0,0.0,0.0,0.0,0.0,0.0,0.0,0.0,0.0,0.0,0.0,0.0,0.0,0.0,0.0,0.0,0.0,0.0,0.0,0.0,0.0,0.0,0.0,0.0,0.0,0.0,0.0,0.0,0.0,0.0,0.0,0.0,0.0,0.0,0.0,0.0,0.0,0.0,0.0,0.0,0.0,0.0,0.0,0.0,0.0,0.0,0.0,0.0,0.0,0.0,2.0654,2.2568,2.4597,2.4412,2.2922,2.0209,0.0,0.0,0.0,0.0,0.0,0.0,0.0,0.0,0.0,0.0,0.0,0.0,0.0,0.0,0.0,0.0,0.0,0.0,0.0,0.0,0.0,0.0,0.0,0.0,0.0,0.0,0.0,0.0,0.0,0.0,0.0,0.0,0.0,0.0,0.0,0.0,0.0,0.0,0.0,0.0,0.0,0.0,0.0,0.0,0.0,0.0,0.0,0.0,0.0,0.0,0.0,0.0,0.0,0.0,0.0,0.0,0.0,0.0,0.0,0.0,0.0,0.0,0.0,0.0,0.0,0.0,0.0,0.0,0.0,0.0,0.0,0.0,0.0,0.0,0.0,0.0,0.0,0.0,0.0,0.0,0.0,0.0,0.0,0.0,0.0,0.0,0.0,0.0,0.0,0.0,0.0,0.0,0.0,0.0,0.0,0.0,0.0,0.0,0.0,0.0,0.0,0.0,0.0,0.0,0.0,0.0,0.0,0.0,0.0,0.0,2.0655,2.2348,2.3758,2.327,0.0,0.0,0.0,0.0,0.0,0.0,0.0,0.0,0.0,0.0,0.0,0.0,0.0,0.0,0.0,0.0,0.0,0.0,0.0,0.0,0.0,0.0,0.0,0.0,0.0,0.0,0.0,0.0,0.0,0.0,0.0,0.0,0.0,0.0,0.0,0.0,0.0,0.0,0.0,0.0,0.0,0.0,0.0,0.0,0.0,0.0,0.0,0.0,0.0,0.0,0.0,0.0,0.0,0.0,0.0,0.0,0.0,0.0,0.0,0.0,0.0,0.0,0.0,0.0,0.0,0.0,0.0,0.0,0.0,0.0,0.0,0.0,0.0,0.0,0.0,0.0,0.0,0.0,0.0,0.0,0.0,0.0,0.0,0.0,0.0,0.0,0.0,0.0,0.0,0.0,0.0,0.0,0.0,0.0,0.0,0.0,0.0,0.0,0.0,0.0,0.0,0.0,0.0,0.0,0.0,0.0,0.0,0.0,0.0,0.0,0.0,1.9265,2.061,2.3852,0.0,2.3163,0.0,0.0,0.0,0.0,0.0,0.0,0.0,0.0,0.0,0.0,0.0,0.0,0.0,0.0,0.0,0.0,0.0,0.0,0.0,0.0,0.0,0.0,0.0,0.0,0.0,0.0,0.0,0.0,0.0,0.0,0.0,0.0,0.0,0.0,0.0,0.0,0.0,0.0,0.0,0.0,0.0,0.0,0.0,0.0,0.0,0.0,0.0,0.0,0.0,0.0,0.0,0.0,0.0,0.0,0.0,0.0,0.0,0.0,0.0,0.0,0.0,0.0,0.0,0.0,0.0,0.0,0.0,0.0,0.0,0.0,0.0,0.0,0.0,0.0,0.0,0.0,0.0,0.0,0.0,0.0,0.0,0.0,0.0,0.0,0.0,0.0,0.0,0.0,0.0,0.0,0.0,0.0,0.0,0.0,0.0,0.0,0.0,0.0,0.0,0.0,0.0,0.0,0.0,0.0,0.0,0.0,0.0,0.0,0.0,0.0,0.0,0.0,2.2387,2.277,2.0066,0.0,0.0,0.0,0.0,0.0,0.0,0.0,0.0,0.0,0.0,0.0,0.0,0.0,0.0,0.0,0.0,0.0,0.0,0.0,0.0,0.0,0.0,0.0,0.0,0.0,0.0,0.0,0.0,0.0,0.0,0.0,0.0,0.0,0.0,0.0,0.0,0.0,0.0,0.0,0.0,0.0,0.0,0.0,0.0,0.0,0.0,0.0,0.0,0.0,0.0,0.0,0.0,0.0,0.0,0.0,0.0,0.0,0.0,0.0,0.0,0.0,0.0,0.0,0.0,0.0,0.0,0.0,0.0,0.0,0.0,0.0,0.0,0.0,0.0,0.0,0.0,0.0,0.0,0.0,0.0,0.0,0.0,0.0,0.0,0.0,0.0,0.0,0.0,0.0,0.0,0.0,0.0,0.0,0.0,0.0,0.0,0.0,0.0,0.0,0.0,0.0,0.0,0.0,0.0,0.0,0.0,0.0,0.0,0.0,0.0,1.9855,1.8742,2.1105,2.1299,1.8959,0.0,0.0,0.0,0.0,0.0,0.0,0.0,0.0,0.0,0.0,0.0,0.0,0.0,0.0,0.0,0.0,0.0,0.0,0.0,0.0,0.0,0.0,0.0,0.0,0.0,0.0,0.0,0.0,0.0,0.0,0.0,0.0,0.0,0.0,0.0,0.0,0.0,0.0,0.0,0.0,0.0,0.0,0.0,0.0,0.0,0.0,0.0,0.0,0.0,0.0,0.0,0.0,0.0,0.0,0.0,0.0,0.0,0.0,0.0,0.0,0.0,0.0,0.0,0.0,0.0,0.0,0.0,0.0,0.0,0.0,0.0,0.0,0.0,0.0,0.0,0.0,0.0,0.0,0.0,0.0,0.0,0.0,0.0,0.0,0.0,0.0,0.0,0.0,0.0,0.0,0.0,0.0,0.0,0.0,0.0,0.0,0.0,0.0,0.0,0.0,0.0,0.0,0.0,0.0,0.0,0.0,0.0,0.0,0.0,0.0,0.0,0.0,0.0,0.0,1.8638,0.0,0.0,0.0,0.0,0.0,0.0,0.0,0.0,0.0,0.0,0.0,0.0,0.0,0.0,0.0,0.0,0.0,0.0,0.0,0.0,0.0,0.0,0.0,0.0,0.0,0.0,0.0,0.0,0.0,0.0,0.0,0.0,0.0,0.0,0.0,0.0,0.0,0.0,0.0,0.0,0.0,0.0,0.0,0.0,0.0,0.0,0.0,0.0,0.0,0.0,0.0,0.0,0.0,0.0,0.0,0.0,0.0,0.0,0.0,0.0,0.0,0.0,0.0,0.0,0.0,0.0,0.0,0.0,0.0,0.0,0.0,0.0,0.0,0.0,0.0,0.0,0.0,0.0,0.0,0.0,0.0,0.0,0.0,0.0,0.0,0.0,0.0,0.0,0.0,0.0,0.0,0.0,0.0,0.0,0.0,0.0,0.0,0.0,0.0,0.0,0.0,0.0,0.0,0.0,0.0,0.0,0.0,0.0,0.0,0.0,0.0,0.0,0.0,0.0,0.0,0.0,0.0,0.0,0.0,0.0,0.0,0.0,0.0,0.0,0.0,0.0,0.0,0.0,0.0,0.0,0.0,0.0,0.0,0.0,0.0,0.0,0.0,0.0,0.0,0.0,0.0,0.0,0.0,0.0,0.0,0.0,0.0,0.0,0.0,0.0,0.0,0.0,0.0,0.0,0.0,0.0,0.0,0.0,0.0,0.0,0.0,0.0,0.0,0.0,0.0,0.0,0.0,0.0,0.0,0.0,0.0,0.0,0.0,0.0,0.0,0.0,0.0,0.0,0.0,0.0,0.0,0.0,0.0,0.0,0.0,0.0,0.0,0.0,0.0,0.0,0.0,0.0,0.0,0.0,0.0,0.0,0.0,0.0,0.0,0.0,0.0,0.0,0.0,0.0,0.0,0.0,0.0,0.0,0.0,0.0,0.0,0.0,0.0,0.0,0.0,0.0,0.0,0.0,0.0,0.0,0.0,0.0,0.0,0.0,0.0,0.0,0.0,0.0,0.0,0.0,0.0,0.0,0.0,0.0,0.0,0.0,0.0,0.0,0.0,0.0,0.0,0.0,0.0,0.0,0.0,0.0,0.0,0.0,0.0,0.0,0.0,0.0,0.0,0.0,0.0,0.0,0.0,0.0,0.0,0.0,0.0,0.0,0.0,0.0,0.0,0.0,0.0,0.0,0.0,0.0,0.0,0.0,0.0,0.0,0.0,0.0,0.0,0.0,0.0,0.0,0.0,0.0,0.0,0.0,0.0,0.0,0.0,0.0,0.0,0.0,0.0,0.0,0.0,0.0,0.0,0.0,0.0,0.0,0.0,0.0,0.0,0.0,0.0,0.0,0.0,0.0,0.0,0.0,0.0,0.0,0.0,0.0,0.0,0.0,0.0,0.0,0.0,0.0,0.0,0.0,0.0,0.0,0.0,0.0,0.0,0.0,0.0,0.0,0.0,0.0,0.0,0.0,0.0,0.0,0.0,0.0,0.0,0.0,0.0,0.0,0.0,0.0,0.0,0.0,0.0,0.0,0.0,0.0,0.0,0.0,0.0,0.0,0.0,0.0,0.0,0.0,0.0,0.0,0.0,0.0,0.0,0.0,0.0,0.0,0.0,0.0,0.0,0.0,0.0,0.0,0.0,0.0,0.0,0.0,0.0,0.0,0.0,0.0,0.0,0.0,0.0,0.0,0.0,0.0,0.0,0.0,0.0,0.0,0.0,0.0,0.0,0.0,0.0,0.0,0.0,0.0,0.0,0.0,0.0,0.0,0.0,0.0,0.0,0.0,0.0,0.0,0.0,0.0,0.0,0.0,0.0,0.0,0.0,0.0,0.0,0.0,0.0,0.0,0.0,0.0,0.0,0.0,0.0,0.0,0.0,0.0,0.0,0.0,0.0,0.0,0.0,0.0,0.0,0.0,0.0,0.0,0.0,0.0,0.0,0.0,0.0,0.0,0.0,0.0,0.0,0.0,0.0,0.0,0.0,0.0,0.0,0.0,0.0,0.0,0.0,0.0,0.0,0.0,0.0,0.0,0.0,0.0,0.0,0.0,0.0,0.0,0.0,0.0,0.0,0.0,0.0,0.0,0.0,0.0,0.0,0.0,0.0,0.0,0.0,0.0,0.0,0.0,0.0,0.0,0.0,0.0,0.0,0.0,0.0,0.0,0.0,0.0,0.0,0.0,0.0,0.0,0.0,0.0,0.0,0.0,0.0,0.0,0.0,0.0,0.0,0.0,0.0,0.0,0.0,0.0,0.0,0.0,0.0,0.0,0.0,0.0,0.0,0.0,0.0,0.0,0.0,0.0,0.0,0.0,0.0,0.0,0.0,0.0,0.0,0.0,0.0,0.0,0.0,0.0,0.0,0.0,0.0,0.0,0.0,0.0,0.0,0.0,0.0,0.0,0.0,0.0,0.0,0.0,0.0,0.0,0.0,0.0,0.0,0.0,0.0,0.0,0.0,0.0,0.0,0.0,0.0,0.0,0.0,0.0,0.0,0.0,0.0,0.0,0.0,0.0,0.0,0.0,0.0,0.0,0.0,0.0,0.0,0.0,0.0,0.0,0.0,0.0,0.0,0.0,0.0,0.0,0.0,0.0,0.0,0.0,0.0,0.0,0.0,0.0,0.0,0.0,0.0,0.0,0.0,0.0,0.0,0.0,0.0,0.0,0.0,0.0,0.0,0.0,0.0,0.0,0.0,0.0,0.0,0.0,0.0,0.0,0.0,0.0,0.0,0.0,0.0,0.0,0.0,0.0,0.0,0.0,0.0,0.0,0.0,0.0,0.0,0.0,0.0,0.0,0.0,0.0,0.0,0.0,0.0,0.0,0.0,0.0,0.0,0.0,0.0,0.0,0.0,0.0,0.0,0.0,0.0,0.0,0.0,0.0,0.0,0.0,0.0,0.0,0.0,0.0,0.0,0.0,0.0,0.0,0.0,0.0,0.0,0.0,0.0,0.0,0.0,0.0,0.0,0.0,0.0,0.0,0.0,0.0,0.0,0.0,0.0,0.0,0.0,0.0,0.0,0.0,0.0,0.0,0.0,0.0,0.0,0.0,0.0,0.0,0.0,0.0,0.0,0.0,0.0,0.0,0.0,0.0,0.0,0.0,0.0,0.0,0.0,0.0,0.0,0.0,0.0,0.0,0.0,0.0,0.0,0.0,0.0,0.0,0.0,0.0,0.0,0.0,0.0,0.0,0.0,0.0,0.0,0.0,0.0,0.0,0.0,0.0,0.0,0.0,0.0,0.0,0.0,0.0,0.0,0.0,0.0,0.0,0.0,0.0,0.0,0.0,0.0,0.0,0.0,0.0,0.0,0.0,0.0,0.0,0.0,0.0,0.0,0.0,0.0,0.0,0.0,0.0,0.0,0.0,0.0,0.0,0.0,0.0,0.0,0.0,0.0,0.0,0.0,0.0,0.0,0.0,0.0,0.0,0.0,0.0,0.0,0.0,0.0,0.0,0.0,0.0,0.0,0.0,0.0,0.0,0.0,0.0,0.0,0.0,0.0,0.0,0.0,0.0,0.0,0.0,0.0,0.0,0.0,0.0,0.0,0.0,0.0,0.0,0.0,0.0,0.0,0.0,0.0,0.0,0.0,0.0,0.0,0.0,0.0,0.0,0.0,0.0,0.0,0.0,0.0,0.0,0.0,0.0,0.0,0.0,0.0,0.0,0.0,0.0,0.0,0.0,0.0,0.0,0.0,0.0,0.0,0.0,0.0,0.0,0.0,0.0,0.0,0.0,0.0,0.0,0.0,0.0,0.0,0.0,0.0,0.0,0.0,0.0,0.0,0.0,0.0,0.0,0.0,0.0,0.0,0.0,0.0,0.0,0.0,0.0,0.0,0.0,0.0,0.0,0.0,0.0,0.0,0.0,0.0,0.0,0.0,0.0,0.0,0.0,0.0,0.0,0.0,0.0,0.0,0.0,0.0,0.0,0.0,0.0,0.0,0.0,0.0,0.0,0.0,0.0,0.0,0.0,0.0,0.0,0.0,0.0,0.0,0.0,0.0,0.0,0.0,0.0,0.0,0.0,0.0,0.0,0.0,0.0,0.0,0.0,0.0,0.0,0.0,0.0,0.0,0.0,0.0,0.0,0.0,0.0,0.0,0.0,0.0,0.0,0.0,0.0,0.0,0.0,0.0,0.0,0.0,0.0,0.0,0.0,0.0,0.0,0.0,0.0,0.0,0.0,0.0,0.0,0.0,0.0,0.0,0.0,0.0,0.0,0.0,0.0,0.0,0.0,0.0,0.0,0.0,0.0,0.0,0.0,0.0,0.0,0.0,0.0,0.0,0.0,0.0,0.0,0.0,0.0,0.0,0.0,0.0,0.0,0.0,0.0,0.0,0.0,0.0,0.0]}]]]